ECMWFNIL_500_spd_000.txt.gz
Wind_Speed
22 22 22 22 22 21 21 21 21 21 20 19 18 17 17 17 17 17 18 17 18 18 19 20 21 22 22 21 21 20 19 19 19 19 19 20 20 20 20 20 20 21
20 20 21 21 21 21 21 21 21 21 21 20 20 19 18 18 18 18 17 17 16 17 17 18 19 21 22 22 21 21 20 20 19 19 19 19 19 20 20 20 20 20
19 18 19 19 19 20 20 20 20 20 21 21 21 20 20 19 19 19 18 18 17 16 16 17 18 19 21 22 22 22 22 21 21 20 20 20 20 20 20 20 20 20
19 18 18 19 19 19 20 20 20 19 19 20 20 21 21 21 21 20 20 20 19 18 17 17 17 18 19 21 22 22 22 22 22 22 22 21 21 21 21 21 21 21
21 21 21 21 20 19 19 19 19 19 18 18 18 19 20 21 21 21 21 21 21 21 20 19 19 19 19 20 21 22 22 22 22 22 23 23 23 23 22 22 23 23
24 24 24 22 21 20 20 19 18 18 19 18 18 18 19 19 20 20 20 21 21 22 22 22 22 21 22 22 22 23 23 23 23 23 23 23 24 24 24 24 24 24
26 27 27 26 25 25 25 25 23 23 22 21 21 21 21 20 19 19 19 19 20 20 20 21 22 23 24 24 25 26 26 26 26 26 25 25 25 25 26 26 26 26
27 27 28 28 28 28 29 29 29 28 27 25 24 24 24 23 22 21 21 21 21 22 22 22 23 24 25 26 27 28 28 29 29 29 29 29 28 28 28 28 28 28
29 29 30 29 28 28 29 30 31 31 31 29 27 26 25 25 24 24 24 24 24 25 25 25 26 26 27 28 29 29 29 30 30 31 31 31 31 31 31 31 31 31
32 33 34 34 33 32 31 31 32 32 31 31 29 28 28 27 26 25 26 26 26 26 25 25 26 27 28 29 31 31 30 30 31 32 32 32 32 32 33 33 33 34
36 37 36 35 34 33 33 32 32 33 32 32 31 30 30 30 28 28 28 28 28 27 26 26 27 27 28 29 31 32 32 32 31 32 33 33 33 33 33 34 34 34
39 39 38 36 34 33 33 33 33 34 34 34 34 33 32 32 31 31 31 30 30 30 30 30 30 30 30 30 31 32 33 34 34 33 33 33 33 33 33 34 35 36
44 43 41 39 37 37 37 37 36 37 36 35 36 36 35 34 34 35 35 35 35 35 35 35 35 36 36 35 36 35 35 35 36 36 36 36 36 35 34 34 35 36
48 47 43 40 40 40 39 39 39 39 38 38 38 38 37 37 38 38 38 38 38 38 40 40 40 41 41 41 41 40 38 38 39 39 39 39 39 39 39 38 37 37
46 44 41 39 41 42 41 40 39 40 40 40 40 39 39 41 41 41 41 41 40 39 40 41 41 42 43 43 43 43 41 40 41 41 41 41 41 42 43 42 40 39
49 46 43 41 43 44 44 43 42 42 42 41 41 41 42 44 44 44 45 46 44 42 42 42 42 42 43 44 45 45 45 43 42 42 42 42 43 44 46 46 45 44
53 51 48 45 45 46 47 46 46 45 44 43 43 44 45 47 47 47 48 48 48 48 46 44 44 45 45 47 49 49 48 46 45 44 45 45 44 45 46 47 47 47
54 52 50 48 47 48 48 49 48 48 47 47 48 48 48 49 50 51 51 49 50 51 49 46 47 48 47 49 50 50 49 49 46 45 45 45 45 44 44 44 44 45
54 54 53 52 51 51 51 51 51 51 51 52 53 53 53 52 52 53 53 52 52 53 52 49 49 50 49 49 49 49 50 50 48 45 44 44 45 44 44 44 44 44
57 58 57 57 57 57 57 57 56 56 56 56 57 57 57 56 55 55 54 54 54 55 54 52 52 53 52 52 52 53 54 54 52 49 47 46 46 45 45 45 45 44
60 61 61 60 60 60 60 60 60 60 60 60 59 59 58 58 58 57 57 56 55 55 54 52 52 53 51 51 53 55 55 54 53 50 48 46 46 46 45 45 45 45
60 60 60 60 60 60 60 60 60 60 60 60 60 59 58 58 58 59 59 58 57 56 55 53 53 53 51 51 53 54 54 53 52 51 50 49 49 49 48 46 47 47
58 59 59 59 59 59 59 59 59 59 58 58 58 58 58 58 58 58 59 59 58 58 58 56 55 54 52 53 55 55 53 53 53 53 53 52 52 52 50 48 47 47
56 57 57 58 58 58 58 58 57 57 57 57 57 57 58 58 57 57 57 57 57 58 58 57 57 55 55 56 56 53 50 50 51 52 53 54 53 52 51 49 49 49
54 54 55 55 55 55 55 55 55 55 55 55 55 56 56 57 56 56 55 55 55 56 56 56 57 57 57 57 55 52 52 53 54 54 55 56 56 55 54 54 54 53
53 53 52 52 53 53 53 53 53 53 53 53 54 54 54 54 54 54 53 53 53 53 54 56 57 56 56 56 56 56 57 58 58 57 57 58 59 59 58 58 58 56

ECMWFNIL_500_spd_003.txt.gz
Wind_Speed
21 21 21 22 23 23 22 22 21 20 20 19 19 19 18 18 18 18 17 17 16 16 17 19 20 20 21 21 22 22 21 21 20 20 20 21 21 22 22 21 21 21
21 20 20 20 22 22 23 23 22 21 21 20 19 19 19 19 19 19 18 17 16 16 17 17 18 18 19 19 20 20 20 20 19 19 19 20 20 21 21 21 20 20
20 20 20 20 21 22 22 22 21 21 20 20 20 19 19 19 19 19 19 18 18 17 17 17 18 18 18 18 18 18 18 18 18 18 18 19 19 20 20 20 20 19
21 21 22 22 21 20 20 20 20 20 20 20 20 20 20 20 20 20 20 20 19 19 19 19 18 18 18 18 18 18 18 17 17 17 18 18 19 19 20 20 19 19
23 23 23 23 22 20 21 21 21 21 22 22 22 22 22 21 22 22 21 21 21 20 20 20 20 20 20 19 19 18 18 18 18 18 17 18 18 19 19 20 20 19
25 25 25 24 23 23 24 24 24 23 22 22 22 22 21 21 21 21 21 21 21 21 21 21 22 21 21 21 20 20 20 20 20 20 20 19 19 19 20 20 20 20
26 27 26 26 25 25 25 26 26 25 24 23 22 22 22 21 21 21 21 21 21 20 20 20 20 21 21 21 20 20 20 20 21 21 22 22 22 22 22 22 22 22
28 28 27 27 26 26 26 26 26 26 24 25 26 26 25 25 24 23 23 22 22 22 22 21 20 20 21 22 22 22 21 21 22 22 22 23 23 23 23 24 24 25
29 29 28 27 26 28 28 26 26 26 25 26 26 26 26 27 28 27 26 25 24 24 25 24 23 23 23 23 23 23 23 23 24 24 25 25 25 24 24 24 25 26
30 31 31 29 28 31 31 29 29 30 29 28 27 27 27 28 28 28 29 28 27 26 26 26 24 24 23 23 23 23 23 23 24 25 26 27 27 27 26 26 26 27
32 33 34 33 32 32 33 32 31 32 32 32 32 32 32 30 28 27 28 29 30 28 27 26 25 25 25 24 24 25 24 24 25 26 27 28 28 28 28 29 29 29
36 37 36 35 33 33 35 35 34 34 34 33 34 33 33 32 31 29 28 28 29 29 29 29 29 28 28 28 28 28 28 27 28 29 29 30 31 31 31 31 31 32
39 40 38 36 35 37 38 38 38 38 36 35 36 36 35 36 35 34 32 30 30 30 30 31 33 32 32 32 32 34 34 33 34 34 34 34 34 34 33 33 33 34
40 40 41 41 40 40 41 41 42 42 41 40 41 39 37 37 39 40 38 34 33 34 33 34 34 34 36 36 35 36 37 38 38 37 37 36 36 36 35 35 36 36
45 42 43 45 44 42 42 43 45 47 47 45 44 41 37 36 38 41 40 37 37 37 38 39 37 35 37 39 38 39 40 39 38 38 38 38 38 38 37 36 37 38
50 48 46 46 46 45 44 44 44 45 44 42 43 43 42 42 41 41 43 42 41 39 40 41 39 37 38 40 41 42 43 41 40 39 40 40 40 40 40 40 40 40
52 52 51 51 50 50 49 49 48 47 44 41 41 42 44 44 43 43 45 46 45 44 44 44 43 42 41 41 43 46 46 44 42 42 42 43 44 43 42 41 40 40
53 53 53 54 55 55 55 56 56 55 54 51 47 45 44 44 44 45 47 48 48 48 49 49 47 44 43 43 45 48 47 45 45 45 44 46 46 44 43 43 42 42
54 55 55 56 56 56 57 58 58 58 57 55 52 49 47 46 45 45 47 48 49 50 51 51 49 47 47 48 49 49 48 48 48 47 46 47 49 49 49 49 48 48
52 52 53 53 53 53 53 54 55 55 54 53 52 51 50 50 49 49 50 50 51 52 52 51 51 51 52 52 52 52 51 50 51 51 51 51 51 51 50 48 47 48
56 55 54 53 53 53 52 52 53 54 55 55 55 55 55 55 55 55 55 55 56 56 55 55 56 57 56 56 56 55 54 54 55 54 52 51 51 51 51 49 49 50
60 59 58 58 58 57 56 56 56 57 58 59 59 59 60 60 59 59 60 60 60 60 60 59 60 60 60 60 59 57 56 56 56 54 54 54 54 55 54 52 51 51
57 57 57 57 57 58 58 58 59 59 59 60 61 61 61 61 62 62 62 62 62 62 61 60 60 61 60 59 58 57 56 56 56 56 56 56 55 55 55 54 53 53
56 56 56 56 56 56 56 57 57 57 58 58 59 59 59 60 60 61 61 60 59 59 58 58 58 58 57 56 56 56 55 55 55 55 55 55 56 56 56 55 55 54
55 56 56 56 56 55 56 56 56 56 56 56 56 56 56 57 58 59 58 56 55 55 56 56 56 56 55 55 55 54 54 54 55 55 55 56 57 57 57 56 56 56
55 55 55 55 55 55 55 56 56 56 55 55 55 55 55 55 56 57 55 53 52 53 54 54 54 54 54 54 54 54 54 54 54 54 54 55 55 56 56 56 56 56

ECMWFNIL_500_spd_006.txt.gz
Wind_Speed
16 14 13 13 14 15 16 17 18 18 19 19 20 20 20 19 18 18 17 17 17 18 18 18 17 17 17 17 17 16 16 16 15 14 14 14 14 15 15 15 16 17
14 13 13 14 15 15 16 16 17 18 19 19 20 20 20 20 19 19 18 18 17 17 17 17 17 16 16 16 16 16 16 16 15 15 14 13 13 14 15 15 16 16
14 13 14 15 16 16 17 17 18 19 20 20 20 20 20 20 19 19 19 18 18 18 18 18 17 17 16 16 16 16 15 15 15 14 14 13 13 13 14 15 16 16
15 16 16 16 17 18 18 19 20 20 21 20 20 20 19 19 19 19 19 18 18 18 19 19 19 18 18 17 16 16 16 15 15 14 13 13 12 13 13 14 15 16
18 18 18 18 19 19 19 20 20 20 19 19 19 19 19 19 19 19 19 19 20 20 20 20 20 19 19 18 18 17 17 17 17 16 15 15 14 14 13 14 15 15
22 22 21 21 21 20 20 21 21 20 20 19 19 19 19 20 19 18 18 18 18 19 19 19 20 19 19 19 18 18 18 18 18 18 18 17 17 17 16 16 16 16
26 25 24 23 22 21 21 21 21 22 23 22 21 20 20 20 19 19 19 19 18 19 19 19 19 19 19 19 19 19 19 18 18 18 18 18 17 17 17 17 18 18
28 27 26 25 23 23 23 22 22 24 25 25 24 23 22 21 20 20 21 21 21 21 22 22 21 21 21 21 21 20 20 20 20 19 19 19 18 18 18 18 18 18
31 30 30 28 26 26 25 23 23 25 26 26 26 25 24 23 22 22 23 23 23 23 23 23 24 24 24 23 23 23 23 22 21 21 21 21 20 20 20 20 20 20
34 34 33 31 29 28 26 25 26 26 27 28 28 27 27 26 25 24 23 24 25 24 24 25 26 26 25 25 24 24 24 24 23 23 22 22 22 21 21 21 22 22
36 37 36 34 32 29 27 28 29 30 30 30 30 31 30 30 29 27 25 27 28 28 27 26 27 27 27 26 25 25 25 24 24 24 24 24 24 24 23 23 24 24
39 39 39 38 35 31 29 30 31 32 34 33 33 34 32 30 30 29 28 29 28 28 28 27 27 27 28 28 28 27 26 26 26 26 26 26 27 27 27 28 28 28
42 42 44 43 39 34 33 35 35 35 37 38 36 36 34 34 34 34 33 32 30 29 29 28 27 27 27 28 30 30 29 29 29 29 29 29 30 30 31 31 32 32
41 41 41 41 39 37 37 39 39 37 37 37 37 35 33 34 35 34 34 34 33 33 33 33 33 32 31 29 29 32 32 31 31 32 32 33 32 32 32 32 33 33
43 42 41 41 41 40 40 41 42 41 39 38 38 38 38 38 38 36 36 37 38 38 38 38 38 36 35 32 30 31 32 32 33 34 34 35 34 33 33 34 34 35
47 46 44 43 43 43 44 45 45 46 45 43 42 43 44 45 45 43 41 42 44 44 43 42 39 35 34 35 33 33 33 32 33 34 35 37 38 37 35 35 37 38
50 49 47 47 47 47 48 50 50 50 50 49 48 48 48 47 47 45 43 40 40 41 41 41 41 40 39 38 38 38 38 37 37 37 38 41 42 41 39 37 38 39
52 51 50 50 50 50 50 52 52 52 52 52 51 52 52 52 52 51 50 47 45 44 42 41 43 45 44 42 41 42 42 42 41 41 42 43 44 44 43 41 40 42
53 52 51 50 50 51 51 52 53 54 54 54 54 53 54 54 54 54 55 56 54 53 51 50 49 48 47 46 45 44 44 44 43 43 43 44 44 45 45 44 44 45
53 54 53 51 50 51 51 51 53 54 55 57 57 56 56 56 55 55 56 58 59 59 56 53 51 49 48 47 47 47 46 46 46 46 46 46 46 46 47 48 49 50
51 53 55 55 54 53 52 52 52 52 53 54 54 54 55 56 55 55 55 56 59 59 56 52 49 48 48 48 49 50 50 51 52 52 52 51 51 51 52 53 54 55
50 51 54 56 57 58 58 57 57 57 57 57 56 56 56 56 56 56 55 55 55 56 55 52 50 49 49 50 51 51 52 54 55 55 55 55 55 55 56 56 57 57
51 51 52 54 56 57 59 60 60 61 61 62 61 61 61 61 60 60 59 58 56 55 55 54 52 51 52 52 53 52 53 54 54 54 54 55 56 56 57 57 56 56
52 52 53 54 54 55 56 57 58 59 60 60 60 60 60 60 61 61 62 61 59 58 57 56 55 54 54 54 54 53 52 52 52 52 52 53 54 54 54 53 53 52
53 53 54 54 55 55 56 56 57 57 58 58 58 58 58 58 58 59 60 60 58 57 57 56 56 55 54 53 53 52 52 51 51 51 51 51 51 50 49 49 49 50
53 53 54 55 55 56 57 57 57 57 58 58 58 58 58 58 58 57 57 55 55 54 54 54 55 54 54 53 52 52 51 50 50 50 49 49 49 48 48 49 49 49

ECMWFNIL_500_spd_009.txt.gz
Wind_Speed
20 18 16 16 15 13 11 10 9 10 11 12 13 13 13 14 14 15 15 15 15 14 14 13 13 12 12 11 10 9 8 8 8 9 9 9 10 11 12 12 12 12
18 17 15 15 15 12 10 8 7 9 10 11 12 12 13 13 14 14 15 15 15 15 14 14 13 13 12 12 11 10 9 9 8 8 9 9 9 9 10 11 11 11
17 17 15 14 14 12 10 8 7 9 11 12 12 12 12 12 12 12 12 13 13 14 14 14 14 14 13 13 13 12 11 11 10 9 9 9 9 9 10 10 11 11
17 17 17 15 12 11 11 10 9 10 12 13 13 12 11 10 10 11 11 11 12 12 13 13 14 14 14 14 14 14 13 12 12 11 10 10 10 10 10 10 11 11
19 18 19 16 13 11 11 12 13 12 13 14 14 14 13 12 12 11 11 11 12 12 12 12 13 13 13 14 14 14 14 14 14 13 12 12 11 11 11 11 11 12
22 21 21 19 16 13 13 14 16 16 16 17 17 17 16 16 15 14 13 13 12 12 12 12 12 12 12 13 14 14 15 15 15 15 14 14 14 14 13 14 13 13
25 24 23 21 19 18 17 17 19 19 18 18 19 20 20 19 17 16 16 15 15 14 14 14 14 14 13 14 14 15 16 17 17 16 16 15 14 14 14 14 14 14
27 26 24 23 23 23 22 20 20 21 20 19 20 22 23 22 20 19 18 17 17 18 17 17 16 16 16 16 16 17 18 18 18 18 18 17 16 15 15 14 14 14
27 26 26 26 26 26 24 23 23 23 22 21 22 23 24 23 22 21 21 20 20 20 19 19 19 18 17 18 19 19 19 19 19 19 20 20 20 18 18 16 15 15
30 29 28 29 29 28 27 25 25 26 26 25 25 24 24 24 23 23 23 23 23 23 22 22 22 20 20 20 20 20 21 21 20 19 19 20 21 21 20 19 18 17
29 30 30 30 31 31 29 28 28 28 29 29 28 26 25 26 25 24 25 26 25 26 26 26 26 25 23 22 21 21 22 23 22 21 20 20 21 21 21 21 21 20
32 33 33 33 33 33 32 32 32 32 32 33 31 28 26 26 26 26 28 29 28 28 29 29 28 27 26 25 25 23 23 23 24 24 24 23 23 23 23 23 24 24
35 35 34 32 32 33 34 35 36 37 37 37 36 33 30 29 29 29 31 32 31 31 33 33 31 30 29 28 27 26 26 26 25 24 25 26 27 27 26 26 27 27
38 37 35 34 33 34 35 36 38 39 38 37 37 36 36 35 34 33 33 33 32 31 31 32 32 31 31 30 29 28 29 29 29 28 27 28 29 30 30 30 30 30
43 43 43 41 40 39 39 39 39 39 38 37 37 36 37 38 38 37 36 35 34 31 29 30 31 31 32 32 31 31 31 31 33 34 33 31 30 30 31 32 32 32
46 47 47 46 45 44 44 44 44 44 43 42 40 39 38 39 40 40 40 38 37 36 35 35 36 36 36 35 34 34 35 35 36 37 37 35 32 30 31 32 32 33
49 49 49 49 49 48 47 47 48 48 47 46 44 41 41 41 42 42 43 42 42 42 42 42 42 41 40 38 36 36 36 35 35 35 35 35 35 35 36 36 36 37
52 52 52 52 52 52 52 52 52 52 51 50 48 46 45 45 44 44 45 46 47 47 47 47 46 45 44 43 41 40 40 39 38 38 39 40 40 40 40 40 40 40
52 53 53 53 53 54 55 56 56 56 55 55 53 52 51 50 48 48 48 49 49 48 48 48 47 47 47 47 47 47 47 48 47 47 48 47 47 46 44 43 43 42
46 47 48 48 49 50 51 53 54 55 56 56 56 55 55 53 51 51 51 52 52 51 49 49 48 48 48 48 49 49 49 49 48 48 49 49 48 48 47 47 47 47
44 44 45 46 48 49 50 50 50 51 52 53 54 55 55 55 53 52 51 52 53 52 50 48 47 47 47 48 48 49 49 49 48 47 47 47 47 47 48 49 49 49
47 47 48 49 51 52 52 51 51 50 50 50 51 53 54 55 55 55 54 54 54 53 52 51 50 50 50 49 49 49 50 51 51 51 50 49 48 49 49 50 50 49
51 52 52 53 53 53 53 52 51 51 50 50 51 52 53 54 55 55 55 55 55 55 55 54 54 54 53 53 54 54 54 54 54 54 54 53 52 52 52 52 52 52
55 56 56 55 53 52 52 52 51 51 51 51 51 52 52 53 53 54 54 54 55 54 54 54 53 53 52 53 53 54 53 53 53 53 54 54 53 53 52 52 53 53
56 56 56 55 53 52 52 52 52 52 52 52 52 52 52 53 53 53 53 53 53 53 53 53 52 52 51 51 51 51 50 50 50 50 51 51 51 51 50 50 50 51
56 56 56 55 54 53 52 52 52 53 53 54 54 54 54 54 55 55 55 55 54 54 54 54 54 53 53 52 51 50 49 48 47 48 48 49 49 49 49 49 49 48

ECMWFNIL_500_spd_012.txt.gz
Wind_Speed
24 24 23 22 18 15 12 11 10 12 13 13 10 7 6 7 8 8 8 8 8 9 9 9 9 9 9 9 9 10 10 11 11 12 12 13 13 13 13 14 14 14
22 24 22 18 16 15 13 11 11 11 12 12 11 8 8 8 9 9 9 9 8 8 8 8 8 9 9 9 9 8 9 9 10 10 11 11 12 12 12 12 12 12
21 23 22 16 14 14 14 13 12 11 12 12 12 10 9 9 10 10 10 10 10 9 9 9 8 8 8 8 8 8 8 9 9 10 10 11 12 12 12 12 12 12
20 23 23 16 13 15 15 15 15 14 14 13 13 12 9 9 10 11 11 11 11 10 10 9 9 9 9 9 9 9 9 9 9 10 10 11 12 13 13 13 13 13
21 25 23 14 12 15 16 17 18 18 17 15 13 12 11 10 10 11 12 12 13 12 11 11 10 10 10 10 9 9 8 8 9 9 10 11 12 13 14 14 14 14
21 25 22 14 14 15 17 18 19 19 19 17 14 13 13 13 12 12 13 13 14 14 14 13 12 11 10 10 10 10 9 9 9 9 10 11 12 13 14 15 16 16
22 24 23 19 17 18 18 19 20 19 19 18 17 16 15 15 14 14 14 14 15 15 15 15 14 12 11 11 12 12 12 12 12 12 12 12 13 14 14 15 16 16
24 26 27 24 20 21 21 21 21 21 20 20 19 19 18 17 16 16 16 16 16 16 16 16 15 15 14 14 14 14 14 14 15 15 15 15 15 14 15 15 16 16
24 26 28 28 25 23 22 22 23 23 22 21 21 20 21 20 19 18 18 18 18 18 18 18 17 17 18 17 17 17 17 17 17 17 17 17 17 17 17 17 17 17
23 23 24 29 30 27 25 25 24 24 23 23 23 22 22 22 21 21 21 21 21 21 21 20 20 20 21 21 20 20 20 20 19 19 19 18 18 19 19 19 18 18
22 22 23 25 28 27 26 26 26 26 26 26 25 25 23 22 22 22 23 24 24 24 25 24 23 24 24 24 24 23 23 23 22 21 20 20 20 19 19 20 19 19
21 23 23 24 26 26 26 26 25 26 28 29 29 28 25 23 23 24 24 25 26 26 26 26 26 26 27 28 29 28 27 26 24 23 21 21 21 21 20 20 20 21
26 25 23 25 27 27 27 27 25 25 26 27 27 27 28 27 26 26 26 27 28 29 28 27 27 28 29 31 32 34 33 30 27 25 24 23 23 23 23 22 23 23
29 26 23 23 24 23 25 27 28 27 25 23 22 22 25 27 27 27 27 27 28 31 32 31 31 31 31 31 32 33 33 32 29 28 27 27 26 26 26 25 26 28
31 30 28 26 25 25 26 29 31 32 30 30 32 32 31 30 30 30 30 30 30 31 33 34 34 34 34 34 33 31 30 31 31 31 31 31 31 30 29 29 30 32
35 34 33 32 33 34 35 36 38 39 38 39 42 41 39 36 35 35 35 35 35 35 35 36 37 37 36 36 36 34 32 32 33 33 33 33 33 33 32 33 34 35
37 37 37 37 39 40 41 41 42 44 44 43 43 42 41 40 40 40 39 39 39 39 39 39 39 39 38 38 38 38 38 38 38 37 35 35 35 34 34 35 36 35
39 39 40 40 41 41 42 43 43 44 45 45 45 45 44 44 44 44 43 43 43 43 43 43 43 43 42 42 42 42 43 43 42 40 39 39 39 39 38 38 38 38
41 41 41 41 42 43 43 43 42 41 41 42 44 44 44 43 43 43 43 44 44 46 47 47 47 47 47 47 47 47 47 46 45 44 42 42 42 42 43 43 43 44
42 42 42 42 42 43 43 42 41 40 40 40 41 41 41 41 41 42 44 44 44 45 46 46 47 47 47 48 48 48 49 49 48 47 46 44 43 43 43 44 44 45
44 43 43 42 42 42 42 42 42 41 41 42 42 42 43 44 45 46 46 46 46 45 44 44 45 45 46 46 46 47 48 49 49 48 47 46 45 44 44 45 45 44
46 44 44 44 43 43 43 43 44 44 45 45 47 48 48 49 50 50 48 47 46 45 45 44 44 44 44 45 46 47 49 50 50 50 50 50 50 49 49 49 48 48
49 48 46 44 43 43 44 45 47 48 49 50 50 51 52 52 52 52 50 48 46 46 45 45 45 45 44 45 46 48 49 50 51 51 52 52 52 52 51 50 49 49
51 50 47 45 45 46 47 49 50 51 51 52 52 53 53 53 53 52 52 51 49 47 46 46 46 45 45 45 45 46 47 47 48 48 48 48 49 49 49 48 48 48
49 49 48 48 49 50 51 51 52 52 52 53 53 54 54 54 53 52 52 51 51 50 49 48 48 47 46 46 46 46 46 47 47 47 47 48 47 47 47 48 48 48
50 50 51 51 52 53 54 54 54 54 54 54 55 55 54 54 53 53 52 52 52 52 52 52 51 51 50 49 49 49 49 48 48 48 48 48 48 48 48 48 49 49

ECMWFNIL_500_spd_015.txt.gz
Wind_Speed
18 18 19 18 18 20 24 24 19 17 18 16 13 12 11 12 11 11 10 10 10 10 10 10 10 9 9 10 10 11 12 13 14 14 15 15 15 15 16 16 16 16
19 18 18 16 14 19 23 21 17 16 16 15 13 12 12 11 10 8 7 7 8 9 10 11 12 11 11 10 10 10 11 11 12 12 13 13 13 13 13 14 14 15
18 16 15 13 14 20 22 19 16 16 15 14 12 12 12 11 9 7 6 5 6 8 9 11 12 12 12 11 11 10 10 10 10 11 11 11 11 11 12 12 13 13
17 16 15 13 15 21 21 17 16 16 15 14 13 13 12 12 11 9 8 6 5 6 7 9 10 11 12 12 11 11 11 11 11 11 11 11 11 11 12 12 13 13
16 14 14 13 16 21 20 17 16 15 16 16 15 14 14 13 12 12 11 9 8 7 6 7 8 9 10 11 12 12 12 13 13 13 13 12 12 13 13 13 14 14
15 13 14 14 16 19 18 15 14 15 16 16 16 15 14 14 13 12 11 11 10 10 9 8 9 9 10 11 11 11 12 12 13 13 13 13 13 13 14 14 14 15
16 15 15 15 16 17 16 16 16 16 18 18 17 16 16 15 14 12 12 12 12 12 11 10 10 10 11 11 11 11 11 12 12 12 13 13 14 15 16 16 16 17
16 17 18 18 19 19 19 21 21 20 21 21 20 19 18 18 16 14 13 13 12 12 12 12 12 12 13 13 14 14 14 14 14 14 14 14 15 17 18 18 19 19
15 17 18 20 21 20 21 23 25 26 25 24 23 22 21 19 18 15 14 14 14 13 13 13 13 14 15 15 16 16 16 16 16 16 16 17 18 18 18 19 19 20
15 15 15 16 18 20 21 22 25 28 28 27 26 25 23 21 20 19 17 16 16 16 15 15 14 15 16 17 17 18 18 18 19 19 20 21 20 20 20 20 20 21
17 17 16 15 16 17 20 22 26 28 28 27 27 26 24 22 21 21 20 18 18 17 17 17 17 17 18 18 19 20 20 20 21 22 23 24 24 24 23 22 21 22
20 21 20 19 20 20 21 23 28 29 26 23 23 23 23 23 22 21 20 18 18 18 18 18 19 20 20 20 20 21 22 22 22 23 24 25 27 27 26 25 24 23
22 23 23 23 23 21 21 22 27 31 28 23 22 21 21 21 22 22 21 21 21 20 20 21 22 23 23 24 23 24 25 25 25 24 24 25 28 29 29 28 27 26
25 25 25 25 23 20 20 21 25 30 30 26 25 24 22 22 22 22 22 22 22 21 22 24 25 24 24 25 26 27 29 30 29 28 27 27 28 28 29 30 30 29
28 27 27 26 24 21 20 21 22 25 28 29 28 25 22 21 21 21 22 23 24 25 26 26 26 25 25 25 27 28 31 33 33 32 31 31 31 29 27 29 32 32
32 30 29 28 27 24 23 25 25 24 27 29 28 26 25 26 29 30 31 32 33 33 29 27 27 28 28 28 28 29 30 32 34 34 34 34 35 33 30 31 33 34
35 33 31 31 30 28 27 30 30 28 30 31 31 31 32 35 37 35 33 35 37 35 32 33 34 33 31 31 32 32 33 34 35 35 36 36 37 37 36 36 38 39
40 39 37 35 34 32 32 32 33 32 32 34 35 35 33 31 33 33 33 34 35 33 33 34 34 33 32 32 33 34 35 36 37 38 39 40 40 41 42 42 43 43
42 42 41 40 39 38 38 37 35 34 34 35 36 35 34 33 34 35 34 33 31 31 33 33 32 32 32 33 34 36 37 38 39 40 41 42 44 45 45 46 46 46
42 42 43 42 42 41 41 40 38 37 37 37 37 37 36 37 36 35 34 32 31 32 33 34 35 35 36 37 38 38 39 39 40 41 42 43 44 45 46 46 46 46
42 42 43 43 43 43 43 42 41 40 39 38 38 38 38 37 37 36 35 34 33 34 36 38 39 40 41 41 41 40 40 41 41 42 42 43 43 44 44 44 44 44
45 44 44 45 45 46 45 45 45 44 43 41 40 40 40 39 38 36 36 36 37 38 39 41 42 43 44 44 44 43 41 41 42 43 43 43 43 44 44 44 45 45
45 46 46 46 46 46 46 46 46 46 46 45 44 42 41 40 38 38 38 39 40 41 41 42 44 45 46 47 47 45 43 42 42 43 43 44 44 44 44 45 45 46
43 45 46 46 46 46 46 46 46 46 46 46 45 44 42 41 40 40 40 41 41 42 43 44 45 47 48 49 49 48 47 46 44 44 44 44 44 45 45 46 46 47
44 44 45 45 46 46 46 46 46 45 45 45 45 44 44 43 42 42 42 42 43 44 45 46 47 48 50 50 50 50 49 48 48 47 46 45 45 45 46 46 47 48
44 44 45 45 45 46 47 47 46 45 45 45 46 46 46 45 45 44 44 45 46 47 48 49 49 50 51 51 51 50 49 49 48 47 46 46 45 45 45 45 46 46

ECMWFNIL_500_spd_018.txt.gz
Wind_Speed
21 20 20 20 20 21 20 19 17 13 11 12 12 13 15 16 16 16 18 18 19 19 19 19 19 18 16 15 14 14 14 14 14 15 16 17 18 18 18 19 18 18
21 19 19 18 19 21 18 16 16 15 13 13 13 13 15 16 16 16 17 18 18 18 18 18 18 17 16 15 14 13 13 13 13 13 14 14 15 15 15 15 15 15
19 19 19 18 18 18 15 15 19 20 17 15 14 14 15 16 16 15 16 17 17 17 17 17 17 16 16 15 15 14 14 13 12 12 12 13 13 13 13 13 12 12
17 17 16 14 15 16 14 17 23 24 21 18 15 15 16 16 15 15 14 15 16 17 17 17 16 15 15 15 14 14 14 14 13 13 12 12 12 12 12 12 11 11
18 16 15 13 13 15 15 18 25 27 23 20 16 15 16 16 15 15 15 15 16 17 18 18 18 17 16 16 15 15 15 14 14 14 14 14 13 13 13 12 12 12
18 15 14 14 14 15 15 18 23 22 18 15 14 15 16 16 16 16 17 18 18 18 19 19 19 18 18 17 16 15 15 15 15 15 15 15 14 14 13 12 12 12
16 13 11 13 14 15 16 15 16 15 13 12 12 13 15 16 17 18 18 20 20 20 20 19 19 19 18 17 16 15 15 14 14 14 14 14 14 13 13 13 13 13
12 11 10 11 13 15 17 16 15 16 16 14 14 16 17 19 20 20 20 20 21 21 21 20 20 19 19 18 17 16 15 15 14 14 14 14 14 14 13 14 14 15
10 10 11 12 12 13 14 14 15 17 17 17 19 20 21 22 22 21 22 21 20 20 20 20 20 20 20 20 19 18 17 17 16 16 16 16 15 15 15 15 16 17
12 12 13 13 13 13 12 12 13 15 17 19 23 24 23 23 23 23 23 23 22 21 20 19 18 19 19 19 19 19 18 18 18 18 18 18 18 17 18 18 18 18
14 14 15 16 16 15 14 13 13 15 17 21 25 26 25 23 24 25 25 25 24 24 22 19 18 18 18 18 18 19 19 19 19 19 20 20 20 20 20 20 20 20
17 16 17 18 18 17 16 15 16 18 20 22 24 26 25 24 24 25 26 26 27 25 22 20 18 17 18 18 19 19 19 20 20 20 21 21 22 22 21 21 22 22
22 21 20 19 18 17 16 16 18 19 21 23 24 25 28 29 27 26 27 26 25 23 21 20 19 18 18 19 20 20 20 21 22 22 23 24 24 24 23 23 24 25
28 26 24 21 20 20 20 19 19 20 20 22 23 24 28 31 30 27 27 26 23 20 20 22 22 21 21 21 21 22 22 22 22 23 25 27 27 26 26 25 26 28
32 30 29 28 28 27 26 24 22 22 22 22 23 22 24 28 30 29 29 28 24 21 22 25 24 23 23 24 24 25 25 24 23 23 24 27 28 28 28 28 28 30
37 34 32 33 32 31 31 29 26 25 24 24 25 24 23 25 28 30 31 29 26 24 24 25 26 27 28 29 28 27 27 27 27 27 28 29 30 30 30 30 31 32
40 37 35 34 34 34 33 33 31 29 28 27 27 27 28 28 28 29 30 30 27 26 27 28 29 30 31 31 29 29 30 31 32 33 34 34 35 34 34 34 35 35
41 39 38 37 36 35 35 36 35 34 33 32 31 30 31 33 32 31 33 34 32 31 30 30 30 29 30 31 31 31 32 33 33 33 33 33 34 35 36 37 38 38
42 41 41 40 39 38 37 37 37 36 35 34 35 34 33 34 34 34 35 36 34 33 33 33 31 31 31 32 32 31 30 30 31 32 33 34 35 35 36 37 38 39
44 44 43 42 41 40 39 38 37 37 36 35 36 36 36 35 36 36 36 35 34 34 35 35 35 36 36 34 32 31 29 30 32 34 36 37 37 37 37 37 38 40
46 46 45 44 43 41 40 39 38 38 38 38 38 37 38 38 37 37 36 36 36 35 36 36 37 36 36 34 32 31 31 32 35 36 37 37 37 38 38 38 39 40
46 46 46 45 44 43 42 41 40 40 40 40 40 40 40 40 40 39 38 37 37 37 37 37 37 36 34 33 33 33 34 36 36 37 37 37 38 39 39 40 40 40
43 44 45 44 44 43 43 43 42 43 43 43 43 43 43 42 40 39 38 38 38 38 39 39 38 37 36 36 35 36 36 37 37 38 39 39 40 41 41 41 41 41
41 42 42 42 42 42 42 42 42 42 42 42 43 43 43 42 41 39 39 39 39 39 40 40 39 39 39 40 40 39 39 39 40 41 41 41 41 42 42 42 42 42
40 41 41 42 42 42 42 42 42 42 41 41 42 42 42 42 41 40 39 38 38 39 40 40 41 41 42 43 43 43 43 43 44 44 43 43 43 43 43 43 43 43
40 39 39 40 41 42 43 43 43 42 42 42 43 43 42 42 41 41 40 40 39 39 39 40 41 41 42 43 44 45 45 46 46 46 46 46 45 45 45 44 44 44

ECMWFNIL_500_spd_021.txt.gz
Wind_Speed
19 19 21 22 22 23 22 22 22 23 23 22 19 19 20 19 18 16 14 14 15 16 17 19 22 24 26 27 27 28 27 27 26 25 24 23 22 21 20 18 17 16
21 21 23 23 21 20 20 19 20 20 21 21 19 18 18 18 17 16 14 14 15 16 17 18 21 22 24 25 26 26 26 26 25 24 23 22 21 20 18 17 16 15
23 23 24 22 19 19 19 20 21 20 18 19 19 18 18 18 18 16 15 15 15 16 17 18 19 21 22 23 24 24 24 24 24 23 23 22 21 20 18 17 16 15
20 19 19 17 16 17 19 20 20 19 18 19 20 20 20 20 19 17 15 15 15 15 16 17 18 20 21 22 22 23 23 24 24 24 23 22 21 20 19 17 16 15
15 15 15 15 15 16 18 19 19 19 18 19 21 23 24 23 20 17 15 15 15 15 15 16 17 18 20 21 22 23 24 24 25 24 23 22 21 19 18 17 16 16
14 13 14 14 13 14 17 18 17 18 18 18 18 22 24 23 19 16 14 14 15 16 16 17 18 19 20 21 22 23 24 24 24 24 23 22 20 19 18 17 17 16
13 12 12 12 12 12 14 16 16 17 17 17 15 14 15 15 15 15 15 15 17 18 19 19 20 20 21 21 22 23 23 23 23 22 22 21 20 19 19 18 17 16
13 11 11 12 12 11 13 15 16 16 16 17 16 13 11 11 13 14 16 17 18 20 21 21 21 21 22 22 22 22 22 22 22 22 21 21 21 21 20 19 18 17
14 13 12 12 13 14 14 14 15 15 14 15 15 14 13 14 15 16 17 19 20 21 21 22 22 22 23 23 23 23 23 22 21 21 21 21 21 21 21 20 19 18
16 15 14 13 14 15 16 16 15 14 14 13 13 13 14 16 17 18 19 20 22 22 22 22 22 23 23 23 24 24 23 23 22 22 21 21 21 21 21 21 20 20
18 18 16 14 13 14 16 17 16 16 16 16 16 16 16 17 19 19 20 20 22 23 24 24 23 23 23 24 24 24 23 23 23 23 22 22 22 22 21 21 21 21
20 19 18 16 14 14 15 17 18 18 18 18 18 18 19 20 21 21 20 20 21 23 24 25 24 24 25 25 24 24 24 24 23 23 23 23 23 23 22 22 22 23
21 21 19 18 17 16 16 17 18 18 19 19 19 20 20 22 23 23 23 24 25 25 26 26 25 26 27 27 26 25 25 25 24 23 23 23 23 24 24 23 23 23
24 25 24 22 22 21 20 20 20 21 22 23 24 25 24 24 24 23 24 25 27 29 29 28 27 28 28 28 28 27 26 25 24 24 24 24 25 25 26 25 26 25
28 29 30 30 30 29 27 26 26 27 28 29 30 30 29 26 25 25 26 26 27 30 31 30 28 28 27 26 27 27 26 25 24 25 26 25 25 26 26 26 26 26
31 32 33 35 36 35 34 33 32 32 32 33 33 33 32 30 27 26 28 27 26 29 31 29 27 28 27 27 27 28 27 25 25 26 27 26 26 27 27 27 26 26
35 35 36 37 38 39 39 38 37 36 35 35 34 34 34 33 31 29 29 29 28 28 29 29 28 29 29 28 27 28 28 27 28 29 30 30 29 29 30 31 30 30
38 39 39 40 40 41 42 42 41 40 39 37 36 36 36 35 35 33 32 32 31 30 30 30 30 30 30 30 31 32 32 32 32 34 34 32 31 31 32 34 35 35
40 41 42 43 43 43 44 44 43 43 43 41 39 38 38 37 37 36 36 35 34 34 33 31 30 31 34 35 36 36 35 34 34 34 33 33 33 33 33 34 35 35
42 42 43 43 44 44 44 44 44 44 44 44 42 41 40 39 39 38 38 38 37 37 36 34 34 36 38 39 39 38 35 33 33 33 34 35 36 36 35 34 34 33
43 42 41 41 42 42 43 44 44 45 45 44 43 42 42 41 41 40 40 39 39 39 38 38 36 35 35 36 38 39 38 36 36 38 38 39 39 38 37 36 34 33
46 45 44 43 43 43 43 43 44 45 45 45 44 43 43 42 42 42 41 41 41 40 39 39 36 34 33 35 36 38 39 39 40 40 40 40 39 38 37 35 34 33
49 49 48 48 46 45 44 44 44 45 46 45 44 44 44 43 43 43 44 43 43 42 40 40 40 39 39 39 38 38 38 39 39 39 39 39 38 38 37 36 35 34
50 49 50 49 48 46 44 43 43 43 44 44 43 43 43 43 43 44 45 45 45 44 43 43 43 43 43 43 42 41 40 39 39 39 39 39 39 39 38 37 37 37
51 50 49 49 49 47 44 43 42 41 41 41 40 40 41 42 42 43 44 45 46 45 45 46 46 46 44 43 43 42 42 41 41 40 40 40 40 40 40 39 39 40
54 53 51 50 50 49 47 46 44 43 42 42 41 41 40 41 41 42 42 43 43 44 44 44 44 44 44 43 42 42 42 42 42 42 41 41 41 41 41 42 42 43

ECMWFNIL_500_spd_024.txt.gz
Wind_Speed
25 24 23 21 21 21 21 24 26 27 28 27 25 24 22 21 20 19 19 20 20 21 20 18 17 17 16 16 17 18 19 20 22 23 24 25 25 26 25 25 24 23
23 22 21 20 20 20 22 25 26 26 25 25 24 22 21 20 19 19 19 19 19 19 18 16 15 15 14 15 15 16 18 19 21 22 24 25 25 25 25 24 23 22
20 20 21 21 21 22 22 22 22 22 23 23 23 23 21 20 19 19 19 18 18 17 16 14 13 13 13 13 14 16 17 18 19 21 22 23 24 24 24 23 22 21
19 19 20 21 21 21 20 18 18 19 20 21 21 21 20 18 18 18 19 18 18 17 15 13 12 11 11 11 13 15 17 18 19 20 21 22 22 22 22 22 21 20
18 16 17 17 17 16 16 16 16 16 16 18 19 19 18 17 17 19 20 20 20 18 15 12 11 10 10 11 12 14 16 17 19 20 20 21 21 20 20 20 19 18
18 16 15 14 13 13 13 14 15 14 15 16 17 17 18 18 17 18 20 22 22 18 15 12 11 11 11 12 13 14 15 17 18 19 19 20 19 19 19 18 18 18
17 16 14 13 12 12 12 13 13 13 15 16 16 16 17 18 17 16 17 20 21 18 15 13 13 13 13 13 14 15 16 17 18 19 19 19 19 19 19 18 18 18
18 15 14 13 13 12 12 12 13 13 14 15 15 15 16 17 16 15 14 15 17 17 16 15 15 15 15 15 15 16 17 18 19 20 20 20 20 20 19 19 19 18
19 16 14 14 14 14 13 13 13 13 14 15 15 14 15 15 15 14 14 14 16 17 17 17 18 18 18 16 15 16 17 19 20 21 21 21 21 21 21 21 20 19
19 17 16 15 15 15 15 14 14 14 14 15 15 15 14 13 13 13 14 16 17 18 19 20 21 22 22 20 18 18 19 20 21 22 22 23 23 23 23 23 22 21
19 19 18 17 17 17 17 16 15 15 15 16 16 16 15 14 13 13 14 15 17 19 21 22 23 24 25 24 23 22 22 22 23 23 24 24 24 24 24 24 24 23
20 20 20 19 19 19 19 18 17 16 16 17 17 18 17 15 14 13 14 15 17 18 20 21 23 24 25 26 26 25 25 25 24 25 25 25 26 26 26 26 26 25
19 19 20 20 21 21 21 22 21 20 19 18 18 19 18 17 17 17 18 19 20 20 20 21 22 23 25 26 27 28 28 28 27 26 26 27 27 27 27 28 28 27
20 19 19 19 21 22 23 23 24 23 22 20 20 20 21 21 22 23 24 25 25 24 23 23 23 24 24 26 27 28 30 30 29 28 29 29 29 29 29 29 29 29
23 21 20 20 21 23 24 25 25 26 26 25 25 26 27 27 28 29 29 30 29 29 28 27 26 26 25 25 26 27 30 31 30 30 31 31 31 31 31 31 30 29
27 26 24 24 24 25 26 27 28 29 30 31 32 33 33 33 33 34 34 33 33 33 32 30 29 29 28 28 27 27 27 29 30 30 30 32 33 33 33 33 32 31
31 30 30 29 29 29 29 30 31 32 33 34 35 36 36 37 38 38 37 37 36 36 35 33 32 32 32 31 30 28 28 29 31 31 30 31 33 33 33 34 33 32
34 34 34 34 34 34 34 34 35 35 36 37 38 39 39 40 40 41 41 40 39 38 38 37 36 35 34 33 33 32 30 30 31 32 32 33 34 34 35 35 34 35
37 37 37 37 37 38 38 38 38 39 39 40 40 41 42 43 43 44 44 44 42 41 41 40 39 37 36 37 37 35 33 32 32 34 35 34 34 34 35 35 35 37
40 40 40 40 40 40 40 40 40 40 40 41 42 43 44 45 46 47 47 47 46 45 44 43 41 38 38 40 40 38 36 35 35 34 34 35 35 35 36 38 39 40
43 43 42 42 42 41 41 41 41 41 41 41 42 43 44 45 47 48 49 49 49 48 48 47 44 41 41 41 42 40 38 37 36 34 33 37 40 41 41 41 41 40
45 45 45 44 44 43 42 42 43 43 43 43 43 44 45 46 47 48 48 49 49 49 49 48 46 44 42 43 43 42 40 38 36 35 36 40 44 44 43 42 41 41
48 47 47 46 46 45 45 45 46 46 46 46 46 47 48 48 48 49 50 50 49 49 48 48 47 45 43 43 43 43 42 40 40 40 41 43 44 42 41 41 42 42
52 50 50 49 49 49 49 49 49 49 49 49 49 49 50 50 50 50 50 50 50 49 49 49 48 47 45 44 44 44 43 43 42 43 43 44 44 42 41 42 43 43
56 55 54 54 53 53 53 53 53 52 52 51 50 50 50 50 50 50 50 50 49 49 49 49 48 47 46 46 45 45 45 43 42 43 44 45 46 46 46 47 47 46
61 60 59 58 58 57 57 56 55 55 53 52 52 51 50 50 50 50 49 48 46 46 46 47 47 46 47 47 46 47 47 46 45 45 46 47 48 50 50 50 50 48

ECMWFNIL_500_spd_027.txt.gz
Wind_Speed
19 19 19 19 19 20 20 20 20 19 18 19 20 20 19 19 19 18 19 18 17 17 17 17 16 16 15 15 16 17 17 16 15 13 12 11 11 12 13 14 15 16
21 20 19 19 20 20 19 19 18 18 19 19 19 18 17 17 17 19 19 18 18 17 17 17 17 16 16 15 15 14 14 12 11 10 10 9 10 11 12 13 14 15
22 22 21 21 20 19 19 18 18 18 19 19 19 19 18 17 16 18 19 19 19 19 19 18 17 16 15 15 14 13 11 10 9 8 8 8 9 10 11 12 13 14
23 22 21 21 21 20 19 18 17 17 18 18 19 19 19 17 16 17 17 17 18 18 19 18 16 15 15 14 13 12 10 9 8 8 8 8 9 9 10 11 12 13
24 23 20 20 21 20 19 17 16 17 17 17 17 18 18 17 17 16 16 15 16 17 18 18 17 15 14 13 13 11 10 9 9 9 9 10 10 10 11 11 12 12
21 21 19 18 20 20 18 18 17 17 17 16 16 16 16 17 17 17 16 16 16 16 17 18 18 16 14 13 13 12 12 11 11 11 11 11 12 12 12 12 12 12
20 19 18 17 19 19 18 18 18 18 18 17 16 16 16 16 17 16 16 16 17 16 15 15 17 17 16 15 14 13 13 13 12 12 12 12 13 13 14 14 14 13
25 23 20 19 19 20 19 20 20 19 18 17 17 16 16 16 16 16 15 15 16 16 13 12 13 15 16 15 15 15 14 15 14 14 14 14 14 14 15 15 15 15
28 24 21 21 21 21 21 22 21 20 18 18 17 16 16 15 15 15 14 13 14 13 12 11 12 13 14 15 16 16 17 18 18 18 17 17 16 16 16 16 16 17
26 22 22 22 22 22 22 22 21 20 18 18 18 17 16 16 16 15 14 13 12 11 11 12 13 14 15 17 18 19 21 22 22 22 21 20 19 18 18 18 18 18
22 21 22 22 22 23 22 22 21 20 19 19 19 18 17 17 16 16 15 14 13 12 11 11 12 13 15 17 19 21 22 23 24 24 24 24 23 22 21 21 21 21
21 21 22 22 23 23 23 22 21 20 20 20 20 19 19 19 18 18 17 16 15 14 12 11 12 13 15 16 18 20 21 22 24 25 26 26 26 26 25 24 24 24
21 21 21 22 22 22 22 23 22 22 21 21 21 21 20 20 20 19 18 18 17 17 16 15 16 17 18 18 18 19 20 21 23 24 26 27 28 28 27 27 27 26
21 21 21 21 20 20 21 22 22 22 22 22 22 23 23 22 22 21 19 19 19 19 20 21 22 22 22 22 22 21 22 22 22 23 25 26 28 29 30 30 29 28
22 21 21 21 20 20 20 21 21 21 21 22 23 24 25 26 26 24 23 23 23 23 24 25 26 27 27 27 27 26 25 25 25 25 25 25 26 28 30 31 31 31
24 24 23 23 23 23 23 22 22 21 22 22 23 25 27 29 29 29 29 29 29 29 30 30 30 31 32 33 33 32 30 28 27 27 27 27 27 27 28 30 31 32
27 27 27 27 27 27 27 27 26 26 26 26 27 28 30 31 31 31 31 32 32 33 33 34 34 35 36 37 38 37 37 34 31 29 28 28 28 28 28 29 30 32
29 30 30 30 31 31 31 31 31 31 31 31 32 32 33 34 34 34 34 34 35 35 36 37 38 38 39 40 40 40 40 39 37 34 31 30 30 30 30 29 30 33
33 33 33 33 33 33 34 34 34 34 34 34 35 35 36 37 37 37 37 37 37 38 39 40 42 43 43 42 41 41 41 42 42 40 37 34 32 32 32 31 32 34
37 37 37 36 36 36 37 37 37 37 38 38 38 38 38 39 39 39 39 40 40 40 40 41 43 44 43 42 42 41 41 41 43 43 42 40 37 35 35 34 35 37
40 40 40 40 40 40 40 41 41 41 41 41 41 41 41 41 41 41 41 41 41 40 40 41 42 41 40 40 41 40 41 42 44 44 44 43 42 40 38 37 38 39
44 44 44 44 43 43 43 43 43 43 44 44 44 43 43 43 43 43 42 41 40 41 41 42 43 43 44 43 42 42 43 44 45 46 46 45 45 43 41 39 39 39
45 45 44 44 43 44 45 46 47 48 48 48 47 46 46 45 45 44 44 44 43 44 45 45 44 44 44 44 44 45 46 46 47 47 47 47 46 45 44 42 41 40
47 48 48 49 50 51 52 52 52 51 51 50 50 49 49 48 47 47 47 47 47 48 48 48 48 47 48 47 47 47 47 47 48 48 48 48 48 48 47 44 42 43
54 55 56 57 58 58 57 56 55 54 53 52 52 51 52 51 51 50 49 50 50 51 51 52 53 53 52 51 49 47 47 48 49 49 49 49 49 48 47 45 44 45
61 61 61 61 61 61 60 59 57 56 55 55 54 54 54 54 55 55 54 54 54 54 54 55 56 55 53 50 48 47 48 49 50 50 49 47 46 45 44 44 45 46

ECMWFNIL_500_spd_030.txt.gz
Wind_Speed
19 18 16 16 15 16 17 16 15 14 12 11 9 9 10 12 13 14 15 15 14 14 14 15 14 14 14 14 13 13 14 14 14 15 14 13 12 10 10 9 9 8
17 16 16 16 17 18 17 18 17 15 12 10 9 9 10 11 12 14 15 15 15 14 14 15 15 15 15 15 14 14 13 14 14 14 14 14 12 11 10 10 9 8
17 18 18 17 19 19 19 19 19 16 13 11 9 9 10 11 12 13 14 15 15 15 15 15 15 15 15 15 15 14 14 13 13 14 14 14 13 12 11 10 9 9
18 20 20 19 21 21 20 21 21 18 14 12 11 10 9 10 12 13 14 15 16 16 16 15 15 15 15 16 16 15 14 14 13 13 13 12 12 11 10 10 9 9
20 22 22 22 22 21 21 21 21 19 16 14 12 10 10 11 12 13 14 15 16 16 17 16 15 15 15 16 16 16 15 15 14 14 13 12 11 11 10 9 9 9
21 22 23 24 25 23 22 21 20 19 17 15 13 12 12 12 13 13 13 14 15 15 16 16 16 16 15 15 15 16 15 15 15 15 14 13 12 11 10 10 10 10
24 23 24 24 25 24 22 21 21 20 18 16 15 14 14 14 14 14 14 14 15 15 15 15 16 16 16 16 15 15 15 15 15 15 15 14 13 13 12 12 12 12
26 25 24 22 22 24 25 24 22 22 20 18 17 16 15 15 15 15 14 14 14 15 15 15 15 15 16 16 15 14 14 15 15 15 15 15 15 15 15 15 16 16
29 28 26 25 26 28 29 27 24 22 21 19 18 17 16 16 16 16 15 14 14 14 15 15 15 15 15 15 15 14 14 14 15 15 16 16 17 17 18 18 18 18
28 27 27 29 31 32 30 27 23 21 20 18 17 17 18 18 17 17 16 15 14 15 15 16 16 15 15 14 14 14 14 15 15 16 16 17 17 18 18 19 19 19
23 23 23 26 28 29 29 26 23 20 18 18 18 19 19 19 19 18 17 16 16 15 16 16 17 16 15 14 13 13 13 13 14 15 15 16 16 17 18 19 20 21
22 21 21 21 24 27 28 25 21 19 19 19 19 20 20 21 21 20 18 17 17 16 17 17 18 17 15 13 12 11 11 12 13 13 14 15 16 17 18 19 20 21
19 19 20 21 23 25 25 23 21 20 20 20 20 21 21 21 21 20 19 18 18 17 17 18 18 18 17 15 14 13 13 13 14 14 15 16 17 17 18 19 20 21
18 19 21 22 23 23 22 21 20 20 20 20 21 21 22 22 22 21 20 19 19 19 19 19 20 20 20 20 20 19 19 18 17 17 17 18 19 20 21 22 23 23
20 20 20 21 21 21 21 21 20 20 20 19 19 21 22 23 22 22 21 21 22 23 24 23 24 25 26 25 25 25 24 23 23 22 21 21 22 22 23 25 25 25
20 20 20 20 19 20 21 21 20 20 20 20 20 20 21 22 22 22 22 23 25 26 27 28 29 31 31 30 29 29 29 28 27 27 26 26 25 25 27 27 27 27
21 21 21 21 20 20 20 20 20 20 21 21 21 21 21 22 23 23 23 25 26 28 29 30 33 34 33 33 33 33 32 32 32 31 31 30 29 29 30 30 29 28
24 23 23 23 23 23 22 22 22 23 24 24 24 25 26 26 26 26 27 28 29 30 31 33 34 35 34 33 33 31 31 31 32 33 34 35 35 35 36 36 34 32
26 26 26 26 25 25 25 25 25 26 26 27 28 29 29 28 28 29 29 30 31 32 34 35 36 35 34 33 32 32 32 32 32 33 34 36 38 39 40 40 38 35
31 30 30 29 29 29 29 29 28 29 29 30 31 32 32 31 31 32 31 32 34 35 36 38 39 38 37 36 37 37 36 35 35 34 34 34 35 37 38 39 38 37
35 34 34 34 33 33 33 33 33 33 33 33 34 35 35 35 34 34 35 35 37 38 39 40 42 43 42 41 41 39 37 36 36 36 35 34 35 38 39 38 39 39
39 38 39 39 39 39 39 38 37 37 36 37 38 39 39 39 39 39 39 39 40 41 42 43 45 46 46 44 43 42 41 41 40 39 39 38 38 42 44 44 43 44
42 42 42 42 42 42 42 41 40 40 40 40 40 41 41 41 41 40 41 41 43 44 46 47 48 49 49 47 45 45 45 45 44 44 44 43 41 41 43 46 47 48
45 45 44 44 44 44 44 44 43 41 40 40 39 39 40 41 43 45 47 48 50 51 51 51 51 51 52 51 48 47 47 47 47 47 48 48 46 44 45 48 51 51
46 45 44 45 44 45 46 46 45 43 42 42 43 44 46 48 50 52 54 55 55 54 53 53 53 53 54 54 52 51 50 50 50 51 51 50 50 50 48 48 49 50
49 47 46 45 44 45 46 47 48 48 48 50 51 53 54 56 56 56 56 56 56 55 55 54 54 54 55 55 55 54 54 54 53 54 54 53 54 53 51 48 47 47

ECMWFNIL_500_spd_036.txt.gz
Wind_Speed
11 12 12 14 14 12 13 15 16 16 14 14 14 14 13 14 13 12 10 9 8 8 7 6 7 8 10 10 10 10 9 9 8 9 9 10 11 11 12 13 14 14
9 10 11 13 13 12 12 15 17 17 16 15 15 14 13 13 13 12 10 9 9 9 8 7 7 8 9 9 9 9 9 9 9 10 10 11 11 11 12 12 13 13
7 7 8 9 10 11 12 15 16 17 16 16 15 14 13 13 12 11 10 9 10 9 9 8 7 7 8 8 8 8 8 8 9 10 11 11 11 12 12 12 13 13
8 7 6 7 9 12 14 16 16 15 15 16 17 16 14 12 12 10 10 10 10 10 10 9 8 7 7 7 7 7 7 7 8 9 9 10 10 11 12 12 13 14
10 10 9 8 8 12 15 18 17 16 16 15 16 17 16 14 12 11 10 10 11 11 11 10 9 8 7 6 6 6 7 7 8 8 9 9 10 10 11 12 13 13
11 12 11 10 10 11 14 17 19 20 19 17 16 16 16 15 14 12 11 11 12 12 12 11 11 10 8 8 7 6 6 7 8 9 9 10 11 11 11 12 12 13
14 15 15 15 14 14 14 15 18 20 21 20 18 17 17 16 15 15 13 13 13 13 13 13 12 11 10 9 8 6 6 7 8 9 9 11 12 12 12 13 13 13
19 21 21 20 20 20 19 18 19 20 20 19 19 18 17 16 15 16 16 15 14 13 14 14 13 12 11 10 9 7 7 7 8 9 10 11 12 12 13 13 12 12
22 22 22 21 21 21 21 19 19 19 17 17 17 16 16 15 15 16 17 17 16 14 15 15 14 14 12 10 9 8 8 8 8 9 9 10 11 12 12 12 12 11
20 21 21 19 18 18 18 18 19 19 17 16 16 17 17 16 16 16 17 18 17 16 16 15 15 14 12 11 9 9 9 9 9 9 10 10 10 11 11 11 10 10
18 20 21 20 18 17 17 17 19 20 20 18 18 19 18 18 17 17 17 19 18 17 17 16 15 14 13 12 11 10 10 10 10 10 9 9 9 9 9 9 9 8
16 17 18 18 18 17 17 16 16 18 19 19 19 19 19 19 18 18 18 19 19 18 17 17 16 15 15 14 13 13 13 13 12 12 11 11 10 10 10 10 10 9
13 15 18 19 18 18 17 16 15 16 18 19 20 21 20 20 19 19 19 20 20 19 18 17 17 17 16 16 15 15 15 15 15 15 14 15 14 14 14 14 14 14
10 13 16 18 17 16 16 16 16 17 17 18 20 21 21 20 19 19 20 20 20 19 19 19 19 19 19 18 17 17 16 16 17 17 18 18 18 18 19 19 19 20
13 13 15 15 14 14 15 17 19 19 17 16 18 21 21 20 19 19 19 20 20 21 21 22 22 21 21 19 18 18 17 17 18 19 20 20 20 20 21 21 22 23
12 14 15 15 15 15 15 14 17 20 18 16 17 19 20 19 19 20 21 22 23 23 24 24 24 24 23 22 22 21 20 20 20 21 21 21 21 20 20 20 21 22
12 13 16 16 16 16 15 14 16 20 21 18 17 18 19 19 20 22 23 24 25 25 25 26 26 25 25 25 24 24 23 23 22 22 22 21 21 20 19 18 19 20
16 16 17 17 16 16 16 16 17 18 18 18 18 18 19 20 21 23 24 25 25 26 26 26 26 26 26 26 26 26 25 25 24 23 23 22 21 21 20 20 20 21
19 19 19 18 18 18 17 17 19 20 19 21 23 22 21 21 21 22 24 25 26 27 27 27 27 27 27 27 27 28 27 27 26 25 24 24 23 24 24 24 24 24
21 22 22 22 22 22 22 22 24 25 25 25 25 22 22 22 23 24 25 26 28 29 30 30 30 30 30 31 31 31 31 30 29 28 27 26 26 26 26 27 27 29
25 25 25 25 24 23 24 25 26 27 27 26 26 25 25 26 27 27 28 29 30 31 32 33 33 34 34 35 35 34 34 33 33 32 31 30 29 29 29 29 31 32
27 28 28 28 27 27 27 27 28 28 28 28 29 30 31 32 32 32 32 32 33 33 34 35 36 37 37 38 39 38 38 38 37 36 35 33 32 32 32 32 33 34
30 30 30 30 31 31 31 31 32 31 31 31 32 33 34 35 36 36 37 36 36 36 37 38 39 40 41 42 43 43 43 43 43 41 39 38 37 36 35 35 35 35
35 35 34 34 35 35 35 35 35 35 35 35 36 36 37 38 39 39 40 40 40 41 41 41 42 44 45 46 47 48 48 49 48 47 45 43 41 40 39 38 38 38
40 40 39 39 39 39 39 39 39 39 39 39 39 40 40 40 41 42 43 43 44 44 45 45 46 48 49 51 51 51 51 52 52 51 49 49 47 44 42 42 42 42
35 37 38 40 41 42 43 43 43 44 43 43 43 43 43 43 43 44 45 46 47 48 48 49 50 50 51 53 54 53 52 52 53 52 52 52 51 48 46 47 48 48

ECMWFNIL_500_spd_039.txt.gz
Wind_Speed
17 23 24 19 17 17 17 17 17 18 19 20 20 20 19 18 16 15 16 17 17 15 13 12 11 12 12 12 12 12 13 14 13 13 13 13 13 12 12 11 10 11
17 20 20 17 16 16 16 16 17 19 20 21 21 21 20 18 17 16 17 18 17 16 13 11 11 11 11 11 12 13 14 14 14 13 13 13 13 12 11 10 10 11
16 17 17 16 16 17 18 19 19 20 21 22 22 21 20 18 18 17 17 18 18 16 13 11 11 11 11 11 12 13 14 14 14 14 14 14 13 12 11 11 10 11
16 16 16 16 17 18 19 20 21 21 21 22 23 21 20 19 18 17 18 19 18 16 14 12 11 11 11 12 12 12 12 12 13 13 13 13 12 12 11 11 11 11
17 18 17 16 15 16 17 18 19 19 19 21 21 21 20 19 18 17 18 19 19 17 15 13 12 12 11 12 12 12 12 11 11 11 11 11 10 10 10 10 11 11
18 18 18 16 14 13 14 15 16 17 18 19 18 19 19 20 20 19 18 19 20 18 16 15 14 12 12 12 12 12 12 11 10 10 10 9 9 9 9 10 10 11
16 16 16 16 14 13 13 13 15 17 18 18 18 18 18 19 20 20 20 20 21 19 18 16 15 14 12 12 12 12 12 11 11 11 10 10 9 10 10 11 11 12
16 17 18 17 15 15 16 14 13 14 16 17 18 19 20 20 20 21 22 23 22 21 19 19 18 15 13 13 13 12 12 12 12 11 10 9 9 10 11 11 12 13
19 19 19 20 19 18 18 18 16 16 17 17 19 20 21 22 22 22 23 23 23 22 21 21 20 17 15 14 14 14 13 13 12 11 10 10 10 10 11 12 13 13
19 18 18 21 22 20 18 18 19 19 20 20 20 21 21 22 23 23 23 23 23 23 23 23 22 20 18 17 16 15 15 14 13 12 12 11 11 11 11 12 13 14
17 16 17 21 24 23 21 20 19 19 20 21 21 22 22 22 23 23 23 23 23 23 24 24 23 21 20 19 18 17 16 15 14 14 13 13 13 12 12 12 13 13
18 17 17 19 21 23 23 23 21 19 19 19 20 22 23 22 23 24 24 24 23 22 22 23 23 22 20 19 18 17 17 16 15 15 14 14 14 13 13 13 13 13
19 18 18 19 20 21 22 23 23 21 19 18 18 20 23 24 24 24 25 24 23 22 21 22 22 21 20 19 18 17 17 17 16 16 15 15 15 15 14 13 13 13
21 20 19 20 21 22 22 22 22 21 19 18 18 19 21 23 23 24 25 25 24 23 22 21 21 21 20 20 19 18 18 18 18 17 17 17 17 17 16 16 16 16
20 18 18 18 20 22 23 23 22 20 18 18 20 20 20 21 22 23 25 25 25 24 22 22 21 21 21 20 20 19 19 19 19 19 19 20 20 20 20 20 20 20
18 17 17 19 20 22 24 23 20 18 17 16 19 22 21 19 19 21 24 26 26 24 22 21 21 21 21 21 20 20 21 21 21 22 22 22 22 22 23 23 23 23
20 19 19 20 20 20 22 21 19 18 18 17 18 21 21 19 18 20 23 25 25 23 21 21 21 22 22 22 22 22 23 23 24 24 25 25 25 25 25 25 25 25
22 21 21 21 21 20 21 21 20 20 21 19 17 20 22 22 20 20 22 23 23 23 22 23 23 24 24 24 24 24 25 25 26 27 27 28 28 27 26 26 26 26
25 25 25 25 25 24 24 24 22 22 22 21 19 20 22 24 23 21 21 22 22 22 23 24 24 24 25 25 25 26 27 27 28 29 29 29 29 29 28 28 28 28
27 27 28 28 29 28 26 26 25 24 24 24 23 21 20 22 24 22 20 20 22 22 22 24 25 25 26 27 27 28 28 29 30 30 30 31 31 31 32 32 32 31
27 27 27 28 28 28 27 26 26 26 26 26 25 25 23 23 24 24 21 21 22 22 23 24 26 27 29 29 30 31 31 32 32 33 33 34 35 35 35 35 35 35
27 27 26 26 27 27 26 27 27 27 27 27 27 27 28 27 27 27 26 24 25 25 26 28 29 31 32 33 34 34 35 35 36 37 37 38 39 38 38 38 38 38
29 28 27 26 26 26 27 28 28 28 29 29 29 30 30 31 31 31 30 29 30 31 32 33 34 35 36 37 38 38 38 39 39 40 41 41 42 42 42 42 42 42
28 28 28 28 28 29 30 31 32 32 32 32 32 33 33 33 34 34 34 33 34 35 36 37 39 39 40 40 41 41 42 42 43 43 44 44 44 45 45 45 45 45
29 30 31 32 33 33 34 34 34 35 35 35 36 36 36 36 36 37 37 37 38 39 40 41 42 43 43 44 44 45 45 46 46 47 47 47 48 48 49 49 49 49
31 32 33 34 34 34 34 34 34 35 36 36 37 37 37 38 38 38 39 40 40 41 42 43 44 46 47 47 47 48 48 49 49 50 50 51 51 52 53 54 55 55

ECMWFNIL_500_spd_042.txt.gz
Wind_Speed
25 26 27 28 28 28 26 24 23 21 21 23 23 22 20 19 18 18 16 15 14 14 14 14 13 14 13 12 11 11 11 11 11 10 9 9 8 8 8 9 10 11
24 24 26 27 28 28 25 24 22 20 22 24 23 21 19 19 18 18 17 15 15 15 15 14 14 14 13 12 11 11 11 12 12 11 11 10 10 10 9 10 11 11
23 23 24 26 28 27 24 21 19 19 22 23 22 20 19 19 18 18 18 17 16 16 16 16 15 14 13 12 11 11 11 12 12 12 12 12 12 12 12 12 13 13
22 20 22 24 26 24 21 19 18 19 21 21 20 20 19 19 19 19 19 19 18 17 17 17 16 15 14 13 11 11 10 11 11 11 12 13 14 15 15 15 15 16
19 18 20 22 24 22 20 19 19 19 20 20 20 20 20 20 20 21 21 20 19 18 17 18 17 16 15 14 12 11 10 10 10 11 12 13 14 15 16 16 16 17
17 17 19 21 22 21 19 18 17 19 20 21 21 21 22 22 22 23 23 21 20 18 17 18 18 17 16 15 14 12 12 11 11 11 12 12 14 15 16 16 16 16
17 18 19 21 21 19 17 15 15 17 18 19 20 20 22 23 23 24 24 23 21 19 18 18 19 19 18 17 16 15 14 14 13 13 13 13 14 15 15 16 16 16
19 18 19 20 19 18 16 15 15 15 15 16 17 18 19 21 22 23 24 24 23 21 19 18 19 20 20 19 18 17 16 16 15 15 15 14 15 16 16 16 16 15
17 18 19 19 19 19 17 16 15 14 13 13 14 16 18 19 20 21 22 23 22 22 21 21 20 21 21 21 20 19 19 18 18 17 17 16 16 16 17 16 16 15
16 17 19 19 19 19 19 18 17 15 15 15 15 17 18 19 21 22 23 24 23 23 23 23 22 22 23 23 23 22 21 21 20 19 19 18 17 17 17 16 16 15
16 16 17 19 20 20 20 21 20 18 18 18 18 19 21 21 22 23 24 25 25 24 24 24 24 24 24 25 24 24 24 23 23 22 20 19 19 18 17 17 16 16
16 16 17 19 19 19 20 21 22 22 21 20 19 20 21 21 22 23 23 24 25 25 25 25 24 25 26 26 26 26 26 25 24 23 21 19 19 18 17 17 17 17
18 19 20 20 20 20 19 19 21 23 23 23 22 20 20 20 21 22 23 23 24 24 25 24 24 25 26 27 28 27 27 26 25 23 22 20 19 18 18 18 18 17
20 20 21 22 21 20 20 19 20 23 24 25 23 20 20 19 19 20 22 23 23 23 24 24 24 25 26 26 26 26 26 25 24 23 22 21 20 19 18 18 18 18
22 21 22 23 22 21 23 24 24 24 25 26 23 20 18 19 19 19 20 22 23 23 24 24 25 26 26 26 25 25 24 24 23 23 22 21 21 20 19 19 20 20
23 22 23 24 23 22 23 24 23 22 22 22 20 18 18 18 19 19 19 21 23 23 24 24 24 25 25 26 25 24 24 23 22 22 22 21 21 21 21 21 22 23
22 22 22 22 22 21 21 21 21 21 21 21 19 18 18 18 18 19 20 20 22 23 23 23 23 24 25 25 25 25 24 23 22 21 21 21 22 22 23 23 24 25
19 21 23 23 22 22 22 21 21 21 22 22 21 21 21 20 19 20 20 21 22 22 23 23 23 24 24 25 25 25 25 24 23 22 22 23 23 24 25 26 27 27
21 22 22 23 23 22 22 22 22 21 22 23 24 23 22 22 21 21 22 23 24 24 24 24 24 24 25 25 25 25 25 25 24 24 24 24 25 26 27 28 29 30
25 25 23 23 23 24 23 22 22 23 24 24 24 23 23 23 23 23 23 25 27 27 26 26 25 25 25 26 26 26 26 26 26 26 25 25 26 27 29 30 30 30
26 26 26 25 25 25 25 24 24 24 24 24 24 24 24 25 25 26 25 27 29 30 30 28 26 26 27 28 28 28 28 28 27 27 27 28 29 30 30 31 32 32
27 27 28 28 28 28 27 26 26 26 26 26 26 26 26 25 26 27 28 28 29 30 31 30 29 28 29 31 31 31 30 30 30 30 31 32 33 33 34 34 35 35
28 28 29 30 31 31 29 27 27 28 28 28 28 28 28 28 29 29 29 29 30 30 31 32 32 32 32 33 34 33 33 33 34 35 36 36 37 37 38 38 38 39
30 30 31 32 32 32 30 30 30 30 29 29 29 29 30 30 31 32 32 32 33 34 34 35 36 36 36 36 37 37 37 38 38 38 39 40 40 41 41 41 42 42
29 30 31 32 31 31 31 30 30 30 30 30 30 31 32 33 33 35 35 36 37 37 38 39 40 40 40 40 41 42 42 43 43 43 43 44 44 45 46 46 46 47
27 29 31 32 32 31 30 30 31 32 33 33 34 34 34 34 35 36 38 39 40 41 42 43 43 44 44 44 45 46 47 47 48 48 47 48 48 49 50 50 51 51

ECMWFNIL_500_spd_045.txt.gz
Wind_Speed
28 28 27 27 26 25 25 27 26 24 22 21 21 21 21 21 20 21 22 22 20 19 18 17 16 15 13 11 10 10 11 12 13 13 12 11 11 12 12 12 12 12
29 28 27 25 24 24 25 26 25 23 21 20 20 20 21 21 21 21 21 21 20 19 18 17 15 14 13 11 10 10 11 11 12 12 12 12 12 12 12 11 11 11
28 28 27 24 23 23 24 24 22 20 19 18 19 20 20 21 21 21 21 21 20 19 18 17 15 14 13 11 10 11 11 10 11 11 12 12 12 12 12 12 12 11
26 26 24 22 22 22 22 21 18 16 16 17 17 18 19 20 21 22 21 20 19 20 19 17 16 15 14 12 11 11 11 10 10 10 11 12 12 12 12 12 12 12
26 23 21 21 21 20 19 17 14 14 15 15 15 16 17 19 21 21 20 19 19 19 19 18 16 16 15 13 12 12 12 11 10 9 10 10 11 11 11 11 12 12
24 21 20 20 18 18 17 14 14 14 15 14 15 16 17 19 20 21 20 19 19 19 19 18 17 17 16 14 13 13 14 13 11 10 10 10 11 11 11 12 12 13
22 21 20 19 17 17 17 15 15 15 15 16 17 18 19 20 21 21 21 20 20 19 19 19 18 18 17 16 15 15 15 15 14 13 12 13 13 13 13 13 13 13
22 21 20 19 18 18 17 17 16 16 16 17 18 19 19 20 21 21 21 21 20 20 20 20 20 19 19 18 17 17 17 17 17 16 15 15 15 15 15 15 15 15
21 21 20 19 18 17 17 16 16 15 15 15 15 16 16 17 19 19 20 20 20 20 21 21 22 21 21 20 19 19 20 20 19 18 17 17 16 17 17 17 17 17
19 20 20 19 18 17 17 16 16 16 16 16 15 14 14 14 16 16 17 17 18 19 21 21 22 22 22 22 21 21 21 22 22 21 20 19 19 19 19 19 19 19
19 19 20 19 19 18 17 17 17 18 18 18 17 16 14 14 15 15 16 17 18 20 21 22 22 22 23 23 23 23 23 23 23 22 22 22 22 22 22 21 20 20
22 21 20 19 19 18 18 18 19 20 21 20 19 18 18 18 18 18 19 20 21 22 23 23 23 23 24 24 24 24 24 24 24 24 24 24 24 24 23 22 21 20
24 23 21 19 18 18 18 20 20 21 22 22 22 22 22 21 20 20 19 20 21 23 23 23 23 23 24 25 25 25 24 24 24 24 25 25 24 24 23 23 22 21
24 23 21 20 20 19 19 20 20 21 21 22 23 24 24 24 23 22 20 20 20 21 22 22 22 22 22 23 24 24 23 23 23 24 25 25 24 23 23 23 22 22
23 23 22 22 22 21 20 21 21 21 20 19 20 21 23 25 25 24 22 21 20 20 20 21 21 21 21 21 22 23 23 23 23 23 22 22 22 22 23 23 23 23
22 24 24 24 23 21 20 21 22 22 21 21 23 23 23 25 27 26 22 21 20 20 20 20 20 21 21 22 22 23 24 23 22 21 21 21 21 22 22 23 23 23
23 25 25 24 23 23 22 22 24 24 25 26 28 25 21 21 23 25 24 22 21 20 20 20 20 21 22 23 24 25 25 23 21 21 22 22 22 22 22 22 23 23
24 25 25 25 26 26 25 25 25 25 25 25 24 23 21 19 19 22 24 24 22 20 20 21 22 21 22 24 25 26 26 25 23 23 24 24 24 23 23 23 23 24
25 26 26 26 27 26 25 26 25 24 23 22 21 21 21 21 21 23 25 25 23 21 21 23 24 24 24 25 26 27 27 27 27 27 27 27 27 26 26 25 25 26
25 25 26 25 24 23 23 24 23 22 21 21 21 20 20 22 22 24 25 26 24 22 22 23 25 26 27 27 27 28 28 29 29 29 29 30 30 30 30 29 29 29
24 24 24 24 24 23 23 22 22 22 22 21 21 20 21 22 23 23 25 26 25 23 23 25 26 28 29 30 31 31 31 31 31 31 31 31 32 33 33 33 33 32
25 25 26 26 26 26 25 24 23 23 24 24 24 23 23 24 24 24 26 27 27 26 26 26 27 29 30 32 33 35 35 35 34 33 32 33 34 34 35 35 35 35
28 28 28 28 27 27 27 27 26 26 27 27 27 26 26 26 27 28 28 29 30 30 30 30 30 31 32 33 35 36 37 37 36 34 34 34 35 36 36 36 37 37
29 29 29 29 28 29 29 29 30 30 30 30 29 28 28 28 30 31 32 32 33 33 33 33 33 34 35 36 37 37 38 38 38 37 36 36 38 39 40 40 40 40
30 30 30 30 30 30 30 31 31 31 31 31 31 31 31 31 32 34 34 35 35 35 35 36 36 36 37 38 38 39 39 40 40 40 41 41 41 42 43 44 44 44
30 30 30 30 31 31 30 30 30 31 31 32 32 33 34 34 35 36 37 38 38 38 38 38 38 39 40 40 41 42 43 43 44 45 45 45 45 45 46 47 48 49

ECMWFNIL_500_spd_048.txt.gz
Wind_Speed
28 29 29 30 28 27 26 25 25 24 23 23 23 22 21 20 20 19 19 20 21 21 20 20 19 18 17 17 15 14 14 13 12 12 12 12 13 14 13 13 12 12
25 27 27 28 27 26 25 25 24 22 22 22 22 21 21 19 19 19 19 20 20 20 20 19 19 18 18 17 16 14 13 12 11 11 11 11 11 11 12 11 11 11
24 26 26 27 27 25 24 24 23 21 21 22 21 20 20 19 19 18 18 18 18 18 19 19 19 18 18 17 16 15 13 11 10 11 11 10 10 11 11 11 11 11
23 24 27 27 26 23 22 22 20 20 21 21 20 20 20 19 18 17 17 17 17 17 18 19 19 18 18 17 16 15 14 12 10 10 10 10 10 10 10 11 11 11
22 23 25 25 24 23 22 20 19 20 20 19 20 20 20 19 17 17 17 16 16 16 18 19 19 19 18 16 15 16 15 13 11 10 10 9 9 9 9 10 10 10
22 22 23 22 24 24 22 20 20 19 18 18 19 19 18 18 16 15 15 15 16 16 18 19 18 18 17 16 15 15 15 14 12 12 11 10 9 9 9 9 9 9
20 22 22 23 25 23 20 19 19 18 17 17 18 18 17 16 16 15 15 15 16 17 18 19 18 18 17 16 15 15 15 14 14 13 13 12 11 10 10 10 9 10
22 22 23 24 25 22 19 19 19 18 17 18 18 17 16 16 16 16 15 15 16 17 19 19 19 18 17 16 15 15 15 15 15 15 15 14 14 13 12 12 12 12
24 23 24 25 24 22 21 20 19 18 18 19 18 16 16 17 18 18 18 17 18 19 20 20 20 19 18 17 17 16 16 16 16 16 16 16 16 15 14 14 14 14
27 26 25 25 24 23 21 20 19 19 20 19 17 16 16 17 17 18 18 18 18 19 19 20 20 19 18 18 18 18 18 18 18 18 18 18 17 17 17 16 16 17
27 26 23 22 22 21 20 19 19 20 20 19 17 16 16 17 17 17 17 16 16 17 17 17 18 18 18 18 19 19 19 19 20 20 20 20 19 19 18 18 19 19
26 25 23 21 22 22 20 18 19 19 20 19 18 18 18 18 18 17 16 15 15 15 15 16 17 18 18 19 20 20 21 21 21 21 22 22 22 21 21 20 21 21
24 25 25 24 24 23 20 19 20 20 20 20 20 19 19 20 20 19 18 17 16 16 16 17 19 20 21 21 21 22 23 23 23 23 23 23 23 23 23 22 22 22
23 24 24 24 23 22 21 21 21 21 21 21 21 21 22 22 23 22 21 19 19 18 18 19 20 22 23 23 23 24 24 25 25 24 24 23 23 23 23 23 22 22
24 24 25 25 23 22 22 20 19 20 21 21 22 23 23 24 25 25 24 23 21 21 20 20 21 21 22 23 23 24 25 25 25 25 24 23 23 23 23 23 22 22
26 25 26 25 24 24 24 22 21 20 20 21 22 23 23 24 25 25 24 24 24 24 23 22 23 22 22 22 23 23 24 24 24 24 24 24 24 24 25 24 24 24
27 26 25 24 25 25 25 24 23 21 21 21 22 23 23 23 23 23 23 23 24 25 25 24 24 23 22 21 21 22 24 24 24 24 25 25 26 26 27 27 27 26
27 26 25 25 25 25 26 26 25 23 21 21 23 24 24 24 25 25 24 23 23 24 25 26 25 24 22 21 21 22 24 25 25 25 26 27 27 28 28 28 29 29
27 26 26 24 24 25 26 26 25 25 24 24 26 26 25 26 26 25 24 23 21 21 23 25 26 24 22 21 21 23 24 26 27 27 27 28 28 28 28 29 30 31
27 27 26 25 25 26 26 26 26 26 26 26 27 25 24 23 23 22 22 21 21 20 21 24 26 26 23 22 22 23 25 26 28 28 28 28 28 28 28 29 30 31
29 30 29 28 28 28 29 29 28 27 25 24 24 24 23 23 22 22 22 21 20 20 21 24 26 27 25 24 23 23 24 26 28 29 29 29 29 29 30 31 31 32
30 30 30 29 28 28 29 29 27 25 24 23 22 22 23 23 23 23 23 22 21 20 21 23 26 27 27 26 25 24 25 27 28 30 30 31 31 32 33 34 34 35
27 27 27 26 26 26 27 26 25 25 25 24 23 23 24 25 25 25 24 24 23 23 23 24 26 28 29 28 28 28 28 29 30 32 33 34 35 35 36 37 37 37
26 26 26 26 25 25 26 26 27 27 27 27 26 26 26 27 27 27 27 27 26 26 27 27 28 30 31 31 32 32 32 33 34 35 36 37 38 39 39 39 39 40
28 28 28 28 29 29 29 30 30 30 30 30 30 30 29 30 30 30 30 29 29 29 30 30 31 33 34 35 35 36 36 36 37 38 39 40 40 41 41 42 42 42
30 31 31 32 32 33 33 32 32 32 32 32 32 31 31 31 31 31 30 30 30 30 31 32 33 34 36 37 38 38 38 39 39 39 39 40 41 41 42 43 44 46

ECMWFNIL_500_spd_051.txt.gz
Wind_Speed
26 28 28 26 26 27 25 24 23 22 22 21 22 22 22 21 20 19 18 18 18 18 18 18 19 19 19 18 16 16 16 15 14 14 14 13 12 11 11 12 12 12
28 29 27 25 24 24 24 24 23 21 21 21 21 21 20 20 19 19 18 18 18 18 18 19 19 20 19 17 16 15 15 15 14 14 13 12 11 10 9 10 10 10
29 29 28 25 23 23 23 22 21 20 20 20 20 19 19 19 18 18 18 18 18 19 19 19 19 19 18 16 15 15 15 14 14 13 12 10 9 9 9 10 10 10
28 28 28 25 22 22 22 21 19 20 20 20 19 18 18 18 18 18 18 18 19 19 19 19 19 18 16 16 15 15 15 14 14 13 11 9 8 9 10 10 11 11
27 28 27 25 22 21 21 20 20 21 21 19 18 18 18 18 18 18 18 18 19 19 20 20 19 16 15 16 16 16 16 16 15 13 11 9 8 8 9 10 10 10
29 29 27 25 22 20 21 21 20 21 20 18 18 18 17 17 18 18 18 19 19 20 21 20 18 16 15 16 17 17 17 17 15 14 12 10 9 8 8 8 8 7
29 29 27 26 24 22 21 21 20 20 18 17 17 17 17 18 18 18 18 19 20 20 20 19 18 16 16 17 17 18 18 17 16 14 13 12 10 9 8 8 8 7
27 28 28 28 27 25 21 19 19 18 17 18 18 17 18 19 18 18 19 19 19 19 19 18 17 16 17 17 18 19 19 18 16 15 14 13 12 11 10 9 9 7
26 27 28 29 29 25 20 19 19 19 19 19 18 18 19 19 19 18 18 18 17 17 18 17 17 17 18 18 19 20 19 18 17 15 15 14 14 13 12 12 11 10
26 27 28 30 29 24 21 20 20 20 21 20 19 19 20 20 20 19 18 17 17 17 18 18 18 18 19 20 20 21 20 20 18 17 16 16 15 15 15 15 14 13
27 28 29 31 30 25 22 22 20 21 22 21 20 20 21 21 20 19 17 16 17 18 19 19 20 20 20 20 21 21 21 21 20 19 18 18 17 17 18 18 17 17
28 27 28 32 30 25 23 23 23 24 24 22 20 21 22 22 21 19 17 16 16 17 18 19 19 20 20 21 21 21 21 21 20 20 19 19 19 19 20 20 20 19
27 26 27 31 29 25 24 25 24 25 24 21 21 22 24 23 22 21 18 16 15 16 17 18 18 19 19 20 20 21 21 21 21 21 21 21 21 21 21 22 22 21
24 24 26 29 27 25 25 24 24 24 23 22 22 23 25 25 24 22 19 18 16 16 17 18 18 18 19 19 20 21 22 23 23 23 23 23 23 23 23 23 23 23
22 23 25 26 26 25 23 22 22 23 23 23 23 23 24 25 24 22 21 20 19 18 19 19 19 19 20 20 21 22 23 24 25 25 25 25 25 25 25 25 25 25
21 23 25 25 25 24 23 21 22 24 24 23 23 23 24 25 25 24 23 22 22 21 21 21 21 21 22 22 22 23 23 23 24 25 25 25 26 26 26 26 26 26
22 23 25 25 25 24 22 22 22 24 24 24 23 24 24 25 25 25 24 23 24 24 24 24 23 24 24 25 25 24 23 23 23 23 24 25 26 26 26 26 26 26
23 24 25 25 24 23 22 22 23 24 25 24 23 22 22 23 24 24 23 23 24 25 24 23 23 24 25 27 27 26 24 23 22 22 24 25 26 27 26 26 26 26
22 23 24 25 25 23 22 22 24 25 26 25 23 22 22 23 23 23 23 24 24 25 25 25 25 25 25 26 27 27 24 22 22 22 23 24 26 27 27 27 26 26
23 22 24 26 26 24 22 23 25 26 26 26 25 24 23 23 23 24 25 26 26 26 27 28 27 25 23 23 25 26 25 23 22 22 22 23 24 26 26 27 27 27
26 26 27 27 26 25 24 25 27 26 26 27 28 27 26 26 27 27 27 27 26 25 25 25 25 24 22 21 22 24 25 24 24 23 22 22 22 23 24 26 27 27
29 29 28 26 25 26 26 27 26 26 27 29 29 27 27 27 27 26 25 25 25 24 23 23 23 23 22 21 21 23 24 25 26 25 24 23 23 23 24 25 27 28
29 29 29 27 26 27 28 28 27 26 27 28 27 26 26 26 25 24 23 24 24 24 24 24 24 23 22 21 22 23 25 27 28 28 27 26 26 26 27 28 30 31
28 29 30 31 31 32 32 32 30 29 28 27 26 26 25 24 24 23 23 23 24 25 25 25 25 24 23 23 23 24 26 28 29 30 30 30 30 30 31 31 32 33
31 32 33 33 33 33 32 31 30 29 27 25 25 25 25 24 25 25 24 25 26 26 26 26 26 25 25 25 25 25 26 28 30 31 31 32 33 33 33 34 35 35
33 33 33 32 31 29 29 29 28 28 27 26 26 26 27 27 27 27 27 28 28 28 28 28 28 28 27 27 27 27 29 30 32 32 33 34 35 35 36 38 38 38

ECMWFNIL_500_spd_057.txt.gz
Wind_Speed
12 13 15 18 19 18 18 20 19 18 17 16 14 14 15 15 16 16 17 17 17 17 17 16 16 16 16 15 15 14 14 13 12 11 12 12 11 10 10 10 10 11
12 11 13 16 18 19 19 21 21 20 19 18 15 15 16 16 17 18 18 18 18 18 18 18 18 18 17 17 16 16 15 15 14 13 13 13 11 10 10 10 11 12
13 10 10 13 16 18 20 22 21 21 22 19 16 17 18 18 18 18 19 20 20 20 20 19 19 19 19 18 18 18 18 17 16 15 15 13 11 10 10 10 11 12
17 12 10 11 14 17 19 21 20 21 21 17 15 17 19 19 19 19 19 20 20 20 21 21 20 20 20 20 19 19 19 18 17 16 16 14 12 11 11 11 11 12
20 17 12 11 13 16 18 19 19 20 18 15 15 17 18 19 19 19 19 19 20 20 21 21 21 21 21 21 21 21 20 19 17 17 17 15 13 13 12 12 12 12
19 19 16 14 13 15 17 16 19 21 16 12 14 16 17 19 19 19 19 19 19 20 21 21 21 22 22 22 22 22 21 19 18 18 17 16 15 14 13 13 13 12
18 18 18 16 15 16 18 17 20 23 19 14 14 16 17 18 19 19 19 19 20 20 21 21 22 22 23 23 23 22 21 20 19 18 18 18 17 15 14 14 13 12
17 18 18 17 16 17 19 19 21 23 22 18 17 18 19 20 20 20 20 20 20 20 21 22 23 23 23 23 23 22 22 21 19 19 19 19 17 16 15 15 14 13
15 17 18 18 17 18 19 20 22 23 23 22 20 20 21 21 21 21 20 20 20 20 21 22 23 23 23 23 22 22 22 21 20 20 20 19 17 16 16 16 15 14
15 16 17 18 19 19 19 21 23 24 23 21 22 22 21 21 21 21 20 20 19 20 21 22 23 23 23 23 22 22 22 21 20 22 21 19 18 18 17 16 16 17
18 17 17 18 20 20 20 20 22 23 21 20 23 24 22 21 21 20 19 19 20 21 21 22 22 22 22 23 22 22 21 21 21 22 22 20 19 19 18 17 17 19
20 18 18 19 20 19 19 19 20 22 22 22 23 24 23 22 21 19 20 21 21 22 22 22 22 22 22 22 22 21 21 21 23 23 22 22 20 19 19 19 19 20
21 20 20 21 22 21 20 20 19 20 21 22 22 24 25 23 21 21 23 24 23 22 22 23 23 23 23 22 21 21 21 22 23 23 23 22 21 19 20 21 21 21
24 22 22 24 25 24 23 22 21 20 20 21 21 23 25 24 24 25 26 25 23 23 24 24 24 23 22 21 21 22 23 24 24 23 23 23 21 20 21 21 22 22
26 23 24 26 26 25 25 23 21 20 20 19 19 22 25 27 27 28 27 25 23 24 25 25 24 23 22 22 22 23 24 24 24 23 23 22 20 19 20 20 21 22
26 24 25 27 27 26 25 23 20 20 19 19 19 22 26 29 29 27 26 25 24 25 26 25 24 24 22 21 22 22 23 23 22 22 21 21 19 18 18 19 20 22
27 27 26 28 29 28 27 24 23 21 20 20 21 23 26 29 28 26 26 26 26 25 24 24 25 24 22 21 21 21 21 21 20 20 20 20 19 18 18 19 20 21
27 27 27 29 30 29 28 25 24 21 20 21 21 23 25 27 27 28 29 29 27 24 23 24 25 25 23 22 22 21 21 21 21 20 20 20 19 19 20 21 21 22
25 26 29 30 29 29 28 26 24 21 20 20 20 21 23 26 28 29 30 29 26 23 23 24 25 25 25 24 24 23 23 23 23 23 23 22 22 22 23 24 24 24
24 25 27 28 27 28 27 26 24 22 21 22 22 21 23 25 27 28 28 26 24 23 24 25 26 26 26 26 26 26 26 26 27 26 25 25 26 26 25 25 26 25
22 23 24 24 24 27 27 24 23 23 23 24 25 24 24 25 24 24 25 24 23 24 25 25 26 26 27 27 27 27 27 28 28 28 27 28 28 27 25 25 26 25
21 22 23 23 24 26 28 25 22 22 23 24 26 26 24 23 23 23 24 24 25 25 26 25 25 25 26 26 26 27 27 28 28 28 28 28 29 29 28 27 27 26
21 22 22 23 25 28 27 24 22 23 24 24 26 27 24 22 22 23 24 25 25 26 26 26 25 25 25 26 26 26 27 28 28 28 28 29 31 32 31 29 27 26
23 24 25 25 27 28 27 25 24 25 25 26 27 26 24 23 23 23 24 24 25 26 27 28 28 28 27 28 28 28 29 29 30 30 30 31 32 31 29 28 26 26
29 27 28 28 28 28 27 26 25 25 27 29 29 27 25 23 23 23 24 25 25 27 29 30 31 31 30 30 31 31 30 30 30 30 29 29 29 28 26 26 25 25
30 29 28 28 28 28 26 26 26 26 28 32 34 32 28 24 24 25 26 27 28 29 30 31 31 32 31 32 31 30 28 27 26 26 27 27 27 27 26 26 26 26

ECMWFNIL_500_spd_060.txt.gz
Wind_Speed
24 23 17 13 17 19 18 16 14 15 17 18 19 20 20 22 23 22 21 21 22 22 22 22 22 22 21 20 21 20 20 19 18 17 16 16 15 15 15 14 13 13
24 25 21 13 13 16 19 18 16 18 20 21 21 20 20 22 22 22 22 22 22 23 23 23 23 22 22 22 22 21 20 20 18 17 16 16 16 15 15 15 14 14
22 24 22 15 11 13 17 19 19 19 22 23 22 21 22 23 23 23 22 22 22 23 23 23 23 23 23 23 23 22 21 20 19 18 17 16 16 16 16 16 16 16
21 22 22 17 12 11 15 19 20 20 21 22 22 23 23 24 23 22 22 22 23 23 23 24 24 24 25 25 24 23 21 20 20 19 17 16 17 17 17 17 17 17
20 22 22 20 16 11 11 17 20 21 23 22 22 24 26 25 23 22 23 23 24 24 25 25 26 26 26 26 25 23 22 20 20 19 17 16 17 18 18 18 18 17
19 22 23 21 18 11 9 15 21 23 25 25 23 25 28 27 24 23 24 24 24 25 25 26 27 27 27 26 25 23 22 21 20 19 17 17 18 18 19 19 18 17
19 20 23 23 21 16 13 18 23 23 24 25 25 26 28 26 24 24 23 24 24 25 26 27 27 27 26 25 24 23 22 21 21 19 18 18 18 19 19 19 19 18
20 19 22 23 24 22 20 20 23 23 23 25 26 28 27 25 23 23 23 24 25 26 26 27 27 26 25 24 23 22 21 21 21 20 19 19 19 19 19 20 20 19
19 18 20 21 23 24 21 19 21 23 24 26 27 27 24 23 22 22 23 24 25 26 27 26 26 24 23 23 22 22 21 21 21 20 20 19 19 19 20 21 21 20
17 17 18 20 22 24 21 20 22 25 26 27 29 27 21 20 22 22 22 24 25 26 27 26 24 23 22 22 22 22 21 21 22 21 20 19 20 21 22 23 22 21
18 18 19 20 22 23 21 21 23 26 28 30 33 32 25 22 23 23 23 24 25 26 26 24 23 22 23 23 22 22 22 22 22 21 20 20 21 22 23 23 23 22
19 19 18 19 22 23 23 23 24 26 30 32 34 34 31 27 26 26 25 25 26 25 24 23 22 22 23 23 22 22 22 22 22 21 20 21 22 23 24 24 24 23
20 19 17 19 22 23 25 26 25 27 32 33 32 32 32 30 28 27 26 25 25 24 23 23 22 22 22 22 22 22 21 21 22 21 21 22 23 24 25 25 25 24
21 20 19 20 22 23 26 27 26 27 30 32 33 32 30 28 26 26 27 25 24 23 23 24 23 22 21 21 21 21 21 21 21 21 22 23 24 25 26 26 25 24
22 22 21 22 23 24 25 26 27 28 28 29 31 30 29 29 28 27 27 27 24 24 25 27 26 23 22 21 22 22 22 21 21 21 23 23 24 26 27 26 25 25
23 23 23 23 24 25 25 26 28 30 30 29 29 29 30 31 29 28 28 28 26 26 28 30 28 25 23 23 23 23 22 22 22 22 23 24 25 26 27 26 26 25
23 24 24 25 25 26 27 27 29 32 33 31 28 27 27 27 27 29 29 28 28 29 31 31 29 27 25 24 24 24 24 23 23 24 24 25 26 27 27 27 26 25
24 24 26 26 26 27 28 27 28 32 36 35 29 25 24 24 25 27 27 28 31 33 33 32 30 28 25 24 25 25 25 25 24 24 24 24 25 26 26 25 25 23
24 23 24 25 26 28 28 27 28 32 37 38 32 24 23 24 25 26 27 30 33 35 34 32 30 28 25 25 26 26 26 26 25 23 23 23 24 25 25 24 24 24
23 22 22 23 24 27 29 29 31 33 36 39 35 26 23 25 25 27 30 32 34 35 34 33 31 29 27 26 27 27 27 27 25 23 22 23 24 25 26 25 25 25
21 20 20 21 24 28 30 30 33 34 36 40 37 28 25 25 25 26 29 31 33 34 34 35 34 31 29 28 28 28 29 28 26 24 24 24 25 26 27 28 28 27
20 20 20 21 25 30 30 30 33 34 37 41 36 27 26 26 25 26 28 28 30 32 34 37 35 32 31 30 29 29 29 29 28 26 26 27 27 27 28 30 31 30
21 21 20 21 23 26 27 29 31 33 37 40 34 27 26 27 27 28 30 30 30 32 35 36 34 32 31 31 30 29 29 29 29 28 28 28 28 28 28 29 30 31
21 22 22 22 22 23 25 27 30 32 37 37 31 26 27 29 30 31 32 31 31 31 33 33 32 31 32 31 30 29 29 29 28 28 29 29 29 29 29 29 29 31
21 25 25 24 24 24 24 26 30 34 38 36 30 27 29 32 34 34 33 31 31 30 31 32 32 32 32 31 30 29 29 29 29 28 29 29 29 29 30 30 31 32
17 20 22 23 25 25 25 27 30 34 37 35 32 31 32 34 35 36 34 30 29 29 31 31 31 31 31 31 31 31 31 31 31 31 31 30 31 31 31 31 32 33

ECMWFNIL_500_spd_063.txt.gz
Wind_Speed
19 16 15 17 21 23 23 20 20 21 21 23 24 24 25 26 27 28 28 27 26 27 27 26 26 26 25 25 25 24 25 25 25 24 23 22 21 20 20 20 20 19
21 18 16 17 21 24 22 20 21 23 23 23 24 24 24 25 28 28 28 27 27 28 27 26 26 26 26 26 26 26 26 26 26 25 23 22 21 21 21 21 21 20
26 24 20 19 22 24 24 21 21 24 26 26 25 25 25 26 29 29 28 27 27 28 27 27 27 27 27 26 27 27 27 27 26 25 24 23 22 22 22 22 22 21
27 26 24 22 23 26 26 23 22 23 27 28 28 28 28 29 29 29 27 26 27 27 27 27 27 27 27 27 28 28 28 27 26 25 24 24 23 23 23 22 22 22
25 24 24 22 23 27 29 25 21 22 26 29 31 32 31 30 29 27 26 26 27 28 28 27 27 27 28 28 29 28 28 27 26 26 26 25 24 24 23 23 22 22
24 22 23 23 24 28 28 23 20 22 25 29 33 32 30 30 29 27 27 28 29 29 29 27 27 28 28 29 29 29 28 27 26 26 27 26 25 24 23 23 22 22
24 21 21 24 27 27 26 24 23 23 25 29 32 30 29 29 28 27 28 29 30 30 28 27 27 28 28 29 29 28 28 27 26 26 27 26 25 24 23 23 22 21
25 21 20 26 28 25 23 25 25 23 23 27 30 30 30 29 28 28 29 31 31 31 29 28 28 28 28 28 28 28 27 27 26 26 26 26 26 24 23 23 21 22
22 19 21 26 27 22 22 25 25 23 24 27 30 31 31 31 29 29 31 32 32 31 30 29 30 29 28 28 27 27 26 26 26 26 26 26 26 24 23 22 22 22
20 20 22 26 25 20 21 24 23 24 25 26 29 31 32 32 31 31 32 33 33 31 30 30 29 28 26 26 26 26 25 25 26 26 26 26 25 23 22 22 23 23
21 22 23 24 23 21 22 24 24 25 26 25 27 29 31 33 32 33 33 33 32 30 29 29 27 26 25 25 25 25 25 26 26 26 25 24 24 23 23 23 23 23
19 22 22 22 21 22 26 27 24 25 26 26 26 28 31 33 34 35 34 32 30 29 29 28 26 26 25 25 25 25 25 26 26 24 24 23 24 24 23 23 23 23
18 21 22 20 20 23 27 27 25 25 27 27 27 29 30 31 35 38 34 31 29 28 27 27 26 26 26 25 25 24 25 25 24 23 23 24 24 24 23 23 23 23
20 21 22 21 22 24 26 26 26 26 27 28 29 29 28 28 34 38 35 31 28 25 25 25 26 27 26 25 24 23 23 24 23 23 23 24 24 24 24 24 24 24
22 22 23 23 24 25 26 27 27 26 26 28 29 29 29 30 33 36 36 33 27 25 25 26 27 27 27 26 24 23 23 23 23 23 24 24 25 25 25 25 24 24
22 23 24 25 25 26 27 28 28 27 28 29 29 30 32 32 34 36 38 36 31 28 27 27 28 29 28 27 25 24 23 22 23 23 24 25 25 25 25 24 24 24
24 25 25 25 25 27 28 29 28 28 29 29 28 31 33 33 33 36 39 38 34 30 29 28 29 30 30 28 26 25 24 22 22 23 24 24 24 24 25 24 24 25
26 27 27 25 26 28 28 29 29 28 28 27 28 31 34 33 31 33 36 36 33 31 30 30 30 31 31 30 27 26 25 23 23 24 25 24 24 24 25 25 25 25
27 28 28 27 27 28 28 28 29 29 28 27 29 32 34 33 31 31 32 32 32 32 31 31 32 33 33 32 30 28 26 26 25 26 26 25 25 25 26 26 27 26
27 28 29 28 27 27 28 28 28 29 29 28 31 33 33 33 33 33 32 32 32 32 31 30 33 35 35 34 32 29 28 28 27 27 27 26 27 27 27 27 27 27
26 27 28 28 26 27 28 28 28 28 28 29 32 33 33 35 37 37 35 33 32 31 30 30 31 34 36 35 33 30 30 30 29 28 28 28 28 28 27 27 27 26
23 25 28 27 27 28 28 27 27 28 29 31 33 33 33 35 40 40 36 33 32 31 30 30 30 33 36 37 35 32 31 31 30 29 30 30 29 28 28 27 27 26
22 24 26 27 27 28 26 25 26 29 34 37 36 34 35 37 42 44 38 33 32 31 30 31 32 33 35 36 37 36 34 33 32 31 31 31 30 30 29 29 28 28
23 24 26 27 28 30 29 27 26 27 32 35 37 37 38 39 42 46 43 35 31 30 30 31 32 34 35 34 35 38 38 36 35 34 32 31 31 31 30 30 31 31
23 23 26 27 28 30 28 26 25 24 24 27 33 39 42 42 43 47 46 39 32 29 31 33 35 37 36 34 34 36 39 39 39 36 34 33 32 32 32 32 33 33
23 23 25 26 26 26 23 22 22 24 24 25 30 35 39 43 46 48 46 39 31 28 29 33 36 38 38 37 37 37 38 40 40 38 35 34 33 33 33 33 33 33

ECMWFNIL_500_spd_069.txt.gz
Wind_Speed
31 30 28 28 29 29 30 31 29 26 25 25 25 23 24 25 25 26 26 26 27 27 28 30 31 32 32 31 31 30 28 26 26 25 25 23 22 22 22 23 23 21
31 29 28 27 29 29 30 31 29 26 25 27 27 25 25 26 26 27 28 27 28 28 28 29 31 32 32 32 31 30 28 27 26 26 25 24 23 23 23 23 23 22
31 28 28 29 30 29 29 30 31 29 27 27 28 27 26 26 26 26 27 28 28 28 28 29 30 31 32 32 31 30 29 28 27 27 25 24 23 23 24 24 23 22
31 27 28 30 31 29 28 28 30 29 27 26 27 28 28 28 27 26 27 27 27 27 28 29 30 30 31 31 31 30 30 29 28 28 26 25 24 25 25 25 24 22
28 27 29 31 31 30 28 27 29 29 27 26 26 29 30 29 28 27 27 27 28 29 29 29 30 30 30 30 30 30 31 30 29 28 27 26 26 26 25 25 25 23
24 25 29 31 32 31 28 27 30 32 31 29 28 29 31 31 30 28 26 26 27 29 29 29 29 30 31 30 29 29 30 31 30 29 28 28 27 26 24 25 26 25
22 23 26 29 30 30 28 28 31 33 32 30 29 29 30 31 31 29 27 25 26 27 28 28 28 30 31 30 29 28 30 31 31 30 30 29 28 27 26 25 26 26
21 21 23 25 27 26 27 28 30 31 31 30 29 29 29 30 30 29 27 26 26 27 29 29 28 30 32 32 31 29 30 32 32 32 32 30 29 29 29 28 28 28
20 20 21 22 24 24 24 27 29 30 29 29 29 29 29 29 29 28 27 26 26 26 28 29 30 30 32 34 34 32 31 33 34 34 33 32 31 30 30 30 29 29
21 19 19 20 21 22 23 24 26 27 28 27 27 28 28 29 29 29 28 27 26 26 27 29 30 31 32 34 36 35 34 34 35 35 34 33 32 32 31 31 31 30
20 19 18 18 17 18 20 22 24 25 25 25 25 27 28 29 28 28 29 28 27 26 27 29 31 33 33 34 35 36 35 35 36 36 35 33 33 32 32 32 32 31
18 18 18 18 17 16 16 19 21 22 22 22 23 26 28 29 27 27 28 29 28 27 26 27 29 32 34 34 36 36 35 35 36 36 35 34 33 32 32 32 32 32
18 17 18 18 17 16 15 15 17 18 18 20 21 22 25 27 26 26 27 28 29 28 26 24 26 29 33 34 36 36 35 35 35 35 35 33 33 33 33 32 32 32
18 17 17 18 18 17 17 16 15 15 16 18 19 20 22 24 25 26 26 27 28 29 28 25 24 27 31 33 34 36 35 35 35 35 35 34 33 33 33 32 32 32
18 18 17 18 18 19 18 18 18 17 17 18 19 20 21 22 24 25 26 26 27 28 29 28 25 26 30 32 33 35 36 35 35 36 35 34 33 33 33 33 32 31
19 19 18 17 18 19 19 19 19 20 19 19 20 21 22 22 23 25 26 26 26 26 28 29 28 26 28 30 32 34 36 36 36 36 35 34 33 33 33 33 32 30
21 20 19 18 18 19 20 20 21 21 21 21 21 22 23 23 23 24 25 25 26 27 27 29 30 28 28 29 30 33 36 36 36 35 35 34 34 34 34 33 32 31
23 22 21 20 19 19 20 21 22 22 21 21 22 23 24 25 25 26 26 26 26 27 28 30 31 31 31 31 32 32 35 36 36 35 35 34 34 35 34 33 32 32
25 24 23 22 21 20 20 22 23 23 23 22 22 23 25 26 28 29 29 29 28 29 30 31 32 32 33 33 33 32 33 36 36 36 35 35 35 35 35 34 33 32
26 26 25 24 23 22 21 22 23 24 24 24 23 24 25 27 29 29 30 31 31 31 31 32 33 34 34 35 34 32 32 34 36 37 37 36 36 35 35 34 33 33
27 27 27 26 26 25 24 23 23 23 24 24 25 25 26 28 30 30 31 32 32 32 32 32 33 34 35 36 35 33 31 33 36 37 38 38 36 35 35 34 34 34
28 27 28 28 28 27 27 25 25 24 24 24 25 26 27 28 29 31 32 33 32 32 32 31 31 33 35 36 36 34 32 33 35 37 40 39 36 35 36 35 35 34
29 29 28 28 28 28 29 28 27 26 26 25 25 25 27 28 29 30 32 32 33 33 32 31 32 34 36 36 36 35 34 34 35 37 39 40 38 36 36 36 36 35
30 30 30 30 29 29 29 29 29 28 27 27 26 26 27 28 29 30 30 32 33 34 33 34 35 35 36 36 35 34 34 35 36 37 39 41 41 39 38 38 38 37
31 31 32 32 31 31 30 30 30 30 30 29 28 27 27 28 29 29 30 31 32 32 33 34 35 35 35 36 35 34 34 35 37 39 40 41 42 42 41 41 40 38
33 32 32 33 33 33 32 31 29 30 31 31 30 29 28 28 28 29 29 29 30 31 32 34 35 35 34 35 34 34 35 37 38 39 40 39 39 41 41 42 42 41

ECMWFNIL_500_spd_072.txt.gz
Wind_Speed
30 32 34 35 37 38 37 35 35 35 35 36 35 34 32 28 27 28 28 27 25 23 24 25 26 28 28 27 27 28 29 28 27 25 25 26 26 26 25 24 23 24
32 33 34 36 37 39 38 35 35 36 36 35 34 34 33 30 29 29 27 27 26 24 25 27 27 28 29 28 28 28 28 28 28 26 27 28 28 27 27 26 25 25
32 34 35 35 37 39 39 35 34 37 38 36 34 33 33 31 29 29 28 27 27 26 26 27 28 29 29 29 29 29 29 30 30 30 30 30 29 27 28 27 25 25
30 33 33 32 34 37 38 34 33 36 38 36 34 32 32 31 29 29 28 28 28 26 25 26 27 29 30 30 30 30 31 32 33 33 33 31 29 28 29 29 27 26
26 28 29 29 30 33 34 33 33 36 37 35 33 32 32 32 31 29 29 29 29 27 25 26 26 27 29 29 30 30 31 32 33 33 32 32 31 31 31 30 29 27
24 25 27 27 28 29 30 30 32 35 36 34 33 32 32 33 32 31 30 30 30 28 27 26 26 26 27 28 30 31 32 32 32 33 33 32 32 32 31 31 29 28
25 26 27 27 28 28 27 28 30 32 33 32 32 32 32 33 32 31 30 30 30 30 28 27 26 25 26 28 29 30 32 32 32 32 33 32 31 31 30 29 29 29
26 27 28 28 28 28 28 27 27 28 29 29 30 32 33 35 34 32 31 30 30 30 29 28 26 26 26 27 28 28 29 31 32 32 32 32 32 30 29 29 30 30
25 26 27 27 27 27 28 28 27 26 27 27 28 30 33 35 36 34 32 31 31 30 30 28 27 28 27 27 28 28 28 29 31 32 32 33 32 30 30 31 32 31
26 26 26 27 27 27 27 28 27 26 26 26 27 28 30 33 34 34 32 31 31 31 30 29 28 28 28 27 28 29 28 29 30 32 33 33 32 32 31 32 32 30
25 25 26 26 26 26 27 27 26 25 23 24 27 29 29 31 32 33 31 31 30 30 30 30 30 29 28 27 27 28 29 30 31 33 34 34 34 33 31 31 30 30
24 24 25 25 26 26 26 26 26 25 22 21 24 27 28 30 31 32 31 30 30 30 30 31 32 31 30 29 29 29 30 31 32 35 36 37 36 32 31 33 34 33
22 23 23 24 25 26 27 26 26 25 23 20 19 20 23 26 27 28 28 28 28 28 29 30 32 33 33 32 31 31 30 30 31 34 37 39 37 32 31 35 36 34
22 22 22 23 24 26 27 27 26 26 25 23 19 17 18 20 21 22 24 25 27 27 28 28 29 32 34 33 32 32 31 29 30 34 37 39 37 34 34 36 36 34
22 23 23 23 23 24 26 26 26 25 25 25 23 19 18 18 18 19 20 23 25 27 28 28 27 29 32 34 33 32 30 28 30 35 38 38 37 38 38 37 37 37
24 23 23 23 23 24 24 25 25 25 25 25 24 23 21 20 19 19 19 21 23 26 28 29 28 27 30 33 34 33 32 29 29 33 36 36 38 41 40 38 38 38
26 26 25 24 24 24 24 24 25 25 24 24 24 24 24 24 23 22 21 21 22 24 27 28 29 28 30 33 33 33 33 30 29 32 36 39 41 40 38 38 38 38
27 28 28 26 26 26 26 25 25 25 25 24 24 24 24 24 25 25 25 24 24 25 27 29 30 31 31 31 31 32 33 31 30 33 37 39 40 38 36 37 38 38
28 28 29 29 28 27 27 27 26 25 25 25 25 25 25 25 25 25 27 27 27 27 29 30 31 32 32 32 31 31 32 31 31 35 36 36 38 38 36 37 38 38
29 28 28 29 29 28 28 28 28 28 27 26 25 26 26 26 26 26 27 28 29 30 30 30 31 32 33 33 32 31 31 30 32 36 36 34 36 38 38 38 38 38
31 29 28 28 29 29 29 29 30 29 29 28 27 26 26 27 28 28 28 28 29 31 31 31 31 32 33 33 33 32 32 31 33 36 38 36 36 37 38 38 38 37
31 30 29 29 29 30 31 31 31 31 30 30 29 28 27 27 28 29 29 29 30 31 32 31 31 33 34 34 34 34 35 34 34 37 39 39 37 37 38 38 37 35
34 33 32 31 30 31 31 32 32 32 32 32 31 30 30 29 28 29 30 30 31 31 32 31 31 33 34 34 35 36 36 35 35 36 38 38 38 38 38 38 37 37
36 36 35 34 32 31 31 32 33 33 33 33 33 32 31 31 30 30 30 30 31 32 32 32 30 32 34 34 35 36 36 36 36 37 37 38 38 39 39 39 38 39
39 38 37 36 35 33 32 32 33 33 34 34 34 34 33 32 32 31 31 31 31 32 33 33 31 31 32 33 34 35 35 35 36 38 39 39 39 39 40 41 38 37
43 43 42 40 39 38 37 35 34 34 34 35 35 35 34 34 33 33 32 32 32 32 33 33 32 31 32 32 34 35 36 36 38 41 42 41 39 39 41 41 37 36

ECMWFNIL_500_spd_075.txt.gz
Wind_Speed
24 26 28 30 31 32 33 34 35 35 37 38 37 37 37 36 37 37 36 35 34 32 32 31 26 23 22 22 22 24 26 26 26 25 23 22 25 27 27 25 25 25
26 27 29 30 32 33 34 36 37 37 38 39 39 39 37 35 35 36 37 35 34 32 31 31 28 23 21 21 22 24 26 27 27 26 26 26 28 28 27 27 27 26
27 28 28 29 31 32 34 36 38 39 39 40 41 40 39 37 34 33 35 34 33 32 31 31 30 25 22 22 23 24 27 28 28 28 29 29 30 29 28 28 28 27
28 29 29 29 29 30 31 33 35 38 39 39 40 39 39 39 36 33 33 33 33 32 30 30 31 27 24 23 23 25 27 28 29 29 29 30 30 30 29 29 28 27
29 29 29 29 28 29 30 31 33 36 37 37 37 36 34 34 35 34 34 33 32 32 30 30 31 29 27 25 24 25 27 28 29 30 29 30 30 30 30 29 28 28
28 28 28 28 28 28 29 31 32 35 37 37 37 36 33 33 33 33 34 34 32 31 31 30 31 31 29 27 24 24 26 27 29 30 30 30 31 31 31 31 31 30
28 28 28 28 28 28 29 30 31 33 35 36 37 37 36 35 34 32 33 34 32 31 31 31 32 32 32 30 26 25 25 25 27 29 30 31 32 33 33 33 33 32
29 28 28 28 28 28 28 29 30 32 33 33 34 36 37 36 35 33 32 31 30 30 30 30 32 33 33 32 30 27 26 26 28 28 29 30 32 32 33 33 32 32
29 29 29 29 29 28 28 29 29 30 30 31 32 34 35 36 36 34 32 31 31 31 31 31 30 31 33 33 32 30 28 28 29 29 29 30 30 31 33 33 32 32
28 29 29 29 29 29 28 28 29 29 29 29 29 31 33 35 36 34 32 31 31 31 32 32 31 30 29 31 33 32 30 30 29 29 28 28 29 30 32 33 33 33
29 29 29 29 29 29 28 28 28 29 29 28 28 29 30 32 35 34 32 31 29 30 32 33 33 31 27 28 31 31 31 31 30 30 29 29 29 29 31 33 34 34
29 29 29 29 29 29 29 28 28 29 29 28 27 29 29 29 31 32 30 29 29 31 31 31 33 33 28 26 27 28 31 32 32 31 30 31 30 29 30 33 34 34
29 29 29 29 29 29 29 29 29 29 29 28 27 28 28 28 28 28 26 27 29 31 31 30 32 34 32 28 27 27 30 32 34 34 32 31 31 31 32 34 35 35
29 29 28 28 29 29 29 29 29 30 30 29 27 27 28 28 27 26 24 24 28 31 31 28 29 34 34 31 29 29 29 30 33 35 33 32 31 32 33 34 36 37
30 29 29 29 29 29 30 30 30 30 31 32 29 27 27 28 28 27 25 24 25 29 30 27 26 31 34 32 31 31 29 28 31 34 34 34 33 33 33 34 36 37
32 32 32 32 31 30 31 31 31 30 31 33 32 29 28 28 28 27 27 25 25 26 27 26 26 29 32 31 31 33 30 28 29 31 33 35 36 35 35 36 37 38
34 35 35 35 34 33 33 33 33 31 31 32 33 32 30 29 28 28 27 27 27 26 25 25 25 28 30 30 30 33 32 30 29 29 30 33 34 34 34 34 35 37
35 35 36 35 35 35 35 35 35 34 32 31 32 32 31 30 29 28 28 28 28 27 27 25 25 26 28 28 29 30 31 32 32 30 29 30 31 32 34 33 34 36
36 36 36 36 37 37 36 36 36 35 34 32 31 31 31 31 31 30 29 29 28 28 28 28 28 27 26 28 30 30 29 31 32 30 29 29 30 32 33 33 34 37
38 38 38 38 38 38 37 36 36 36 35 33 32 31 31 31 31 31 31 30 29 29 28 28 29 29 28 29 31 30 29 29 30 30 29 29 30 31 32 34 37 39
41 40 40 40 39 38 36 34 33 35 35 35 33 33 32 31 31 32 32 32 31 31 29 29 29 29 30 31 31 31 30 29 30 31 30 30 31 32 32 35 39 39
42 42 41 41 40 39 38 36 35 34 35 36 35 34 34 33 32 31 32 33 33 32 32 31 30 29 30 31 32 32 32 31 31 31 31 31 32 33 34 37 39 39
43 43 43 43 42 42 41 40 38 36 35 36 36 36 35 34 33 32 32 33 33 34 33 33 32 31 30 31 32 32 32 32 32 33 32 32 32 34 36 38 38 40
44 44 44 43 43 43 42 41 40 38 37 36 36 36 35 35 34 33 33 32 33 34 34 34 34 33 33 32 32 32 32 31 32 34 34 33 33 35 37 37 37 40
46 46 46 46 46 46 45 44 44 43 42 40 39 38 37 36 35 35 35 34 33 33 34 34 35 35 34 34 34 33 32 31 32 35 36 34 34 36 37 39 41 42
49 49 49 50 50 50 50 50 49 48 48 46 44 42 42 40 39 37 37 37 36 35 34 34 34 35 35 35 35 34 33 32 33 36 36 35 36 37 38 39 42 43

ECMWFNIL_500_spd_078.txt.gz
Wind_Speed
23 24 24 25 26 27 28 29 30 31 31 32 33 34 35 37 39 37 36 36 36 36 35 33 30 28 26 26 26 26 25 23 21 20 21 24 24 25 25 24 26 28
24 24 25 25 26 27 28 29 30 32 32 32 33 34 34 36 38 37 35 35 35 34 34 32 29 26 25 25 26 26 25 23 21 20 21 24 25 25 25 23 24 26
24 24 25 26 27 28 29 30 31 32 32 32 32 33 35 35 36 37 36 34 34 34 33 31 30 28 26 25 26 26 25 24 23 22 21 24 25 25 25 24 23 24
25 25 25 26 28 29 29 31 32 32 32 32 32 32 34 34 35 36 36 34 33 34 32 31 31 28 26 26 26 26 26 25 25 24 23 25 26 27 27 27 26 25
26 26 27 28 29 29 30 31 31 32 32 31 31 31 32 33 33 33 34 34 33 34 32 31 31 29 27 27 26 24 25 25 25 24 25 26 28 28 28 29 29 28
26 27 28 28 29 29 30 31 31 31 31 30 30 31 31 32 32 32 33 33 33 34 32 31 31 29 28 29 26 24 25 26 26 25 25 27 28 29 29 30 30 30
27 28 28 29 29 30 30 31 31 31 30 29 30 30 31 31 32 31 32 32 33 34 32 31 31 30 30 31 30 28 27 26 26 26 26 26 27 28 30 31 31 30
28 28 29 29 30 31 31 31 30 30 29 30 30 31 31 32 32 31 31 32 33 34 33 31 31 30 30 32 32 31 30 28 27 27 27 26 27 28 29 31 31 31
29 30 30 30 31 31 31 31 31 30 30 31 32 32 32 32 33 32 31 32 33 34 34 33 33 32 31 31 32 31 31 30 29 28 28 28 27 28 30 31 32 32
31 31 31 31 31 32 32 32 33 32 32 33 33 33 33 33 33 33 32 31 32 33 34 34 34 34 32 31 32 32 31 30 28 29 29 28 28 29 31 32 32 32
31 31 31 32 32 33 34 34 35 35 35 35 34 34 33 33 33 33 32 31 31 31 32 33 34 33 33 31 31 33 34 33 31 29 29 29 29 30 31 32 32 32
31 31 32 32 33 34 35 36 37 37 37 36 36 35 34 34 34 33 32 32 31 31 30 30 31 32 32 32 32 33 33 34 35 33 30 30 31 31 31 31 32 32
32 32 32 33 34 35 36 37 38 38 38 38 37 36 35 34 34 33 32 32 32 31 29 28 29 31 32 32 34 34 32 32 34 34 32 31 31 32 32 31 30 31
33 34 34 34 35 36 37 38 38 39 39 39 38 38 37 36 35 34 33 32 32 32 30 28 27 29 31 32 33 35 33 31 33 34 33 32 31 31 32 32 31 30
35 35 35 36 36 37 38 38 38 39 39 39 39 39 38 37 37 36 35 33 33 32 31 29 27 27 28 30 31 33 33 32 34 35 34 33 33 32 31 33 33 32
36 36 37 38 38 39 39 40 39 39 40 40 40 40 39 39 38 38 37 35 33 32 31 30 28 27 26 27 29 30 31 32 34 36 35 34 34 33 32 32 33 33
38 38 39 40 41 41 41 41 41 41 41 41 40 40 40 39 39 39 39 37 34 33 31 30 29 28 27 26 27 28 29 30 31 33 33 33 34 34 33 32 33 34
40 41 42 42 42 42 42 42 42 42 42 42 42 41 41 40 40 40 40 39 36 34 33 31 29 28 28 27 26 27 28 28 27 28 29 31 33 34 33 32 33 34
41 42 42 42 42 43 43 43 43 43 43 43 43 43 42 41 40 39 39 40 38 36 34 34 32 29 29 28 26 26 27 27 26 26 27 29 30 31 32 31 31 32
42 42 43 43 43 44 44 44 44 44 44 44 43 43 43 42 40 39 38 39 40 38 36 35 35 32 30 30 28 27 27 27 26 26 26 27 28 29 30 30 30 31
43 43 44 45 45 46 46 46 46 46 45 44 44 43 43 43 43 41 39 39 41 41 38 37 36 35 33 31 30 29 28 28 27 26 26 27 26 28 29 29 30 31
42 43 44 44 45 45 46 46 46 46 46 45 45 44 44 44 44 43 42 41 41 42 41 38 37 37 35 33 32 31 30 30 29 27 27 27 27 28 29 29 31 32
44 44 45 45 46 46 46 46 47 47 46 46 46 45 44 44 44 44 43 42 41 42 42 40 38 37 36 35 33 32 32 32 31 30 29 28 28 28 28 29 31 33
46 47 48 48 48 49 49 49 49 49 49 49 49 49 48 47 47 47 46 45 44 43 43 41 40 38 38 36 35 34 34 33 33 32 31 30 30 29 28 29 31 33
47 47 48 49 50 50 51 51 52 52 52 52 52 52 52 52 51 51 50 49 48 46 45 45 43 41 39 38 37 35 35 35 34 34 33 32 31 31 30 31 32 34
46 47 48 49 50 51 52 52 53 53 54 54 54 54 54 54 54 53 53 52 51 49 48 47 46 45 42 41 39 38 36 36 35 35 35 34 33 32 31 32 33 33

ECMWFNIL_500_spd_081.txt.gz
Wind_Speed
25 26 26 27 26 26 25 26 26 26 26 26 27 28 28 28 28 28 29 30 31 32 32 32 30 28 27 26 26 26 26 25 24 25 25 23 22 23 24 24 24 25
26 27 27 27 27 26 26 26 26 27 27 27 28 28 29 29 28 28 28 29 30 31 32 32 30 29 28 27 26 26 27 27 26 25 24 23 23 24 25 25 26 27
27 28 28 28 28 27 27 27 26 27 28 28 28 28 29 28 27 27 27 28 30 30 31 32 31 30 29 28 28 26 27 28 27 25 24 23 24 24 25 26 27 28
29 30 30 30 29 28 28 27 27 28 28 29 29 29 29 28 27 26 27 28 30 31 32 33 33 32 30 30 29 28 27 27 27 26 24 23 24 23 24 27 27 28
30 30 31 31 30 29 28 28 28 28 29 30 30 29 29 28 27 27 27 28 30 32 32 33 34 34 33 31 30 29 29 28 28 28 25 24 24 25 25 27 27 28
30 31 32 31 31 30 29 29 28 29 30 30 30 30 29 28 28 28 29 29 31 32 33 33 34 35 34 33 30 29 29 29 30 29 27 25 25 26 26 27 28 29
31 32 32 32 32 31 30 29 29 30 30 31 31 31 30 30 29 30 31 31 31 32 33 33 34 35 35 34 32 29 28 29 30 30 30 29 27 27 28 28 29 29
32 33 33 33 33 32 31 31 31 31 32 32 32 32 32 31 31 31 32 32 31 31 32 32 33 34 35 34 32 30 28 28 30 31 31 30 28 28 29 30 30 30
34 34 34 34 33 33 32 32 32 33 33 33 33 33 33 32 31 32 33 33 32 31 32 32 32 33 34 34 33 31 29 28 29 30 31 30 30 30 30 30 31 31
34 35 35 35 34 34 34 34 34 34 34 34 34 34 34 34 33 33 33 33 33 32 32 33 31 31 32 34 33 32 30 29 28 29 30 30 31 32 32 30 31 32
35 36 35 35 35 35 36 36 36 36 36 36 36 36 36 36 35 35 34 34 33 33 33 33 32 30 30 32 33 32 31 29 28 29 30 30 30 32 34 33 31 32
36 36 36 36 36 37 37 37 37 37 37 37 37 37 37 38 37 37 36 35 35 34 34 34 33 30 30 31 31 32 31 30 29 29 29 29 30 32 34 35 34 33
36 37 37 37 37 38 38 38 38 38 38 38 38 39 39 39 40 39 39 38 37 37 36 35 34 32 31 30 30 30 31 30 29 29 29 28 30 32 34 35 35 34
36 37 37 38 38 39 39 39 40 39 39 39 40 40 41 41 42 42 41 40 40 39 38 37 36 34 33 32 30 30 30 29 29 29 29 28 28 31 34 35 34 34
36 37 37 38 39 40 40 41 41 41 41 41 41 42 43 43 43 43 43 42 41 41 40 39 38 36 35 34 32 30 30 30 29 29 29 28 28 29 32 34 33 34
36 37 38 39 40 41 41 42 42 42 43 43 44 44 45 44 44 44 44 44 43 43 42 42 40 38 37 36 34 31 30 30 30 29 29 28 27 28 29 32 33 34
37 38 39 40 41 41 42 42 43 44 45 45 46 46 46 45 45 45 46 46 45 45 44 43 42 40 37 37 36 33 31 31 31 30 30 29 28 27 27 29 31 33
37 38 39 40 41 41 42 43 44 45 45 46 46 47 47 47 47 47 48 48 48 47 46 45 44 42 39 36 36 35 33 33 33 32 31 30 29 28 27 27 28 31
37 38 39 40 41 42 42 43 44 45 46 46 47 48 48 48 49 49 49 49 49 49 48 46 45 44 42 39 37 36 35 34 35 34 33 31 30 29 28 28 27 28
38 39 40 40 41 42 43 44 44 45 46 47 48 48 48 49 49 49 49 49 49 49 49 48 47 46 45 44 40 38 37 36 36 36 35 34 32 31 30 29 28 28
40 41 41 42 43 44 45 46 46 47 48 49 50 51 51 51 51 51 51 50 50 50 49 49 48 47 46 45 43 40 39 38 37 37 37 36 35 33 32 30 30 29
42 43 43 44 45 46 47 48 49 49 50 51 52 52 53 53 53 53 54 53 53 53 52 51 51 49 48 46 45 43 41 40 40 38 38 38 37 35 34 33 32 31
43 44 44 45 45 46 46 47 48 49 50 51 51 52 53 53 54 54 55 55 55 55 55 54 54 53 52 50 48 46 43 42 42 41 40 39 38 37 36 35 34 33
41 42 42 43 44 45 45 46 47 49 50 51 52 53 54 55 56 56 56 56 57 56 57 56 56 55 54 54 53 51 48 45 44 44 43 41 40 39 38 37 37 35
39 40 41 42 44 45 46 47 48 49 51 52 54 55 57 58 58 59 60 60 60 59 59 59 58 57 56 55 54 54 52 49 46 46 46 45 43 41 39 38 38 37
38 39 40 41 42 44 45 46 47 48 49 51 52 54 55 57 58 59 60 61 62 62 62 62 61 60 59 58 56 55 54 51 48 47 47 48 46 44 42 40 38 38

ECMWFNIL_500_spd_084.txt.gz
Wind_Speed
23 24 25 26 27 27 28 28 29 30 30 30 29 28 27 26 25 24 24 24 23 22 22 23 24 24 24 24 25 25 26 27 29 31 30 29 30 31 31 29 28 27
24 24 25 26 27 28 29 30 30 30 31 31 30 29 28 27 26 25 24 24 24 23 23 24 25 25 25 25 25 26 26 27 28 30 30 29 29 30 30 30 29 28
25 26 26 27 28 30 31 31 31 31 31 32 31 30 29 28 27 26 25 24 24 25 26 26 26 26 26 26 25 26 27 27 27 29 30 29 29 29 29 29 30 30
27 27 28 29 30 32 33 33 33 32 32 32 32 31 30 29 28 28 27 26 25 26 27 28 27 27 27 27 26 26 27 27 27 28 29 29 28 29 29 28 30 31
28 28 29 30 31 33 34 34 34 34 34 34 33 33 32 31 30 29 29 28 28 28 28 28 28 27 27 27 27 26 26 27 27 28 28 29 28 28 29 28 29 32
29 29 30 31 32 33 34 35 35 35 35 35 34 34 33 33 32 32 31 30 29 29 29 28 28 28 28 28 28 28 27 27 27 27 28 29 28 28 28 29 29 32
30 31 31 32 33 34 35 35 36 36 36 35 35 35 35 34 34 34 33 33 32 31 30 29 29 29 29 29 28 29 29 29 28 28 28 29 29 28 28 29 29 31
32 32 33 34 34 35 35 36 36 37 37 37 36 36 36 35 35 35 35 35 35 34 32 31 30 30 30 29 28 28 29 30 30 30 29 29 29 29 28 29 30 30
33 33 34 34 35 35 36 36 37 37 38 38 38 37 37 37 37 36 37 37 37 36 35 33 32 32 31 30 29 28 29 30 31 31 30 29 29 30 29 29 30 30
35 35 35 35 35 36 36 37 37 38 38 38 39 39 38 38 38 38 38 38 38 39 38 37 35 35 33 32 30 29 29 30 31 32 32 31 30 31 30 29 29 30
36 35 35 36 36 37 37 38 38 38 39 39 40 40 40 40 40 40 40 40 40 40 40 39 38 38 37 35 33 31 30 30 31 32 32 33 32 32 32 31 29 29
36 36 36 37 37 38 38 38 38 39 39 40 40 41 41 41 41 41 41 41 41 41 41 41 41 41 39 37 35 34 32 31 32 32 33 33 33 33 33 33 31 30
37 37 37 38 38 38 38 38 39 39 40 40 41 41 42 42 43 43 43 43 42 43 43 43 43 43 41 40 38 36 35 33 33 33 34 34 34 34 35 35 34 32
38 38 38 38 38 38 39 39 39 40 40 41 42 42 43 43 43 43 44 44 44 44 45 45 45 44 43 42 41 39 38 36 35 34 35 35 35 35 36 36 36 35
38 38 38 38 38 38 39 39 40 40 41 42 42 43 43 44 44 44 44 45 45 46 46 46 46 46 45 44 43 42 41 40 38 36 36 36 36 36 36 37 38 37
38 38 38 38 38 38 39 39 40 40 41 42 42 43 43 44 45 45 46 46 47 47 48 48 48 48 48 47 46 45 44 42 41 39 37 37 37 37 37 38 39 39
38 38 37 38 38 38 38 39 39 40 41 42 43 43 44 45 46 47 47 48 49 49 49 49 49 49 49 49 48 48 47 46 44 42 40 38 37 38 38 38 39 40
37 38 38 38 38 38 38 39 39 40 41 42 43 44 45 46 47 47 48 49 50 50 51 51 51 52 51 51 51 50 50 49 47 46 44 41 39 38 39 39 39 40
37 37 38 38 38 39 39 40 41 42 43 44 45 46 47 47 48 49 50 51 51 52 53 53 54 54 54 54 54 53 53 52 51 49 48 46 43 40 39 40 40 40
37 38 38 39 39 40 41 41 42 43 44 44 45 46 47 48 49 50 50 51 52 53 54 54 55 55 55 55 55 55 55 54 54 53 51 50 48 44 41 41 42 42
38 38 38 39 39 40 41 41 42 43 44 45 46 47 48 49 50 51 52 53 54 55 56 56 57 57 57 57 57 57 57 56 55 55 54 53 52 50 46 43 42 43
38 37 37 38 38 39 40 41 42 43 44 45 47 48 49 50 51 52 53 54 56 57 58 59 60 60 61 61 61 61 60 60 59 57 56 55 54 53 51 48 44 43
37 36 37 37 38 39 40 42 42 43 44 45 46 48 49 50 52 53 54 55 56 57 58 59 60 61 62 62 63 63 64 64 63 62 60 58 56 55 53 52 50 46
36 36 36 37 38 39 40 41 41 42 43 44 46 47 48 50 51 52 53 54 55 56 56 57 58 59 60 60 61 62 62 63 64 65 64 63 61 58 55 54 53 51
35 35 36 37 37 38 38 39 40 41 42 44 45 46 48 49 50 51 52 52 53 54 55 56 57 58 59 59 60 60 61 61 62 63 64 64 64 62 59 56 54 54
34 34 35 35 35 36 37 38 39 40 42 43 44 45 46 47 48 49 50 51 52 53 54 55 56 57 58 59 60 60 60 60 61 61 62 63 63 63 62 59 56 54

ECMWFNIL_500_spd_087.txt.gz
Wind_Speed
25 25 25 25 25 25 25 26 26 26 27 27 28 28 28 28 28 28 29 29 29 28 27 26 25 25 25 26 26 27 27 28 28 28 29 30 30 30 31 31 31 30
26 26 26 27 27 27 27 27 27 28 28 29 29 29 29 29 29 30 30 30 30 30 29 27 27 27 27 27 28 28 28 28 28 28 28 30 30 30 31 31 31 30
27 28 28 28 28 29 30 30 30 30 30 30 30 31 31 31 31 31 31 31 31 31 30 29 29 29 29 28 29 29 29 29 29 29 29 30 31 31 31 32 31 31
28 29 30 30 31 31 31 31 31 31 31 31 32 32 32 32 32 33 32 32 32 32 32 32 31 31 31 30 30 30 30 31 31 31 30 30 31 31 31 32 32 31
29 30 31 32 33 33 33 32 32 32 32 32 33 33 33 33 34 34 34 34 34 34 34 34 34 33 33 32 31 31 31 32 33 33 32 32 32 32 32 32 32 32
30 32 33 34 34 34 34 33 33 33 33 33 33 34 34 34 35 35 36 36 36 36 36 36 35 35 34 34 33 33 32 33 33 34 34 33 33 34 33 32 32 32
32 33 34 34 34 34 34 34 34 34 34 34 34 34 35 35 36 36 37 37 38 37 37 37 37 36 36 36 35 35 34 34 34 34 34 34 34 35 35 34 33 33
33 34 34 35 35 35 35 35 35 35 35 35 35 35 36 36 37 38 38 39 39 39 39 39 38 38 37 37 37 36 36 36 35 35 35 35 35 35 36 36 34 34
34 35 35 36 35 35 36 36 36 36 36 36 36 36 37 38 39 39 40 40 40 41 41 41 41 40 40 39 39 38 37 37 37 36 36 36 35 36 37 37 36 35
36 36 36 36 36 36 36 36 36 36 37 37 37 38 39 39 40 40 41 41 42 42 42 42 43 43 42 42 41 40 40 39 39 39 38 37 36 36 37 38 38 37
37 38 37 37 37 37 37 37 37 37 37 38 38 39 40 40 41 41 42 42 43 43 43 43 44 44 44 43 43 43 42 42 41 41 40 39 38 37 37 38 38 38
38 39 38 38 38 38 38 37 37 38 38 39 39 40 41 41 42 42 43 43 43 43 44 44 44 44 44 44 44 43 43 43 43 42 42 42 41 39 38 38 39 39
39 39 39 39 40 39 38 38 38 38 39 39 40 41 41 42 42 43 43 43 43 44 44 44 45 45 45 45 45 45 44 44 44 44 44 44 44 43 41 40 40 40
40 40 41 41 41 40 39 39 38 39 39 40 40 41 42 42 43 43 43 44 44 44 44 45 45 45 45 45 46 46 46 46 46 46 46 46 46 45 45 43 41 41
40 41 42 41 40 39 39 39 39 39 40 40 41 41 42 42 43 43 44 44 45 45 46 46 47 47 47 47 47 47 47 47 47 47 47 47 47 47 47 46 45 43
41 42 41 40 40 39 39 39 40 40 40 40 41 41 42 43 43 43 44 44 45 45 46 46 47 47 47 48 48 47 47 47 47 47 47 48 48 48 48 49 48 47
42 41 40 39 39 39 39 40 40 40 40 41 41 41 41 41 42 42 42 43 43 44 45 46 47 48 48 49 50 50 50 50 49 49 49 49 49 49 49 50 50 50
40 39 39 39 39 39 40 40 40 39 39 39 39 39 40 40 41 42 43 44 45 46 47 48 49 50 51 52 53 54 54 55 55 54 53 53 52 52 52 51 51 51
38 38 38 38 39 39 39 39 38 38 38 38 39 39 41 42 43 44 45 46 46 47 48 49 51 52 53 54 55 57 58 58 59 59 59 58 57 57 56 55 55 54
37 37 38 38 39 38 38 37 37 37 38 39 40 41 42 43 44 45 45 46 47 48 50 51 52 53 54 55 56 56 57 58 59 59 60 60 59 59 59 59 58 58
37 37 38 38 38 37 37 37 37 38 39 40 41 41 42 43 43 45 46 47 48 49 50 51 52 52 53 54 54 55 55 56 57 58 59 60 59 59 58 58 59 59
37 38 38 37 37 36 37 37 38 39 39 40 40 41 42 43 44 45 46 47 48 49 50 51 52 52 53 54 54 55 56 56 57 58 59 61 61 61 61 59 58 58
37 37 36 36 36 36 37 37 38 38 39 39 40 41 42 43 44 45 46 47 48 50 51 52 52 53 54 55 55 56 56 57 58 58 59 60 62 63 64 63 62 60
36 35 35 35 35 36 36 36 37 37 38 39 40 41 43 44 45 46 47 48 49 51 52 53 53 54 55 55 56 56 57 58 58 59 60 61 62 63 64 65 65 64
34 33 34 34 34 35 35 35 36 37 38 39 40 42 43 44 46 47 48 49 50 51 52 53 53 54 54 55 56 57 58 59 59 60 61 62 62 62 63 64 65 65
32 32 33 33 33 34 34 35 36 37 38 40 41 42 44 45 46 47 48 49 50 51 51 52 52 53 54 55 56 57 58 59 61 62 62 63 63 63 62 62 63 64

ECMWFNIL_500_spd_090.txt.gz
Wind_Speed
30 30 31 31 31 31 30 30 30 30 30 30 30 29 29 29 29 29 29 29 28 28 28 28 28 28 29 29 29 30 30 31 31 32 32 32 32 32 31 31 31 31
30 31 31 32 32 32 32 32 32 31 31 31 31 31 31 31 31 31 31 31 30 30 29 29 29 30 30 31 31 32 32 32 33 33 34 34 34 33 33 33 32 32
31 31 32 33 33 33 33 33 33 33 33 33 33 33 33 33 33 33 33 32 32 31 31 31 31 31 32 32 33 33 34 34 34 35 35 36 36 35 35 35 34 34
32 32 33 34 34 34 33 33 34 34 34 35 35 35 35 35 35 35 34 34 33 33 32 32 32 33 33 34 34 35 35 35 35 36 36 37 37 37 37 37 36 36
33 33 34 34 33 33 34 34 34 35 36 36 36 36 36 36 36 36 36 35 34 33 33 33 33 34 34 35 36 36 37 37 37 37 37 37 38 39 39 39 38 37
33 34 34 34 34 34 34 35 35 36 37 38 38 37 37 37 37 37 36 36 35 35 35 35 35 35 36 36 37 38 38 38 39 39 39 39 39 40 40 40 39 39
33 34 34 34 35 35 36 36 36 37 38 39 38 38 38 38 38 37 37 37 36 36 36 36 36 36 37 38 38 39 39 40 40 40 40 40 40 41 41 41 41 40
34 34 34 36 37 37 38 38 38 38 39 39 39 39 39 39 38 38 38 38 37 38 38 38 38 38 38 39 40 41 41 42 42 42 42 42 42 42 42 42 42 42
34 35 36 37 38 39 40 40 40 40 40 40 39 40 39 39 39 39 38 38 38 38 39 39 39 39 40 40 41 41 42 43 43 43 43 43 43 43 42 42 42 42
35 35 37 38 39 40 41 41 41 40 40 41 41 40 40 39 39 39 38 38 39 39 39 39 40 40 41 42 42 43 43 43 43 44 44 44 44 43 43 43 43 42
35 37 38 39 40 40 40 40 40 40 41 41 41 41 40 39 39 39 39 39 39 39 40 40 41 41 42 43 43 44 44 45 44 44 44 45 45 45 45 44 44 44
37 38 39 39 39 39 40 40 40 40 41 41 41 40 40 39 38 38 38 39 39 39 40 40 41 41 42 43 43 44 44 44 44 44 44 44 45 45 45 45 45 46
37 37 38 38 39 39 39 40 40 41 41 41 40 40 39 38 38 38 38 38 38 39 39 39 39 40 40 41 41 41 42 42 42 43 43 43 44 44 45 45 46 46
35 36 37 38 39 39 39 40 41 41 41 40 39 38 38 38 38 37 37 37 37 37 37 37 38 38 39 39 40 41 42 43 43 44 44 45 45 46 46 46 47 47
35 37 38 39 39 39 40 40 41 40 39 38 38 38 37 37 36 36 35 35 36 36 37 38 39 40 41 42 43 43 44 45 46 47 48 48 48 49 49 50 50 50
37 38 39 39 39 40 40 40 40 38 38 37 37 37 36 35 35 35 35 36 37 38 40 41 42 43 44 45 46 47 48 49 50 50 50 51 51 51 51 51 52 52
38 39 39 39 40 40 39 39 37 36 36 37 37 36 35 35 35 36 37 38 39 40 41 43 44 45 47 48 49 50 51 51 51 51 51 51 51 51 50 50 50 51
39 39 39 39 39 38 37 36 35 36 36 36 36 35 35 36 37 38 39 39 40 41 43 44 45 46 48 49 49 50 50 51 51 51 51 51 51 51 51 51 51 51
37 38 38 38 37 36 35 34 35 36 36 36 35 36 36 37 38 39 40 40 41 42 43 44 45 46 47 48 49 49 50 51 51 52 52 52 53 53 53 53 53 53
36 36 36 35 35 34 34 34 35 36 36 36 36 37 37 38 39 40 40 41 42 43 44 45 45 46 47 48 49 50 51 51 52 53 53 54 54 55 55 55 56 56
34 34 34 33 33 33 34 35 35 35 35 36 37 37 38 38 39 40 41 42 43 44 44 45 46 47 48 49 49 50 51 52 53 54 54 55 56 56 57 58 58 59
32 32 32 32 32 33 34 34 34 35 35 36 37 37 38 38 39 40 41 42 43 44 45 46 47 48 49 49 50 51 52 53 53 54 55 56 57 58 58 59 60 61
31 31 32 32 33 33 33 33 34 35 35 36 36 37 38 38 39 40 41 42 44 45 46 47 48 49 50 50 51 51 52 53 54 55 55 56 57 58 59 60 61 62
31 31 31 32 32 32 32 33 34 35 35 35 36 37 37 38 40 41 42 43 44 46 47 48 49 50 50 51 52 52 53 53 54 55 56 56 57 58 59 61 62 64
30 30 31 31 31 32 32 33 33 34 34 35 36 37 38 39 40 42 43 44 45 46 47 48 49 50 50 51 52 53 54 54 55 55 56 57 58 59 60 62 63 65
29 29 30 30 30 31 32 32 32 32 33 35 36 37 39 40 41 42 44 45 45 46 47 48 49 50 51 52 52 53 54 55 55 56 56 57 58 60 61 63 65 67

ECMWFNIL_500_spd_093.txt.gz
Wind_Speed
25 26 26 27 28 29 30 31 32 33 33 33 33 33 33 33 33 33 33 32 32 32 33 33 33 33 33 33 32 32 32 32 32 32 32 32 33 33 34 35 35 36
26 27 28 29 30 31 32 33 34 34 34 35 35 34 34 34 34 34 34 35 34 34 34 34 35 35 35 34 34 33 33 33 33 33 33 33 33 34 34 35 36 37
28 28 29 30 31 32 33 34 35 36 36 36 36 36 35 35 35 36 37 37 37 37 36 36 36 36 36 35 35 34 34 34 34 34 34 34 34 34 35 36 36 37
29 29 30 32 32 33 34 35 37 37 37 38 37 37 37 37 38 38 38 39 39 38 38 38 37 37 37 36 36 35 35 35 35 35 35 35 35 35 36 37 37 38
30 30 31 32 33 34 35 36 38 38 38 39 39 39 39 40 40 40 40 40 40 39 39 39 38 38 37 37 37 36 36 36 36 36 36 36 36 36 37 37 38 38
31 32 32 33 34 35 36 38 39 39 39 39 40 40 41 42 42 41 40 40 40 40 40 39 39 38 38 38 37 37 37 37 37 37 37 37 37 37 37 38 39 39
31 32 33 34 35 36 37 38 39 39 40 40 40 41 42 42 42 41 41 41 40 40 40 39 39 39 38 38 38 38 37 37 37 37 37 38 38 39 39 40 41 41
31 32 33 34 35 36 37 38 39 40 40 41 41 42 43 42 41 41 42 42 41 40 39 39 38 38 38 38 38 38 37 37 37 38 38 39 39 40 40 41 42 43
31 32 33 34 35 36 37 38 39 40 41 42 42 42 42 41 41 42 42 41 41 40 39 38 38 38 37 37 37 38 38 38 38 39 39 40 40 41 41 42 43 43
31 32 33 34 35 36 37 39 40 41 42 42 42 41 41 41 41 42 42 41 40 39 39 38 38 37 37 37 37 37 38 38 38 38 39 39 40 41 41 42 43 43
31 32 33 34 35 36 38 39 40 41 41 40 40 41 41 41 41 41 41 40 39 39 38 37 37 37 36 36 36 37 37 37 38 38 38 39 40 41 42 43 44 44
31 32 33 35 36 37 38 39 40 40 39 39 40 41 40 41 41 41 40 39 38 37 37 36 35 35 35 35 36 36 37 38 39 40 40 41 42 43 44 45 46 47
32 33 34 36 36 37 38 38 38 38 39 40 40 40 40 41 41 39 38 37 37 36 35 34 34 35 35 36 37 38 39 40 41 42 43 44 45 46 47 48 49 49
33 34 35 36 36 36 37 37 37 38 39 40 40 40 41 40 39 38 37 36 35 34 34 34 35 36 37 38 39 40 41 42 43 44 45 45 46 47 48 48 49 50
34 35 35 35 35 36 36 37 38 39 39 40 40 40 40 38 37 36 36 35 34 35 35 36 37 38 39 40 41 42 43 44 45 45 46 46 46 47 47 48 48 49
35 35 35 35 35 36 36 37 38 38 39 39 39 39 37 36 36 35 35 35 35 35 36 38 39 40 41 42 43 43 44 45 45 46 46 46 47 47 47 48 48 49
33 34 34 34 35 35 35 36 37 37 38 38 38 36 35 35 35 35 35 35 36 37 38 39 40 41 42 43 43 44 45 45 46 46 47 47 48 48 48 49 49 50
31 31 32 32 33 33 34 35 36 37 37 36 35 35 35 35 35 35 35 36 37 38 38 39 40 41 42 43 44 45 46 46 47 47 48 48 49 49 50 50 50 51
28 29 30 31 32 33 34 34 35 35 35 34 34 34 35 35 35 35 36 36 37 38 38 39 40 41 42 43 45 46 47 47 48 49 49 50 50 50 50 51 51 51
27 29 30 31 32 32 33 33 34 34 34 34 34 34 34 34 35 35 36 36 37 37 38 39 40 41 42 44 45 46 47 48 48 49 50 50 50 51 51 51 52 53
28 29 29 30 30 31 32 33 33 33 33 34 34 34 34 34 35 35 35 36 37 37 38 40 41 42 43 44 45 46 47 47 48 49 50 50 51 52 52 53 53 54
28 28 29 29 30 31 32 32 32 32 33 33 33 33 34 34 34 35 35 36 37 38 39 40 41 42 43 44 45 45 46 47 48 49 50 51 52 53 53 54 55 55
28 28 29 29 30 30 31 31 31 32 32 32 32 33 33 33 33 34 35 36 37 38 40 41 42 43 43 44 44 45 46 47 48 50 51 52 52 53 54 54 55 56
27 28 28 29 29 30 30 30 30 31 31 31 32 32 32 32 33 34 35 36 37 39 40 41 42 42 43 44 44 45 46 48 49 50 51 52 52 53 53 54 55 57
27 28 28 29 29 30 30 30 30 30 30 31 31 31 31 32 33 34 35 36 38 39 40 40 41 42 43 44 45 46 47 49 50 51 51 51 52 52 53 54 55 57
27 28 28 28 29 28 28 29 29 29 29 30 30 31 31 32 33 34 36 37 38 38 39 39 40 42 43 44 46 47 49 50 50 50 51 51 52 53 53 55 56 58

ECMWFNIL_500_spd_096.txt.gz
Wind_Speed
22 23 23 24 25 25 26 27 28 28 29 31 32 33 33 33 34 34 35 35 35 35 35 35 35 35 34 34 35 35 35 36 36 36 37 37 37 37 37 37 37 36
23 24 25 25 26 26 27 28 28 29 30 31 33 34 34 35 35 36 37 37 37 37 37 37 36 35 35 35 35 36 36 36 37 37 37 37 37 38 38 38 38 38
25 26 26 27 27 28 28 29 29 30 31 32 34 35 35 36 37 37 38 38 39 39 39 38 36 36 36 36 37 37 37 37 37 37 37 37 38 38 38 39 39 39
27 28 28 29 29 29 29 30 30 31 32 34 35 36 37 37 38 39 39 39 40 40 40 38 37 37 38 38 38 38 37 37 37 37 38 37 38 38 39 39 40 40
27 28 29 30 30 31 31 31 31 32 34 35 36 38 38 39 39 40 40 41 41 41 40 38 38 39 39 39 38 38 37 37 37 37 37 37 38 38 39 39 40 40
27 28 29 30 31 31 32 32 33 34 35 36 38 39 39 39 40 40 41 41 41 40 39 39 39 40 40 39 38 37 37 37 37 37 37 38 38 38 39 39 40 40
29 30 30 30 31 32 32 33 34 35 36 37 38 39 39 40 40 41 42 41 40 39 39 39 40 40 40 39 38 38 37 37 37 37 37 37 38 38 39 39 40 40
32 31 31 31 32 32 33 34 34 35 36 37 38 38 39 40 41 42 42 41 40 40 40 40 40 40 39 38 38 38 38 37 37 37 37 37 37 37 38 39 39 40
32 32 32 32 32 33 33 34 34 35 36 37 37 38 39 41 42 42 41 40 40 40 40 40 40 40 39 38 38 38 38 37 36 36 36 36 37 38 38 39 40 41
31 31 30 31 32 32 33 34 34 35 35 36 37 38 40 41 41 40 40 40 40 40 40 40 40 39 39 38 38 38 37 37 37 37 37 38 38 39 40 41 42 44
30 29 29 30 31 32 33 33 34 34 35 36 37 39 40 40 39 39 39 40 40 40 40 40 40 39 39 39 38 38 38 38 38 39 39 40 41 42 43 44 45 46
30 29 28 29 30 31 32 33 34 34 35 36 37 38 38 38 39 39 40 40 40 40 40 40 39 39 39 39 38 39 39 39 40 41 42 43 44 45 46 46 47 48
30 30 29 30 30 32 33 34 34 35 36 36 37 37 37 38 38 39 40 40 40 40 40 39 39 39 39 39 39 40 40 41 42 43 44 45 45 46 46 47 48 49
29 30 30 30 31 32 34 34 35 35 35 36 36 37 37 37 38 39 40 40 40 39 39 39 39 39 39 40 40 41 42 43 44 44 45 45 46 46 47 48 48 49
29 29 29 31 32 33 34 35 35 34 35 35 36 36 36 37 38 39 39 39 38 38 39 40 40 40 40 40 41 42 43 44 44 45 45 46 46 47 48 48 49 49
29 29 30 31 33 34 34 33 33 33 34 34 35 35 36 37 38 38 38 38 38 39 40 40 40 40 41 42 43 43 44 44 45 45 46 46 47 47 48 49 50 50
30 31 32 32 33 33 31 30 31 31 33 33 34 35 36 36 37 37 37 37 38 39 40 40 40 41 42 43 43 44 44 44 45 46 47 47 48 48 49 49 49 49
29 30 30 29 29 29 28 28 30 31 32 33 34 34 35 35 36 36 37 38 39 39 39 40 41 42 43 43 43 43 44 45 46 47 47 48 48 49 48 48 47 47
26 25 25 25 25 26 27 28 30 31 32 32 33 33 34 35 35 36 37 38 38 39 39 40 41 42 42 43 43 44 45 46 47 47 48 48 48 47 47 47 47 47
27 25 24 25 25 26 27 28 29 30 30 31 32 33 33 34 35 36 37 37 38 39 39 40 40 41 42 42 43 45 46 47 47 47 47 47 47 47 47 47 47 48
26 25 24 24 24 25 26 27 28 29 29 31 32 32 33 34 35 36 36 37 38 38 39 39 39 40 41 42 44 45 45 46 46 46 46 46 46 47 47 48 48 49
24 24 23 23 24 25 26 27 28 29 30 31 32 32 33 34 35 36 37 37 38 38 38 39 39 40 41 42 43 44 44 44 43 44 44 45 46 47 47 48 48 49
23 23 23 24 25 26 27 27 29 30 30 31 31 32 33 34 35 36 36 37 37 37 38 38 39 40 41 42 42 42 42 42 42 43 45 46 46 46 46 47 48 49
22 22 23 24 25 26 27 28 29 29 29 30 31 32 33 34 35 35 35 36 36 37 37 38 39 40 41 41 40 40 40 41 42 44 45 45 45 45 46 47 48 49
22 23 24 25 26 27 27 28 28 28 29 30 31 32 33 34 34 34 34 35 35 36 38 39 40 40 39 39 39 39 40 42 43 44 44 44 44 44 46 47 48 49
22 23 24 25 26 26 27 27 27 28 29 30 31 32 33 33 33 33 34 34 36 37 38 39 39 38 38 38 38 39 41 42 43 43 43 43 43 45 46 47 48 50

ECMWFNIL_500_spd_099.txt.gz
Wind_Speed
21 22 23 24 25 26 27 28 29 29 30 30 31 32 32 33 34 34 34 34 34 35 36 37 37 38 39 39 39 38 37 37 37 38 38 38 39 39 39 39 39 40
22 23 24 25 26 27 27 28 29 29 30 31 32 33 33 34 34 35 35 36 36 36 37 38 39 39 39 39 39 38 38 38 38 39 39 40 39 39 39 40 40 40
24 25 26 26 27 27 27 28 29 30 30 31 33 33 34 35 35 36 37 37 38 38 39 39 40 41 41 40 39 39 39 39 39 40 40 40 39 39 39 39 40 40
25 26 26 27 27 28 28 29 29 30 31 32 33 34 35 35 36 37 38 39 39 39 40 41 41 42 41 40 40 40 40 40 40 40 40 40 39 39 39 39 39 40
24 25 26 26 27 28 29 29 30 31 32 33 34 35 36 36 37 38 39 40 40 40 41 42 42 42 41 41 41 41 40 40 40 40 40 39 39 39 39 39 39 40
25 26 27 28 29 30 31 32 32 33 34 34 35 36 36 37 38 39 40 40 40 41 42 42 43 42 41 41 41 41 41 40 40 40 40 39 39 39 39 39 40 40
28 29 30 31 32 32 33 34 34 35 35 35 36 36 37 37 38 39 40 40 40 41 42 42 42 41 41 41 41 41 41 41 40 40 40 40 40 40 40 41 41 42
29 30 31 31 32 32 33 34 34 35 35 35 36 36 37 38 38 39 40 40 40 41 42 42 41 41 41 41 41 41 41 40 40 40 40 41 41 42 42 42 43 43
29 30 30 31 32 33 33 34 34 34 34 35 35 36 37 38 39 39 39 40 41 41 42 41 41 41 42 42 41 41 41 40 40 41 41 42 42 43 43 43 44 45
29 30 31 32 33 33 34 34 33 33 34 34 35 35 37 38 39 39 39 40 41 41 41 41 41 41 42 42 41 41 41 41 41 42 43 43 43 44 44 45 46 47
29 30 31 32 33 33 34 34 33 33 33 33 34 35 37 38 39 39 39 40 40 40 40 40 41 42 42 42 41 41 41 42 43 44 44 44 44 45 46 47 48 48
29 30 30 30 31 32 33 33 33 33 33 33 34 36 37 38 38 38 39 39 39 40 40 41 42 42 42 41 41 42 42 44 44 45 45 45 46 47 48 49 49 49
29 29 29 30 31 31 32 32 33 34 34 34 35 37 38 38 37 38 38 38 39 40 40 41 42 42 41 41 42 43 44 44 45 45 46 47 48 49 49 49 50 50
30 30 30 31 32 32 32 32 32 33 34 35 37 38 37 36 36 37 37 38 39 40 41 41 41 41 41 42 43 44 44 44 45 46 47 48 49 49 49 50 50 51
30 30 30 31 31 31 31 32 33 34 35 36 37 37 36 34 35 36 37 38 39 40 40 41 41 41 42 42 43 43 44 45 46 47 48 48 49 49 50 51 52 52
30 30 29 30 30 29 29 31 33 35 35 36 35 34 33 33 34 36 37 38 39 39 40 40 40 41 41 42 43 43 45 46 47 47 48 48 49 50 51 52 53 53
31 29 28 28 28 27 27 28 29 30 31 32 31 31 32 34 35 36 37 37 38 39 39 40 40 40 41 42 43 44 46 46 47 47 48 49 50 51 52 52 53 53
31 30 29 29 28 28 27 27 27 27 28 29 30 31 32 34 35 35 36 37 38 38 39 39 39 40 41 43 44 45 46 46 47 48 49 50 51 52 52 51 51 50
31 31 30 30 30 30 28 26 26 28 29 30 31 32 32 33 33 34 35 36 37 37 38 38 40 41 42 44 44 45 46 46 48 49 50 51 52 51 51 50 49 48
27 27 27 28 29 29 28 26 25 27 29 30 30 30 31 32 33 34 35 35 36 36 37 39 41 42 43 43 44 45 46 47 49 50 50 51 50 50 49 48 48 48
25 26 27 28 27 27 26 25 26 27 28 28 29 29 31 32 33 33 34 34 35 36 38 40 41 42 42 43 44 45 47 48 49 49 49 49 48 48 47 47 47 47
26 28 29 27 26 25 25 25 25 26 27 28 29 30 31 31 32 32 33 34 36 37 39 40 40 41 42 43 44 46 47 48 48 47 47 46 46 46 46 46 45 45
27 27 27 26 25 25 24 24 25 26 27 28 29 30 31 31 31 32 33 35 36 38 38 39 40 41 42 43 45 46 46 46 45 45 44 45 45 45 44 43 43 44
26 26 25 25 24 24 24 24 25 26 27 28 29 30 30 31 31 33 34 35 37 37 38 38 39 41 42 43 44 44 44 43 43 42 43 43 43 42 41 41 42 44
25 24 24 23 23 23 24 24 25 26 27 28 29 30 30 31 32 33 34 35 36 37 37 38 39 41 42 43 43 42 41 41 41 41 42 41 40 40 40 42 43 44
24 24 23 23 23 23 24 25 26 27 28 28 29 30 30 31 32 34 34 35 36 36 37 38 40 41 41 41 41 40 39 39 40 40 40 39 38 39 40 42 43 44

ECMWFNIL_500_spd_102.txt.gz
Wind_Speed
17 18 18 19 20 20 21 22 23 24 24 25 26 27 28 29 31 32 33 34 35 36 36 36 37 38 38 38 38 38 39 39 40 40 40 40 40 41 41 41 40 40
19 20 21 21 21 22 22 24 25 26 27 27 28 29 30 31 32 33 34 35 36 37 38 39 39 39 39 39 39 39 40 40 40 40 41 41 41 41 41 41 41 40
20 20 21 22 22 23 24 26 27 28 28 29 30 30 31 32 34 35 37 38 38 39 39 40 40 40 39 39 39 40 41 41 41 41 41 42 42 42 41 41 41 40
20 20 21 22 23 25 26 27 28 29 30 31 32 33 34 35 36 37 38 39 39 39 40 40 40 40 39 40 40 41 42 41 41 41 42 42 42 42 42 41 41 40
21 21 22 23 24 26 27 28 29 30 31 33 33 34 35 36 37 37 38 39 39 39 40 40 40 40 40 41 41 42 42 41 42 42 43 43 43 42 42 41 41 41
21 23 24 25 27 28 29 30 31 31 32 33 34 35 36 36 37 37 38 38 39 39 39 39 40 40 41 41 42 42 41 41 42 43 43 43 43 43 42 41 42 42
24 25 26 27 29 29 30 31 31 32 33 34 35 36 37 37 37 37 38 38 38 38 39 39 40 41 41 41 41 41 41 42 43 44 44 44 44 43 42 43 43 43
26 27 28 29 29 30 31 31 32 33 34 35 37 37 37 37 37 37 37 37 38 38 39 40 41 41 40 40 40 41 42 43 44 45 45 44 44 44 44 44 44 44
27 28 28 29 30 31 32 32 33 34 35 36 36 36 36 36 36 36 37 37 38 39 40 41 40 40 39 39 40 42 43 44 45 45 45 44 45 45 45 45 45 45
27 28 29 30 31 32 32 33 34 34 35 35 36 36 36 36 36 37 38 38 39 40 41 41 40 39 39 40 42 43 44 45 45 45 45 45 45 45 45 46 46 47
28 29 30 30 31 31 32 33 34 34 35 35 36 36 36 37 38 39 39 40 40 41 41 39 38 38 40 41 43 44 44 45 45 45 45 45 45 45 46 47 48 49
29 30 30 30 31 31 32 33 33 34 34 35 36 36 37 38 39 39 40 41 41 40 38 36 36 38 41 42 43 44 44 44 45 45 45 45 45 47 48 49 49 50
29 30 30 30 31 32 32 32 33 33 34 34 35 35 36 37 39 40 40 40 39 36 34 35 38 40 41 42 43 43 44 44 44 44 44 45 47 48 49 49 49 50
30 31 30 31 31 32 32 32 32 33 33 34 34 34 34 35 35 36 36 35 33 33 35 37 39 40 41 42 42 43 43 43 43 44 45 46 47 48 49 49 50 51
31 31 31 31 32 32 33 33 32 32 33 33 33 33 34 33 31 30 30 31 32 35 37 39 39 40 41 41 42 42 42 42 43 44 46 46 47 48 48 50 51 52
32 31 31 31 32 32 33 33 32 32 33 33 33 34 35 34 31 30 30 32 34 36 38 38 39 40 40 41 41 41 41 43 44 45 46 46 47 48 49 50 52 53
32 31 31 31 32 32 32 32 32 32 32 33 34 35 36 35 33 32 32 33 35 36 37 37 38 38 39 39 39 40 42 43 44 45 45 46 47 49 50 52 52 52
32 31 31 31 31 31 31 31 30 30 31 32 34 34 34 33 32 32 33 33 34 35 36 36 37 37 38 39 40 42 43 43 44 45 46 47 49 50 51 52 51 51
31 31 30 30 31 31 30 30 29 30 31 32 31 31 31 31 31 31 32 33 34 34 35 36 36 37 38 39 41 42 43 43 44 46 47 49 50 50 50 50 49 49
31 30 30 30 30 30 29 30 30 31 31 31 30 30 30 30 30 31 32 33 33 34 35 35 36 37 39 40 41 42 43 44 45 47 48 49 49 49 48 48 47 47
30 29 29 29 29 29 29 30 31 31 31 30 30 29 29 29 30 31 31 32 33 34 34 35 36 38 39 40 41 42 43 45 46 47 48 48 48 47 47 46 46 45
29 29 29 28 28 29 29 29 30 30 30 29 29 29 29 29 30 31 31 32 33 34 34 36 37 38 39 40 41 42 44 45 47 47 47 46 46 45 45 44 44 43
29 29 28 28 28 28 28 29 29 29 29 28 28 28 28 29 30 31 32 32 33 34 35 36 38 38 39 40 42 43 45 45 46 45 45 44 43 43 42 41 41 42
29 29 28 28 28 28 28 28 28 28 28 28 28 28 28 29 30 31 32 32 33 34 35 37 38 38 39 40 42 43 44 44 44 43 42 42 41 41 40 40 40 41
29 28 28 28 28 28 28 28 28 27 27 27 27 27 28 29 30 31 32 32 33 34 36 37 37 38 39 40 42 43 43 42 41 40 40 39 39 39 39 39 40 41
29 28 28 28 28 28 28 27 27 27 26 26 27 27 28 29 30 31 31 32 33 35 36 36 37 38 39 41 41 41 40 39 38 38 38 37 37 37 38 39 40 40

ECMWFNIL_500_spd_105.txt.gz
Wind_Speed
11 13 14 15 16 16 17 19 20 21 22 24 25 26 26 27 27 28 30 31 33 34 35 36 36 36 36 37 36 36 36 35 36 36 37 38 37 38 39 40 41 41
13 15 16 17 18 18 19 19 21 22 23 24 25 26 27 27 29 30 32 33 34 34 35 35 36 36 36 36 36 36 36 36 37 38 38 38 38 39 40 41 42 42
15 16 17 17 17 18 18 19 20 22 23 24 25 27 28 29 30 31 32 33 34 34 35 35 35 35 36 36 36 36 36 37 38 38 38 38 38 40 42 43 44 44
16 16 16 16 17 17 19 20 22 23 25 26 27 28 29 30 31 32 33 34 34 35 35 35 35 35 35 36 36 36 37 38 39 38 38 38 40 42 44 45 45 44
15 15 15 16 17 19 21 23 25 26 27 27 28 29 29 30 31 32 33 34 35 35 35 35 35 35 35 36 36 37 38 39 39 38 39 40 42 44 45 45 45 44
15 16 17 18 20 22 24 25 26 27 27 28 28 29 29 30 31 33 34 35 35 35 34 34 35 35 36 36 37 38 39 39 39 39 40 42 45 46 46 46 46 46
17 18 20 21 22 24 25 26 27 27 28 28 29 29 30 31 32 34 35 35 34 34 34 35 35 36 36 37 38 38 38 38 38 40 42 44 45 45 46 46 47 47
20 21 22 23 24 25 26 27 28 28 29 29 30 30 31 32 33 34 34 34 34 34 34 35 36 36 36 37 38 37 36 37 39 42 43 44 45 45 46 46 46 46
21 22 23 23 24 26 27 28 29 29 29 30 30 31 32 33 33 33 34 34 33 33 34 35 35 36 36 37 35 34 36 39 41 43 43 44 45 45 45 45 46 47
21 22 23 24 25 26 28 29 29 30 30 31 31 32 32 33 33 33 33 33 32 32 34 34 35 35 34 33 33 35 39 41 42 43 44 44 45 45 45 45 46 48
22 23 24 25 26 27 29 30 30 31 31 31 32 32 32 32 32 32 32 31 31 32 33 34 34 33 32 32 35 39 41 42 42 43 44 44 44 44 45 46 48 49
24 25 25 26 27 28 30 31 31 31 32 32 32 32 32 32 32 32 31 31 31 33 34 35 35 34 34 36 39 41 41 41 42 43 43 43 44 45 46 47 48 49
26 27 27 28 29 30 31 32 32 32 32 33 33 32 32 32 31 31 31 31 33 34 35 36 35 36 37 39 40 40 40 41 42 42 43 44 45 47 48 48 48 49
28 29 29 30 31 32 32 33 33 33 33 33 33 32 32 31 30 30 31 32 34 34 35 35 35 36 38 39 39 39 40 41 41 42 44 45 46 47 48 48 48 49
30 30 31 31 32 33 33 33 33 33 34 33 32 32 31 30 29 30 31 32 33 33 33 34 35 36 37 37 38 39 40 41 42 44 45 46 46 47 47 48 48 49
31 31 32 33 33 34 33 33 33 34 34 33 32 30 29 29 30 31 31 31 31 32 33 33 34 35 36 37 38 39 40 42 43 44 45 45 46 46 47 48 49 49
31 33 33 33 34 34 34 33 33 34 33 32 31 29 29 30 30 30 30 30 31 31 32 33 33 34 35 37 38 39 41 42 43 44 45 45 45 46 47 48 49 49
32 33 34 34 34 34 34 33 33 34 33 31 30 29 29 29 29 29 29 30 30 30 31 32 33 34 36 37 38 40 41 42 43 44 44 45 45 46 47 47 47 46
33 34 34 34 34 35 34 33 33 33 32 30 29 29 29 28 28 29 29 29 29 30 30 31 33 34 36 37 39 40 41 42 43 44 44 45 45 46 46 45 44 44
34 35 35 35 35 34 34 33 33 32 30 29 29 28 28 28 28 28 28 28 29 29 30 32 33 35 36 38 39 40 41 42 43 43 44 45 45 45 44 43 42 41
35 35 35 35 34 34 34 33 32 30 29 28 28 28 27 27 27 27 27 28 28 29 30 32 34 35 37 38 39 40 41 42 42 43 44 44 44 43 42 41 40 40
36 36 35 35 34 34 33 32 31 29 28 28 28 27 27 27 27 27 27 28 28 29 31 33 34 36 37 38 39 40 41 41 41 43 43 43 42 41 40 39 39 40
36 36 35 35 34 33 32 31 30 28 28 27 28 27 27 27 27 27 27 28 29 30 31 33 35 36 37 38 39 40 40 40 41 42 42 41 39 38 38 38 39 39
36 36 35 34 33 32 31 31 30 29 28 28 28 27 27 26 26 27 27 28 29 30 32 34 35 36 37 38 38 39 39 40 41 41 40 38 37 37 37 38 38 39
37 37 35 33 32 31 31 30 30 29 28 28 28 27 27 26 26 26 27 28 29 31 32 34 35 36 37 37 38 38 39 40 40 39 37 36 36 36 37 37 37 37
37 35 33 32 31 31 31 30 29 28 28 28 28 27 26 26 26 27 27 28 29 31 32 34 35 36 36 37 37 38 38 39 38 36 35 34 35 36 36 37 37 37

ECMWFNIL_500_spd_108.txt.gz
Wind_Speed
10 11 12 12 12 13 13 13 14 16 17 19 20 20 21 23 24 25 26 27 28 28 29 30 30 31 32 32 32 32 32 32 32 33 33 35 36 36 37 36 36 37
11 12 11 11 11 12 14 14 15 16 17 18 19 21 22 23 25 26 27 28 28 29 30 30 31 32 32 32 32 32 32 32 33 34 34 35 37 37 37 36 37 40
12 11 11 11 11 12 13 14 15 16 17 19 20 22 23 25 26 26 27 28 28 29 30 31 32 33 33 32 32 32 32 33 33 34 35 36 37 36 36 38 40 42
12 11 11 11 11 12 12 13 15 16 18 20 21 23 24 25 26 27 27 28 29 30 31 32 33 33 32 32 32 32 32 33 35 36 37 37 36 36 38 41 43 44
11 10 10 10 11 11 12 14 16 18 20 21 23 24 25 26 27 28 28 29 30 31 32 32 32 32 31 31 31 32 33 34 36 36 36 35 35 38 41 43 44 44
10 10 10 10 11 12 13 15 17 19 21 23 24 25 26 27 28 29 30 31 31 32 32 32 31 31 31 31 31 32 33 34 35 34 34 35 38 41 42 43 44 45
10 10 11 12 13 13 15 17 19 21 22 24 25 26 27 28 29 30 31 32 32 32 32 31 31 31 31 31 31 32 33 34 34 33 35 38 40 41 42 43 44 45
11 12 13 13 14 15 17 19 21 22 24 26 27 28 29 30 31 32 32 33 33 32 32 31 31 31 31 31 32 32 33 33 34 35 38 40 40 41 42 43 45 46
12 13 14 15 15 17 18 20 22 24 25 27 28 29 30 31 32 33 33 33 33 32 31 31 30 30 31 31 32 32 32 33 34 36 38 39 40 41 43 44 46 47
13 14 15 16 17 18 20 22 24 25 26 28 29 30 31 32 33 33 34 33 32 31 30 29 29 30 31 31 31 31 32 33 34 36 37 38 40 42 44 45 47 48
14 15 16 17 19 20 22 23 25 26 28 29 30 31 32 33 33 34 34 33 31 30 29 29 30 31 31 30 30 31 31 32 34 35 37 39 41 43 45 46 47 48
15 17 18 20 21 23 24 25 26 28 29 30 31 32 32 33 34 34 33 32 30 29 29 29 30 30 29 29 30 30 31 32 34 36 38 40 42 43 45 46 48 49
17 18 21 22 24 25 26 27 28 29 30 31 32 32 33 34 34 34 33 31 29 29 29 29 29 28 29 29 30 30 31 33 35 37 39 41 43 44 45 47 48 49
19 20 22 23 25 26 27 29 30 31 32 33 33 33 33 34 34 34 32 30 29 29 28 28 28 28 28 29 29 30 32 34 36 38 40 41 43 44 46 47 48 48
20 21 22 24 25 27 28 30 31 32 33 34 34 34 34 34 34 34 32 30 29 28 28 27 27 28 28 28 29 31 32 34 37 38 40 42 44 45 46 47 47 48
22 22 23 25 26 28 29 31 32 33 34 34 35 34 34 34 34 33 31 30 29 28 27 27 27 27 28 28 29 31 33 35 37 39 41 42 44 45 46 47 47 48
25 25 25 27 28 29 30 31 33 34 34 35 35 35 35 35 34 32 31 29 28 27 27 27 27 27 28 29 30 32 34 36 38 40 42 43 44 45 46 46 47 47
27 27 27 28 29 30 30 32 33 34 35 36 36 35 35 35 33 32 30 28 27 27 27 27 27 27 28 30 31 33 35 37 39 40 42 43 44 44 45 46 46 46
29 29 29 29 30 31 31 32 34 35 36 36 36 35 35 34 33 31 29 28 27 27 27 27 27 28 29 30 32 34 36 38 39 41 42 42 43 44 45 45 45 44
31 30 30 31 31 31 31 33 34 36 36 36 35 35 35 34 32 30 28 27 27 27 27 27 28 28 29 31 33 35 37 38 39 40 41 42 43 44 44 44 43 42
32 31 31 31 31 31 32 33 35 35 36 35 35 35 34 32 31 29 28 27 27 27 27 28 28 29 30 32 34 35 37 38 39 40 41 41 42 43 43 42 42 41
32 31 30 30 30 31 32 33 35 35 36 35 35 34 33 31 30 29 28 28 28 28 28 28 29 30 31 32 34 35 36 37 38 39 40 41 42 42 42 41 40 40
30 30 30 30 30 31 32 33 34 35 36 35 34 33 32 31 29 28 28 28 28 28 28 28 29 30 32 33 34 35 36 37 38 39 40 41 41 41 40 39 39 39
28 28 29 30 30 31 32 33 34 35 35 34 33 32 31 30 29 28 28 28 28 28 28 29 30 31 32 33 34 35 36 37 38 39 40 40 40 39 38 38 38 38
28 29 29 30 30 31 32 33 34 35 34 32 31 31 31 30 28 27 28 28 28 28 29 29 30 31 32 33 34 34 36 37 38 38 39 39 38 37 37 37 37 37
29 29 30 30 30 31 32 33 34 34 32 31 31 31 30 29 28 27 28 28 28 28 29 29 30 31 32 32 33 34 36 37 37 38 38 37 36 36 35 36 36 36

ECMWFNIL_500_spd_111.txt.gz
Wind_Speed
14 12 11 10 8 6 5 5 8 10 11 11 12 12 14 16 18 20 22 23 25 26 27 28 29 30 31 32 32 32 32 32 33 33 33 33 33 33 33 32 32 32
13 11 10 8 7 6 6 7 9 10 11 10 11 13 15 17 19 21 23 24 26 27 28 29 30 31 32 33 33 32 32 33 33 33 33 32 32 32 32 32 32 34
11 10 8 8 8 8 8 8 9 9 9 10 12 14 16 18 20 22 24 26 27 28 29 30 31 32 33 33 33 33 33 33 33 32 32 32 32 32 32 33 35 37
10 9 9 9 10 10 9 8 7 8 9 11 13 16 17 19 21 23 25 26 28 29 30 31 32 33 34 34 33 33 33 32 32 31 32 32 32 32 33 35 36 37
10 10 10 10 10 10 8 7 7 9 11 13 15 17 19 21 23 25 26 27 29 30 31 32 33 34 34 34 33 32 32 31 31 32 32 32 32 33 34 35 36 37
11 11 11 11 10 9 7 7 8 10 12 14 16 18 20 22 24 26 27 28 30 31 32 33 34 34 34 33 32 31 31 31 32 32 32 32 32 33 34 35 36 38
13 13 12 11 9 8 8 9 10 11 13 15 17 19 22 24 25 27 28 30 31 32 33 34 34 34 33 32 31 31 32 32 32 32 31 31 32 33 34 36 38 40
14 14 13 11 9 9 9 10 11 12 14 16 19 21 23 25 26 28 29 30 32 33 34 34 34 34 33 31 31 32 32 32 31 31 31 31 32 33 35 37 39 41
16 15 13 11 10 11 11 10 11 13 15 18 20 23 25 26 27 29 30 31 33 34 34 35 34 33 32 32 32 32 32 31 31 30 30 31 32 34 36 38 40 43
17 16 14 13 12 12 11 11 13 15 17 19 22 24 26 28 29 30 31 32 33 34 35 35 34 33 32 32 31 31 30 30 30 30 30 31 33 35 37 40 42 44
17 16 15 14 13 12 12 13 15 17 19 21 23 25 27 29 30 31 32 33 33 34 35 35 34 33 32 31 30 30 29 29 30 30 31 32 34 36 39 41 43 45
18 17 16 14 13 13 14 15 17 19 21 22 25 27 28 30 31 32 33 34 34 34 34 34 33 32 31 30 29 29 29 29 30 31 32 33 36 38 40 42 44 46
17 17 16 15 15 15 16 18 20 21 22 24 26 28 30 31 32 33 34 34 34 34 34 34 33 31 30 29 28 28 29 29 30 31 32 35 37 39 41 43 45 46
17 17 16 16 16 17 18 20 21 22 23 25 27 29 30 32 33 34 35 35 35 35 34 33 32 30 29 28 28 28 29 29 30 32 34 36 38 40 42 43 45 45
18 18 18 18 18 19 20 21 23 24 25 27 29 30 31 32 33 35 36 35 35 35 34 33 31 29 28 28 28 28 29 30 31 32 35 37 39 41 42 44 45 45
19 20 20 20 20 21 22 24 25 25 27 28 30 30 31 32 34 35 36 35 35 35 33 32 30 28 28 28 28 29 29 30 32 34 36 38 39 41 42 44 45 45
21 22 23 23 23 24 24 26 27 27 28 30 30 31 31 33 34 35 35 35 35 34 33 31 29 28 28 28 28 29 29 31 32 34 36 38 39 41 43 44 45 45
24 25 25 25 25 25 26 27 28 29 30 31 31 31 32 33 34 35 35 35 34 34 32 30 29 28 28 28 28 29 30 31 33 35 37 38 40 42 43 44 44 45
27 28 27 27 27 27 27 29 30 30 31 31 31 31 32 33 34 34 35 34 34 33 32 30 29 28 28 28 28 29 30 32 33 35 37 38 40 42 42 43 44 45
29 29 29 28 28 29 30 31 32 32 32 32 31 31 32 33 34 34 34 34 34 32 31 30 29 28 28 28 29 29 31 32 34 35 37 39 40 41 42 43 44 44
30 30 30 30 30 32 33 33 33 33 32 32 31 31 32 33 34 34 34 33 33 32 30 29 29 28 28 28 29 30 31 32 34 35 37 38 40 40 42 43 43 44
30 30 31 32 33 34 34 34 34 32 31 31 31 31 32 33 34 34 33 32 32 31 30 29 28 28 28 28 29 30 31 32 34 35 37 38 39 40 41 42 42 42
32 32 32 33 33 34 34 33 32 31 30 30 31 32 32 33 33 33 32 31 31 30 29 28 28 28 28 28 29 30 31 32 33 35 36 38 39 40 41 41 41 41
33 32 32 33 33 33 32 31 30 30 29 30 31 32 32 33 32 32 31 31 30 30 29 28 27 27 28 28 29 30 31 32 33 35 36 37 38 39 40 40 40 39
32 32 32 32 32 31 30 30 29 29 29 30 31 32 32 32 32 31 30 30 30 29 28 27 27 27 27 28 29 30 31 31 33 34 36 37 37 38 38 39 38 37
32 32 32 32 31 30 29 29 29 29 29 29 30 31 32 32 31 30 30 30 30 29 28 27 27 27 27 28 29 29 30 31 32 34 35 36 36 37 37 37 37 36

ECMWFNIL_500_spd_114.txt.gz
Wind_Speed
17 17 17 17 16 13 11 11 10 9 8 8 8 9 10 11 12 12 14 15 17 18 20 21 23 24 25 26 27 28 29 30 30 30 30 30 30 30 30 31 31 31
18 18 18 17 14 11 11 10 10 10 10 9 9 10 10 11 11 13 14 16 17 19 21 22 23 25 26 27 28 29 30 30 31 31 30 30 30 31 31 31 31 30
18 18 17 15 13 12 11 11 11 11 10 10 9 10 10 11 12 13 15 16 18 19 21 23 24 25 27 28 29 30 31 31 31 31 31 30 31 31 31 31 30 29
17 16 15 14 13 12 12 11 11 11 10 10 9 9 10 11 12 14 15 17 18 20 22 23 25 27 28 29 30 31 31 31 31 31 31 31 31 31 31 30 29 29
16 16 15 14 13 13 12 12 11 11 10 10 9 9 10 11 13 14 16 17 19 21 23 25 26 28 29 30 31 31 31 31 31 31 31 31 31 31 30 30 29 30
16 16 15 14 14 13 13 12 12 11 10 10 9 9 11 13 14 15 17 19 20 22 24 26 27 29 30 31 32 32 32 32 32 31 31 31 30 30 30 30 30 30
16 16 16 15 15 14 13 13 12 11 10 9 9 10 12 14 15 17 18 20 22 23 25 27 28 29 31 32 32 32 32 32 32 31 31 31 30 30 30 30 30 31
17 17 17 16 16 15 14 13 12 11 10 10 11 12 14 16 17 18 19 21 23 24 26 28 29 30 31 32 33 33 33 33 32 31 31 30 30 30 30 30 31 33
18 18 17 17 16 15 15 14 13 12 12 12 13 14 16 17 18 19 20 22 24 26 28 29 31 31 32 32 33 33 33 33 32 31 31 30 30 30 30 30 32 34
19 18 18 17 16 16 15 15 14 14 14 14 15 16 18 18 19 20 22 23 25 27 29 31 32 32 33 33 33 33 33 33 32 31 30 30 30 30 30 31 33 36
20 19 18 17 17 17 17 16 16 16 17 16 17 18 19 19 20 22 23 25 26 28 30 32 33 33 33 33 33 33 33 32 31 30 30 30 30 30 31 33 35 37
21 20 19 19 19 19 19 18 19 19 18 17 18 20 20 20 22 23 25 26 28 29 31 33 34 34 34 34 33 33 33 32 31 30 30 30 30 31 32 34 36 38
22 20 20 20 21 21 21 22 22 21 19 18 20 21 21 22 23 25 26 28 29 30 32 34 34 34 34 33 33 33 32 31 30 30 30 30 30 31 33 35 37 38
23 22 22 22 22 23 23 23 23 21 20 20 22 22 23 24 25 26 28 29 30 31 33 34 34 34 33 33 33 32 32 31 30 30 30 30 31 32 34 35 37 39
25 24 24 24 23 24 24 23 22 22 22 22 23 24 24 25 27 28 29 30 30 31 33 34 34 33 33 33 32 32 31 30 30 30 30 30 31 32 34 36 38 39
27 26 26 25 24 24 24 23 23 23 23 24 25 25 26 27 28 29 30 30 31 32 33 34 33 33 33 33 32 32 31 30 29 29 30 30 31 33 34 36 38 40
28 27 27 26 25 25 25 24 24 24 25 26 26 26 27 28 29 30 30 31 31 32 33 34 33 33 33 33 32 32 30 29 29 29 29 30 31 33 35 36 38 39
28 28 28 27 26 26 26 26 26 26 27 27 27 28 29 30 31 31 31 31 31 32 33 33 33 33 33 33 32 31 30 29 29 29 29 30 31 33 35 36 38 39
28 29 28 28 28 27 28 28 28 28 28 29 29 30 31 32 32 32 31 31 31 32 33 33 33 33 33 32 31 30 29 28 28 28 29 30 31 33 34 36 37 38
28 29 30 30 30 30 30 30 30 30 30 31 31 32 32 33 32 31 31 31 31 32 33 33 33 32 32 31 30 29 28 28 28 28 29 29 31 32 34 35 36 37
29 30 31 31 32 32 32 32 32 32 32 32 33 33 33 33 32 31 31 31 31 32 32 32 32 31 31 30 29 28 28 28 27 28 28 29 30 32 33 35 35 36
31 32 32 33 33 33 33 34 34 33 32 32 32 33 32 32 31 31 30 30 31 31 32 32 31 30 30 30 29 28 28 27 27 27 28 29 30 31 33 34 35 35
33 33 33 34 35 34 33 35 36 34 32 32 32 32 32 32 31 30 29 30 30 31 31 31 30 29 29 29 28 28 27 27 27 27 27 28 30 31 32 33 34 34
34 35 36 36 36 34 34 35 36 35 33 33 33 32 32 31 31 29 29 29 30 30 31 31 29 28 28 28 28 27 27 27 27 27 27 28 29 31 31 32 33 34
36 36 37 38 36 34 34 35 35 35 33 33 33 32 31 31 30 29 29 29 30 30 31 31 29 28 28 28 28 27 27 27 27 27 27 28 29 30 31 31 32 32
37 37 38 38 36 34 33 35 35 34 33 32 32 31 30 30 29 29 29 29 30 30 31 31 29 27 28 28 28 28 28 27 27 27 27 28 29 30 30 31 32 31

ECMWFNIL_500_spd_117.txt.gz
Wind_Speed
19 19 17 15 16 17 16 17 18 17 16 15 14 14 14 14 12 10 9 9 10 11 12 14 15 16 18 19 20 21 22 23 24 25 26 26 26 27 27 28 28 28
20 19 16 16 17 17 18 18 17 15 14 14 15 15 15 13 10 9 9 9 10 11 13 14 15 17 18 19 21 22 23 24 25 26 26 26 27 27 28 28 28 28
18 18 17 17 17 17 17 16 15 15 15 15 15 15 14 11 10 9 9 10 10 12 13 14 16 17 19 20 21 22 24 25 26 27 27 27 28 28 28 28 28 28
16 18 18 17 17 17 16 16 15 15 16 16 15 14 12 11 10 10 10 10 11 13 14 15 16 18 20 21 22 23 24 26 27 27 28 28 28 29 29 29 29 29
17 17 17 16 17 17 16 16 15 15 16 16 15 13 12 11 11 10 10 11 13 14 15 16 18 19 20 22 23 24 25 26 27 28 29 29 29 29 29 29 29 30
16 16 16 16 17 17 17 16 16 16 17 16 15 14 13 12 11 11 12 13 15 16 17 18 19 20 22 23 24 25 26 27 28 29 29 29 29 29 30 30 30 30
15 16 16 17 18 18 17 17 17 17 17 16 15 14 13 13 13 12 13 15 17 18 19 19 20 21 23 24 26 27 27 28 29 29 29 29 30 30 30 30 30 31
15 15 16 18 18 18 18 18 17 17 17 17 16 15 15 14 13 14 15 17 18 19 19 20 21 22 24 25 27 28 29 29 30 30 30 30 30 30 30 30 31 31
16 16 17 18 18 18 18 18 18 18 17 17 17 17 16 15 14 15 17 19 19 20 20 21 22 23 25 26 28 29 30 30 31 31 31 31 31 30 30 31 31 31
17 18 19 19 19 19 19 19 18 18 18 18 18 18 16 15 16 18 19 20 20 21 21 22 24 25 26 27 29 30 31 31 32 32 32 31 31 30 30 31 31 32
19 20 20 20 21 21 20 20 19 19 20 19 18 18 17 17 18 20 21 21 22 22 23 24 25 26 27 28 30 31 32 32 33 32 32 32 31 31 30 31 31 32
20 21 22 22 22 22 21 20 20 20 20 19 19 19 19 20 21 22 22 23 23 24 25 25 27 28 29 29 30 32 33 33 33 33 32 32 31 31 31 31 32 32
22 23 23 24 23 23 22 21 21 21 20 20 20 21 21 22 24 23 23 24 25 25 26 27 28 29 30 30 31 33 33 34 34 33 32 31 31 31 31 31 31 31
23 24 24 24 24 23 23 22 22 21 21 22 22 23 24 25 25 24 25 26 26 26 27 28 29 30 31 31 32 33 34 34 34 33 32 31 31 31 31 31 31 31
23 24 25 25 25 24 24 24 23 23 23 24 25 25 26 26 25 25 27 27 27 27 28 29 30 31 32 32 33 34 34 34 34 32 32 31 31 31 31 31 30 30
23 24 25 25 26 26 26 25 25 25 25 26 27 27 27 26 26 28 28 28 27 28 29 30 30 32 32 32 33 34 34 34 33 32 31 31 30 30 30 30 30 30
22 24 25 26 27 28 28 28 27 27 27 28 28 29 28 28 28 29 29 29 29 29 29 30 31 32 32 32 32 33 34 34 33 31 30 30 30 30 30 30 29 30
23 24 25 27 28 29 30 30 29 29 29 30 30 30 29 29 29 29 30 30 30 30 30 30 31 32 31 31 32 33 33 33 32 30 30 30 29 29 29 29 29 30
24 25 26 27 29 30 32 32 32 31 31 31 31 31 30 30 30 30 31 31 31 31 30 30 31 31 31 31 32 32 33 32 31 30 29 29 29 29 29 29 29 30
25 26 27 28 29 31 32 33 33 33 33 33 33 32 31 31 31 32 32 32 32 30 29 30 31 30 30 30 31 32 32 31 30 29 29 28 28 29 29 29 29 30
27 28 29 30 31 31 32 33 33 34 34 34 34 33 33 32 32 32 32 31 30 29 30 31 30 29 29 29 30 31 31 30 29 29 28 28 28 29 29 29 30 31
31 31 32 33 33 30 30 31 33 34 35 35 34 34 33 33 32 31 30 30 29 29 30 31 29 29 29 29 29 30 31 30 29 28 28 28 29 29 29 29 30 31
34 36 36 35 34 31 29 30 33 34 35 34 34 33 33 32 32 31 30 30 30 30 31 30 29 28 29 28 29 30 30 29 28 28 28 29 29 30 30 29 30 31
33 37 40 39 38 35 31 31 34 35 35 34 33 33 33 32 32 32 32 31 31 32 31 29 28 29 29 28 29 30 31 29 28 28 28 29 30 31 30 30 30 31
32 34 38 40 40 38 37 38 38 37 36 35 34 32 32 32 32 33 32 32 32 32 31 29 29 29 29 29 30 31 31 30 29 28 29 30 31 31 31 31 31 31
33 33 34 37 38 38 39 42 42 39 38 36 33 30 30 31 32 33 33 33 32 31 30 30 30 30 29 30 30 31 31 31 29 29 30 31 32 32 32 31 31 31

ECMWFNIL_500_spd_120.txt.gz
Wind_Speed
20 20 19 17 16 17 18 18 17 16 18 18 17 18 18 17 15 14 15 15 15 15 13 13 13 14 15 16 18 19 21 22 23 24 25 25 26 27 28 29 29 29
19 19 19 18 18 18 18 18 18 18 18 18 18 18 17 16 15 15 15 16 16 14 13 13 14 15 16 18 19 20 21 23 23 24 25 26 27 28 29 29 29 29
18 18 18 18 18 19 19 19 18 19 19 18 17 16 16 16 16 16 17 17 15 14 14 14 15 16 18 19 20 21 22 23 24 25 26 27 28 29 29 29 29 29
17 17 17 18 19 20 19 19 18 17 17 16 16 16 16 16 16 17 17 16 15 14 14 15 16 17 19 20 21 22 23 24 25 26 27 28 29 30 30 30 30 30
18 18 18 18 19 20 19 18 17 16 16 17 17 17 17 17 17 18 17 16 15 15 15 16 17 19 20 21 22 23 24 24 25 26 27 29 30 30 30 30 30 30
19 20 20 20 19 19 19 18 17 16 16 17 17 17 17 17 18 18 17 16 16 16 16 17 18 19 20 22 23 24 24 25 26 27 28 29 30 31 31 31 31 30
20 21 21 21 20 19 19 18 17 17 17 18 17 17 17 18 18 18 18 17 17 17 17 17 18 19 21 22 23 24 25 25 26 28 29 30 31 31 32 31 31 30
22 22 21 21 21 19 18 17 17 18 18 18 17 18 18 18 19 19 19 19 18 18 18 18 19 20 22 23 24 24 25 26 27 28 29 30 31 32 32 31 30 30
22 22 20 21 21 19 18 18 19 19 18 18 18 18 19 19 20 20 20 20 19 19 19 19 20 21 23 24 25 25 26 26 27 28 29 30 31 32 32 31 31 30
21 21 21 21 21 20 19 20 20 19 19 18 19 19 20 20 21 21 21 21 21 20 20 20 21 22 24 25 26 26 26 27 28 29 30 31 32 32 32 31 31 30
21 21 21 22 21 20 20 21 21 20 20 20 20 21 21 22 22 22 22 22 21 21 21 22 23 23 25 26 27 27 27 27 28 29 31 31 32 32 32 32 31 31
20 20 21 21 20 20 21 21 21 21 21 21 21 22 22 23 23 23 23 23 22 22 23 23 24 24 26 27 28 28 28 28 29 30 31 32 32 33 32 32 32 31
20 19 20 20 19 20 20 21 21 21 21 22 22 23 24 24 24 24 24 23 23 23 24 24 24 25 27 28 29 29 29 29 29 30 32 32 32 33 32 32 32 31
20 19 19 19 19 20 21 21 22 22 22 23 23 24 25 26 26 25 24 24 24 25 25 25 25 27 28 29 30 30 30 30 29 30 32 32 32 33 32 32 32 31
20 20 20 20 20 20 21 21 22 23 24 24 25 25 26 27 26 26 25 26 26 26 26 26 26 28 29 30 31 31 30 30 30 31 32 32 32 32 32 32 31 30
20 20 20 20 20 20 21 22 23 24 25 25 26 26 27 27 27 27 27 27 27 27 27 27 28 29 30 31 32 31 31 30 30 31 32 32 32 32 32 32 31 30
21 21 21 20 21 21 22 23 24 25 26 27 27 27 28 28 28 28 28 28 29 29 28 29 30 30 31 32 32 31 30 30 30 31 31 31 32 32 32 31 30 29
22 22 22 22 23 24 24 25 26 26 27 28 28 29 29 29 29 29 30 30 30 30 30 31 31 31 32 32 32 31 30 30 30 31 31 31 31 32 32 31 30 29
23 23 23 24 26 27 28 28 28 28 29 30 29 30 30 30 31 31 31 32 32 32 32 32 33 32 32 32 31 30 30 30 31 31 31 31 31 32 31 31 30 29
24 24 24 26 28 30 32 32 31 30 29 30 30 31 31 32 33 33 33 34 34 34 34 34 34 33 32 31 30 30 30 30 31 31 31 30 31 31 31 31 30 30
24 24 26 27 30 32 33 33 33 31 29 28 30 31 33 34 34 35 36 36 36 36 36 35 34 32 31 31 30 30 30 30 31 32 31 30 30 31 31 31 30 31
24 25 26 28 31 34 34 33 34 34 32 29 29 31 33 34 35 37 37 38 38 37 36 35 34 33 32 31 30 30 30 30 31 32 31 30 31 31 31 31 31 32
26 27 27 28 30 32 34 35 37 37 36 34 32 31 32 33 35 37 38 39 39 38 37 35 34 34 33 32 31 31 31 31 32 32 32 31 31 31 31 31 31 32
27 28 29 29 30 30 32 34 36 36 37 39 39 36 35 35 35 36 38 39 38 37 36 35 35 34 33 32 32 31 32 32 32 33 33 32 32 33 32 32 32 33
27 29 29 29 30 31 32 33 35 36 38 41 44 45 43 40 38 38 39 39 38 36 35 34 35 34 34 33 32 32 32 32 33 34 34 33 34 34 34 33 33 34
27 28 29 30 31 32 32 33 34 36 37 39 43 48 48 44 41 42 42 41 38 34 33 33 34 34 33 33 33 33 33 33 34 35 35 35 35 36 36 35 35 35

ECMWFNIL_500_spd_123.txt.gz
Wind_Speed
24 24 23 23 24 23 22 20 19 19 18 18 18 17 17 17 17 17 16 15 14 14 14 15 16 16 16 17 17 17 18 20 21 23 24 25 26 26 27 28 29 30
22 21 21 21 22 23 23 20 19 19 18 17 17 17 17 16 17 17 17 16 16 15 16 16 17 17 17 17 17 18 19 21 22 23 24 25 26 27 27 29 30 31
20 20 20 21 23 24 24 21 19 18 17 17 18 18 17 17 18 18 17 17 17 16 17 17 17 17 17 17 18 19 20 21 23 24 25 25 26 27 28 29 30 31
21 21 21 22 23 23 22 19 18 18 17 17 18 18 18 19 19 18 17 18 17 17 17 18 18 18 18 18 19 20 21 22 23 24 25 25 26 27 28 29 31 31
22 22 22 21 21 20 20 18 17 18 17 16 17 18 19 19 18 18 18 18 18 18 18 18 18 18 18 19 19 20 21 22 23 24 25 25 26 27 28 29 31 31
22 22 22 21 20 19 18 18 17 17 16 16 17 18 18 18 18 18 18 18 18 19 19 19 19 19 19 19 20 21 21 22 23 24 25 25 26 27 28 30 31 31
22 21 22 22 20 18 18 18 18 17 17 17 17 17 18 18 18 18 18 19 20 20 20 20 20 20 20 20 21 21 21 22 24 24 25 26 26 27 28 30 31 31
22 21 21 21 21 19 19 19 18 18 17 17 17 18 18 18 18 18 19 20 21 21 21 21 21 21 21 21 21 21 22 23 24 25 26 26 27 27 29 30 31 31
23 22 22 22 22 22 20 18 17 17 17 17 17 18 18 18 19 19 20 21 21 22 22 22 22 22 22 22 22 22 23 24 25 26 26 27 27 28 29 30 31 31
23 23 23 23 23 22 20 17 17 17 17 18 18 18 19 19 19 20 21 22 23 23 23 23 23 23 23 22 22 23 24 24 25 27 28 28 29 28 29 30 31 31
23 24 23 23 22 22 19 17 17 17 18 18 19 20 20 20 21 22 23 23 24 24 24 24 24 24 24 23 23 24 25 25 26 28 29 29 30 29 29 30 31 31
23 23 23 22 22 21 19 18 18 18 19 19 20 21 22 22 23 24 24 25 25 25 25 25 25 25 25 24 25 25 26 26 27 29 30 30 31 30 29 31 31 31
23 22 21 21 21 20 19 19 19 20 21 21 22 23 24 25 25 25 25 26 26 26 26 26 26 26 25 25 26 27 27 27 28 29 30 31 32 30 30 31 31 32
23 22 20 19 19 19 20 20 21 22 23 23 25 26 26 26 26 26 26 27 27 28 27 27 27 27 26 27 27 28 28 28 29 31 31 32 32 31 30 31 32 32
22 21 20 19 19 19 20 22 23 24 25 26 27 28 28 27 27 27 27 28 29 29 29 28 28 27 27 28 28 28 29 30 31 32 32 32 32 31 30 31 32 32
22 21 20 19 19 19 21 23 25 26 26 27 28 28 28 28 27 28 28 29 30 30 30 30 29 29 29 29 29 29 30 31 32 33 33 32 32 31 30 31 32 33
22 21 20 20 20 20 22 24 26 27 27 28 29 29 29 28 28 29 29 29 30 30 31 31 31 30 30 30 30 31 31 32 33 33 33 32 33 32 30 31 33 33
22 21 21 21 21 21 22 24 25 26 27 28 29 29 29 29 29 29 30 30 30 31 32 32 32 32 32 32 32 32 33 33 34 34 33 32 33 32 31 31 33 33
21 21 21 21 21 21 23 24 25 27 28 29 30 30 29 29 29 30 31 31 32 32 33 33 33 33 34 34 34 34 34 35 35 34 33 33 32 32 31 32 33 34
21 20 20 20 21 22 24 25 26 27 27 29 30 31 30 30 30 30 32 33 34 34 34 34 35 35 36 36 36 36 36 36 36 35 34 33 32 32 32 33 34 34
21 21 21 21 23 25 26 26 26 25 26 28 29 30 31 33 33 32 33 34 35 36 35 36 37 37 38 38 38 38 38 37 37 37 35 33 33 33 33 33 35 35
22 23 23 24 26 27 27 27 26 25 26 28 29 30 32 35 36 37 38 37 36 36 36 36 38 39 40 40 40 40 39 39 39 38 36 34 33 34 34 35 36 36
24 25 26 27 28 28 28 28 28 27 27 29 30 32 34 37 38 39 41 41 40 38 37 37 37 38 40 41 40 39 39 39 39 38 37 35 34 35 35 36 37 38
27 28 28 29 30 29 29 29 29 28 29 30 32 34 36 37 38 39 41 43 43 43 41 39 38 38 39 40 40 40 39 39 39 38 37 36 35 35 36 37 38 39
29 29 29 29 29 29 29 29 28 28 28 28 30 32 33 33 34 36 39 42 45 48 47 43 40 40 41 42 43 43 40 38 37 37 37 36 35 36 37 38 39 40
28 28 29 29 29 29 29 29 28 28 27 27 28 29 30 30 31 34 37 39 41 43 43 41 39 40 43 46 47 42 37 35 37 38 38 36 35 36 38 39 40 40

ECMWFNIL_500_spd_126.txt.gz
Wind_Speed
17 19 19 19 20 20 21 22 23 23 23 22 20 18 16 15 15 16 17 18 18 19 19 19 18 17 14 12 13 14 15 15 16 17 19 20 21 22 23 24 26 27
17 18 18 18 19 19 19 20 21 22 22 21 20 18 16 15 16 16 16 17 17 18 19 19 18 16 14 13 14 15 16 16 17 18 19 20 21 22 24 25 26 26
17 17 18 18 19 19 20 21 22 23 23 22 20 18 17 16 16 16 16 16 17 19 19 18 17 15 14 14 15 16 16 17 17 18 19 20 21 23 24 25 25 26
17 17 18 19 20 21 22 21 22 23 22 21 20 19 18 17 16 16 17 18 19 19 18 17 16 15 14 15 16 17 17 17 18 19 20 20 21 23 24 24 25 26
18 18 18 19 21 22 21 20 20 21 19 18 19 18 17 16 16 16 18 19 19 18 17 16 16 16 16 16 17 18 18 18 19 20 20 21 22 23 23 24 25 26
18 18 19 21 22 22 20 19 19 19 18 18 17 17 16 16 16 17 18 19 18 17 16 16 17 17 17 18 18 18 18 19 20 20 21 21 22 23 23 24 25 26
18 18 19 21 22 22 20 19 19 19 19 18 17 16 16 16 17 18 19 18 18 17 17 17 17 18 19 19 19 19 19 20 21 21 22 22 22 23 24 25 26 27
18 18 19 20 22 22 20 19 20 20 20 19 19 18 17 17 18 19 19 18 17 17 17 18 19 19 20 20 20 20 21 21 22 22 22 23 23 24 24 26 27 27
18 18 19 20 22 23 21 20 20 21 21 21 20 19 18 18 19 19 18 18 18 18 18 19 20 20 21 22 22 22 22 23 23 23 23 23 24 25 25 27 28 28
18 18 19 20 22 23 22 21 21 21 22 21 20 19 18 18 19 18 18 18 18 19 19 20 21 22 22 23 23 23 24 24 24 24 24 25 25 26 27 28 29 29
19 19 20 21 22 23 22 21 20 20 20 20 20 19 18 18 19 18 18 19 19 20 20 21 22 23 24 24 24 25 25 26 26 26 25 26 26 27 28 29 29 30
20 20 20 21 22 22 22 21 20 20 20 20 20 19 18 19 19 19 19 20 20 21 21 22 23 24 25 26 26 26 27 27 27 27 27 27 27 28 29 30 30 31
21 21 21 21 21 21 21 20 19 19 19 19 19 18 19 19 19 19 20 21 21 22 23 24 25 26 27 27 28 28 29 29 28 28 28 28 29 30 30 31 31 31
21 21 21 21 21 21 20 19 18 18 18 18 19 19 19 19 19 20 21 22 23 24 25 26 27 28 29 29 30 30 30 30 30 29 29 29 30 31 31 32 32 32
22 21 21 21 20 19 18 17 17 17 17 18 19 20 20 20 21 22 23 24 25 26 27 28 29 29 30 31 32 32 32 32 31 31 30 30 31 32 33 33 34 33
21 22 22 21 20 18 17 16 16 17 17 18 19 21 22 22 23 24 25 26 27 28 28 29 30 30 31 32 33 33 34 34 33 33 32 32 32 33 34 35 34 34
21 21 21 20 18 17 16 16 17 17 17 18 19 21 23 24 25 26 27 28 28 29 29 30 30 31 32 33 34 34 35 35 35 34 33 33 34 34 35 36 35 35
21 20 19 18 17 16 16 17 17 17 18 19 20 21 23 25 26 27 29 29 29 30 31 32 32 32 33 34 34 35 36 36 37 36 35 35 35 35 36 37 37 36
20 19 17 16 16 16 17 18 18 19 20 21 21 21 23 25 27 28 30 31 31 32 33 33 33 33 34 35 35 36 37 38 38 37 37 37 37 37 38 38 38 37
19 18 16 15 16 18 19 19 20 21 22 21 21 22 23 25 27 28 31 32 33 34 35 35 34 35 36 36 36 37 38 38 39 38 38 39 39 39 39 39 38 37
20 18 17 17 18 20 21 21 22 22 22 22 23 23 25 26 27 28 30 31 32 34 36 37 38 38 39 40 39 39 39 39 38 39 40 39 40 42 42 40 38 38
21 20 20 21 22 22 23 23 24 23 23 24 25 25 26 26 27 28 29 30 32 34 36 39 42 43 43 43 42 41 41 40 38 38 40 41 43 44 41 38 37 38
23 22 23 24 24 25 25 25 25 25 25 25 26 26 26 26 26 27 28 29 31 32 33 37 42 45 46 46 46 46 45 42 39 38 39 41 42 42 39 37 37 38
26 26 26 26 26 27 27 26 26 26 26 26 26 26 26 26 26 27 27 28 30 31 32 34 37 40 40 40 42 45 44 40 38 38 38 40 42 43 40 38 37 38
29 29 28 28 29 29 28 27 26 26 26 26 26 26 26 26 26 27 27 28 30 31 31 31 32 33 33 33 34 35 34 34 36 37 38 41 41 39 35 33 35 37
30 30 30 30 30 30 28 27 26 26 26 26 26 26 26 26 26 27 28 28 29 30 31 31 32 34 34 34 33 31 29 31 34 36 37 37 32 30 29 31 34 36